GFSSGP_sfc_rhum_000.txt.gz
RH
30 12 11 10 10 12 19 21 22 34 34 36 33 29 34 43 38 43 38 40 36 43 47 50 88 86 86 87 86 86 85 83 82 81 78 75 80 81 82 81 77 72 69 66 66 68 64 71 77
12 10 9 9 10 13 18 19 23 29 35 33 34 36 33 43 44 46 41 40 38 43 48 50 93 90 87 87 87 86 85 86 85 84 83 80 80 83 82 79 78 76 73 72 71 71 78 78 76
13 9 8 9 10 14 18 18 32 34 35 34 34 34 39 40 38 35 35 36 38 42 45 56 92 93 93 92 88 88 86 86 88 88 85 83 82 81 80 80 79 76 76 76 77 79 84 83 83
9 7 9 10 14 20 19 24 26 32 36 33 25 33 39 40 37 35 37 35 34 36 41 72 94 93 91 90 91 92 93 94 92 89 86 84 83 78 77 80 78 77 77 78 78 77 76 80 84
6 7 12 13 16 21 20 23 27 27 29 31 31 36 40 45 45 39 40 37 34 33 39 41 95 92 88 86 86 88 92 93 91 89 88 87 84 83 82 80 79 80 78 78 80 82 84 87 86
6 10 12 15 20 23 24 27 24 22 26 31 29 29 36 46 43 41 41 36 31 34 42 42 84 92 91 89 88 90 90 89 87 89 88 88 87 84 81 78 77 77 77 76 76 78 80 83 85
8 9 11 13 18 18 18 18 18 18 20 23 25 26 44 48 38 41 36 33 34 33 36 40 41 62 92 91 90 92 92 89 87 88 89 90 89 85 82 79 76 77 77 76 76 77 78 78 79
7 7 10 10 11 10 8 9 12 13 18 28 24 22 35 38 43 42 37 35 34 38 35 42 47 42 46 48 88 89 90 92 88 85 84 87 86 81 78 73 76 76 75 76 77 78 76 78 81
7 7 8 8 8 8 7 7 8 14 19 22 22 20 27 37 45 47 44 39 38 39 45 47 42 46 46 41 56 80 86 89 90 80 84 78 45 49 51 79 78 78 78 79 76 76 72 70 77
6 7 8 7 7 7 7 6 8 11 12 14 18 28 35 43 48 48 43 38 41 43 45 44 51 49 49 37 46 48 47 44 50 50 57 46 55 53 57 70 83 82 81 77 79 82 82 72 36
9 8 8 8 8 6 7 7 7 7 9 9 12 20 37 43 45 42 37 32 36 38 39 44 54 56 51 41 39 35 36 41 45 59 59 54 56 52 49 48 46 50 73 46 51 50 43 52 48
11 11 8 9 9 8 8 8 9 8 7 9 12 17 30 37 37 34 32 29 30 34 38 43 49 56 58 40 37 38 39 40 42 45 62 57 50 52 53 45 44 47 46 54 49 47 57 49 43
11 12 12 11 11 11 12 11 12 10 8 9 13 23 27 28 28 30 28 25 27 35 40 46 50 54 50 56 44 48 49 41 46 46 48 54 49 51 46 45 41 42 43 45 48 45 41 34 32
15 13 13 14 14 14 14 13 12 10 10 10 12 18 22 25 25 27 29 30 32 36 39 47 49 51 43 46 52 47 44 41 41 40 41 53 54 49 42 38 35 34 34 38 42 41 37 32 31
14 14 13 14 14 15 13 12 11 10 10 11 10 12 19 23 21 24 25 30 30 30 35 45 46 40 43 42 41 38 32 37 33 33 42 45 46 43 45 37 36 35 36 45 47 48 41 36 29
12 12 13 16 14 16 14 13 11 14 14 11 13 12 17 23 24 22 24 27 30 32 38 39 37 33 37 38 36 33 30 35 32 34 36 43 45 46 46 38 37 37 40 38 40 41 38 36 31
13 10 13 16 16 17 16 14 14 13 15 15 13 13 12 19 26 29 34 33 29 29 36 37 36 25 30 37 35 38 41 34 26 30 28 34 39 42 44 38 37 42 39 39 39 40 40 39 32
14 12 13 14 15 16 17 17 14 15 16 17 15 14 12 17 26 26 24 22 25 30 36 34 28 29 36 34 37 29 30 28 28 26 26 31 30 37 40 37 43 44 42 40 38 45 40 37 36
16 16 16 14 19 25 23 16 15 16 15 17 16 15 17 21 22 21 23 24 30 39 36 32 32 37 30 26 26 24 26 25 26 26 33 36 34 36 40 36 39 41 41 44 49 47 49 46 40
18 18 18 19 22 26 19 18 16 17 19 19 17 17 18 19 19 23 25 28 30 33 33 31 28 29 27 24 28 31 34 28 30 28 32 30 33 32 32 37 37 38 38 44 47 51 50 47 44
22 21 26 25 22 23 21 20 18 18 18 18 18 18 18 19 20 22 26 30 32 34 32 29 30 31 33 30 26 26 27 27 27 28 26 29 33 32 34 36 39 42 40 38 42 44 48 45 44
24 25 30 28 27 21 24 20 24 18 19 19 20 21 21 21 20 21 23 28 31 37 36 32 32 30 31 34 32 38 31 32 33 33 30 31 32 33 32 35 40 43 40 42 41 34 43 45 45
32 33 32 31 27 28 25 20 26 21 22 22 22 24 24 25 27 29 30 30 31 35 38 36 33 32 33 32 37 34 38 36 34 34 35 32 29 32 33 39 44 45 42 44 51 53 52 49 50
30 32 33 32 31 39 32 28 28 25 28 24 25 28 30 30 27 31 31 30 32 36 40 38 33 32 35 36 37 44 47 44 38 34 33 30 31 31 36 40 45 47 47 48 48 54 58 57 58
26 29 38 50 48 43 32 29 35 29 27 29 31 31 33 34 33 31 31 30 34 38 39 35 34 32 35 39 38 39 39 40 38 37 34 38 35 35 40 47 47 42 46 47 48 53 56 64 68
34 35 51 50 49 38 30 30 30 28 27 29 29 32 32 33 33 32 31 32 35 38 39 38 36 34 33 36 34 32 38 38 36 38 39 40 41 42 48 48 46 47 48 50 54 63 64 62 64
35 43 39 55 79 65 30 33 31 28 28 28 30 32 33 32 32 32 31 33 36 39 40 44 40 33 34 37 39 42 43 43 44 45 44 41 46 41 48 51 47 42 46 48 53 60 68 67 68
33 35 44 43 75 44 23 26 25 36 32 31 31 32 33 31 31 31 30 35 38 38 42 43 42 39 40 40 41 41 43 43 44 44 46 47 48 50 47 45 44 45 49 58 61 64 65 65 62
38 41 41 37 47 54 54 29 31 30 30 31 31 29 32 34 32 32 33 33 34 39 40 41 43 44 42 40 42 43 45 43 43 45 47 49 50 46 43 44 48 53 67 76 78 67 57 47 47
37 40 38 49 45 54 62 45 28 29 29 31 31 31 33 35 33 32 34 36 38 42 42 42 44 41 43 42 42 43 44 42 44 48 50 54 55 54 52 61 72 71 71 60 55 53 45 42 40

GFSSGP_sfc_rhum_003.txt.gz
RH
36 15 9 10 10 9 16 18 16 20 23 23 20 21 23 27 35 50 27 28 33 37 42 50 89 86 86 82 81 79 81 83 83 80 78 79 78 79 82 79 78 75 74 72 71 72 74 75 74
10 8 9 9 11 11 14 14 17 19 20 18 18 18 20 31 31 33 29 27 32 36 40 52 94 89 83 86 83 82 81 84 83 82 82 82 82 83 81 80 80 78 76 76 75 75 80 79 78
19 8 8 7 8 10 15 13 20 20 19 18 18 17 22 29 26 25 26 28 32 35 39 67 95 94 92 89 84 83 84 89 90 87 85 84 82 78 78 80 79 77 76 76 75 75 80 87 84
9 6 7 9 12 12 13 18 17 19 21 19 15 23 28 21 24 26 25 26 28 30 40 82 96 95 93 92 94 94 95 94 92 89 85 83 81 79 80 80 80 79 76 76 78 80 81 81 82
7 7 9 10 14 14 15 15 16 17 17 17 16 19 31 32 27 25 25 23 26 26 31 52 95 93 90 87 88 91 92 92 90 88 88 86 83 82 80 80 79 76 75 73 74 78 82 87 89
7 7 10 13 14 16 16 17 16 14 15 16 16 20 30 30 28 28 25 24 21 28 31 38 84 90 90 88 88 90 89 88 88 88 86 85 84 81 78 78 78 78 77 75 72 74 76 77 80
9 10 11 13 17 17 17 14 13 12 14 14 13 19 29 27 29 28 24 21 20 25 29 32 37 64 89 89 90 91 89 87 87 87 88 88 86 82 78 76 76 76 74 74 73 73 73 75 77
6 7 10 11 14 13 10 10 11 12 14 12 11 17 28 29 30 27 24 22 22 25 28 34 35 34 40 52 89 90 91 90 86 84 83 84 84 80 74 73 76 74 73 74 72 74 73 72 78
5 8 9 8 8 8 6 6 6 7 12 12 12 18 17 30 32 29 27 23 25 27 33 33 33 36 37 33 58 83 86 87 87 78 82 76 46 44 51 79 77 76 77 76 73 73 70 69 74
6 7 7 5 5 6 5 5 6 8 11 9 13 16 22 30 32 30 26 25 28 33 32 36 40 40 38 26 36 38 37 40 43 43 47 38 46 45 46 67 83 82 80 77 76 76 76 78 35
6 8 6 6 5 4 4 5 4 6 8 8 11 14 22 27 29 29 26 23 26 29 28 34 48 45 38 33 32 29 30 35 38 46 48 46 45 44 42 42 44 50 71 43 55 51 43 48 44
8 6 6 5 6 6 5 5 6 5 5 6 8 14 21 27 28 27 26 22 24 26 26 35 43 45 43 32 30 31 31 34 34 39 46 47 42 44 45 38 38 38 34 43 42 40 46 46 38
7 7 6 6 7 7 8 8 9 6 6 7 9 15 21 24 25 24 23 22 22 24 26 31 40 39 36 42 37 40 41 36 40 37 39 40 42 46 40 39 34 33 31 34 37 37 36 36 33
8 9 9 10 10 10 11 9 9 9 7 7 9 12 16 19 20 21 23 22 22 23 29 32 36 37 31 34 41 42 39 35 33 32 34 40 42 45 39 36 32 31 30 31 34 36 38 34 30
9 10 10 11 11 11 10 10 10 8 8 8 8 9 13 16 16 20 22 22 23 22 25 34 35 33 31 34 36 32 27 29 29 29 34 35 38 40 43 38 36 33 34 40 37 37 36 36 32
10 10 12 11 11 12 11 12 9 9 10 9 10 9 10 14 16 16 19 21 21 21 24 30 30 29 30 33 30 27 27 30 29 29 30 35 37 39 43 37 37 36 39 36 36 34 35 35 34
11 11 11 14 11 12 11 11 11 10 11 11 9 10 10 12 15 16 17 18 20 21 24 28 34 25 27 33 28 31 33 30 24 26 25 30 32 33 38 36 39 47 40 42 41 38 41 39 37
11 9 8 9 12 10 10 11 11 12 12 12 10 10 10 10 15 18 22 21 20 22 23 26 30 23 27 28 31 25 26 26 25 25 26 30 30 36 38 37 44 43 40 41 41 50 42 44 42
11 11 11 10 13 14 15 11 13 13 12 13 12 12 12 11 16 22 21 22 24 28 26 24 29 34 26 25 26 24 25 25 26 25 30 33 32 33 36 33 36 40 39 44 48 47 50 47 45
14 14 14 13 14 15 14 13 13 14 15 14 14 14 16 19 20 21 22 24 25 30 28 30 30 26 23 23 26 31 32 28 28 27 30 28 32 33 33 36 34 38 36 46 49 52 48 46 46
17 18 21 20 15 13 15 16 15 15 14 15 15 16 15 17 20 23 25 30 32 32 30 26 27 28 30 27 25 26 26 27 26 28 28 29 36 31 31 33 36 42 41 39 47 46 49 45 44
21 20 22 20 19 18 14 17 18 15 17 17 19 19 18 18 18 19 23 27 33 34 32 29 28 27 29 33 30 35 32 33 34 33 31 30 32 28 26 29 36 44 42 47 44 34 51 50 48
25 25 23 22 21 19 17 15 23 16 18 20 21 22 22 22 23 24 25 27 29 34 36 32 30 29 30 30 35 36 39 38 38 35 40 40 32 30 28 31 37 44 40 46 51 53 50 47 49
23 25 24 25 22 33 23 20 22 20 22 22 23 25 25 23 26 26 26 27 31 34 36 35 30 29 32 34 36 42 54 51 38 36 34 30 32 30 33 31 39 45 45 45 47 47 53 62 58
20 23 38 44 41 39 23 20 28 23 22 23 26 25 28 29 27 26 26 27 31 33 34 32 29 28 30 35 37 35 35 36 36 35 35 37 34 34 39 42 45 41 42 42 49 65 69 74 80
25 28 48 43 42 32 22 22 25 22 23 24 24 26 26 29 30 30 29 30 30 32 33 36 34 32 28 32 33 33 34 34 34 37 37 38 39 40 40 42 44 43 43 54 58 55 60 62 66
28 34 27 45 56 56 21 21 23 23 24 24 25 26 27 28 28 29 28 29 33 33 34 38 36 33 34 36 36 37 37 39 40 42 42 39 43 36 40 42 42 51 51 60 62 64 68 69 70
29 25 40 37 64 38 19 17 26 31 26 25 24 26 26 27 27 27 26 29 31 31 34 36 38 36 35 35 35 34 38 39 38 39 41 42 42 42 46 51 54 58 61 62 68 64 64 66 63
30 33 32 25 37 47 43 27 25 25 25 27 26 24 25 26 27 27 28 31 30 30 33 36 36 40 36 34 37 41 39 38 38 38 41 47 52 50 59 63 65 67 70 73 73 63 60 65 65
28 31 29 46 39 43 52 43 22 24 23 25 26 26 27 28 28 28 28 31 34 37 36 36 40 42 40 39 38 36 36 37 38 41 47 51 55 58 61 67 67 71 75 72 69 66 53 50 50

GFSSGP_sfc_rhum_006.txt.gz
RH
43 17 16 13 19 16 14 16 17 22 23 19 20 20 28 36 44 60 30 33 42 54 59 67 88 88 86 85 86 87 87 86 84 83 84 84 82 81 80 80 79 77 75 74 73 76 78 78 81
17 14 11 15 18 16 15 16 18 22 19 15 16 16 26 38 33 33 34 34 43 52 57 70 91 88 87 88 86 87 86 84 85 84 83 83 82 81 79 79 80 77 74 74 74 74 80 84 84
30 13 13 17 15 14 18 16 22 18 14 15 18 25 25 31 29 30 32 34 46 58 69 86 95 91 90 91 90 90 92 92 90 87 83 80 79 77 78 80 81 76 74 75 76 76 77 80 84
15 11 10 13 12 13 14 20 18 17 18 16 18 29 25 23 29 28 29 31 34 60 75 93 95 94 94 94 94 94 94 93 91 88 84 82 80 79 79 81 77 73 72 73 75 78 83 87 89
14 14 14 14 15 15 16 15 15 17 17 16 16 32 37 30 24 24 25 27 32 53 67 79 94 93 91 90 90 92 93 92 90 88 85 82 80 78 78 78 77 75 73 71 71 72 75 78 82
13 12 16 14 16 15 15 14 15 19 17 14 17 28 37 27 25 25 23 24 27 40 60 65 90 92 91 91 92 92 90 90 90 88 83 83 81 79 77 77 77 76 75 74 72 71 72 74 77
17 16 15 16 17 18 18 15 13 12 14 14 14 30 32 28 28 24 23 22 30 32 37 48 63 83 88 91 92 92 91 90 89 88 87 85 85 82 78 76 74 72 72 71 70 70 70 69 73
10 11 13 15 16 17 13 12 10 11 16 10 11 24 32 33 28 25 24 24 27 35 35 44 55 53 66 79 90 92 91 90 88 86 86 87 86 83 79 80 75 72 70 69 68 68 68 68 68
6 10 13 11 12 11 8 7 7 7 13 11 15 16 26 29 28 28 27 25 28 32 44 46 42 50 60 63 75 87 88 88 87 84 84 83 73 73 72 76 79 74 73 72 70 69 68 74 76
7 10 8 6 6 6 6 6 6 7 12 12 16 22 31 32 32 31 29 28 32 42 40 49 53 54 49 32 69 67 59 69 70 64 68 66 64 61 56 70 82 82 82 81 80 79 80 80 68
7 9 6 5 6 4 5 5 5 8 10 10 15 19 32 35 34 30 25 26 31 36 38 50 61 58 51 52 53 52 55 58 66 64 64 64 63 64 70 80 83 92 89 82 85 80 83 64 68
7 6 5 5 5 4 4 5 5 6 7 8 11 14 28 29 30 29 27 25 30 34 35 49 56 60 56 53 51 55 54 57 59 62 60 69 70 72 68 67 60 62 62 60 64 64 63 64 56
7 6 6 5 6 7 8 7 8 6 7 8 10 17 25 27 27 27 26 26 28 33 36 45 53 60 63 57 64 64 61 64 62 60 61 66 66 72 68 65 62 61 58 58 61 59 58 58 52
7 6 6 7 8 8 9 8 10 8 6 7 10 17 21 25 26 27 28 29 35 30 38 51 50 56 52 55 59 65 62 63 64 57 56 55 65 69 67 66 63 61 59 60 59 58 62 61 55
8 9 9 10 10 10 9 11 10 9 8 8 9 12 16 20 20 24 27 29 28 26 32 67 77 66 53 54 57 58 49 44 51 51 54 50 54 62 65 67 66 64 63 60 62 63 60 63 56
9 10 13 10 10 11 11 14 9 9 9 10 9 10 11 16 18 20 25 25 23 28 60 92 59 53 52 58 49 46 52 54 50 55 54 53 52 54 63 67 68 67 70 66 67 66 64 63 62
12 13 14 14 9 11 11 14 10 9 10 11 11 11 11 12 17 19 22 26 29 26 44 57 53 52 50 52 47 48 51 52 49 49 52 54 50 58 64 65 69 70 68 69 68 61 67 67 66
16 11 9 10 11 9 10 10 11 11 11 12 11 11 12 12 14 19 20 23 27 29 32 41 59 60 54 47 49 45 46 48 48 50 50 51 51 55 61 61 68 70 66 66 69 74 66 66 63
10 10 10 12 12 13 12 12 12 12 12 16 17 15 15 16 24 29 32 35 34 38 33 47 53 56 46 46 48 50 53 48 51 46 49 48 53 54 60 60 60 61 62 66 65 65 65 60 67
12 13 13 12 12 13 13 12 14 14 15 16 15 18 21 24 24 27 33 38 46 45 48 55 46 41 39 40 48 50 50 49 47 49 52 51 55 52 44 58 57 60 63 66 70 73 67 62 62
15 16 23 20 16 14 14 16 16 15 16 16 18 18 20 23 27 30 35 44 47 46 45 37 38 41 49 48 39 44 47 46 48 47 48 49 49 46 50 54 58 63 64 64 67 68 68 69 62
20 21 21 19 19 20 13 20 19 17 19 20 21 23 22 22 22 25 34 41 45 48 49 41 40 38 42 47 49 50 49 52 53 58 55 54 53 53 46 51 60 65 68 67 70 54 74 74 72
24 22 21 21 21 20 17 20 23 17 20 23 24 24 26 28 29 30 33 36 39 48 52 48 41 38 40 44 48 53 60 62 62 64 61 55 57 54 50 52 60 67 65 67 72 71 78 79 83
21 23 22 23 25 48 20 22 34 23 23 25 25 26 27 28 30 30 32 36 40 48 50 48 41 36 40 46 52 57 57 58 57 57 59 55 55 54 56 53 63 66 67 66 73 83 80 87 86
20 26 52 67 59 57 24 22 33 24 24 24 26 27 31 32 33 32 31 33 38 44 45 45 43 40 42 45 46 50 53 57 57 58 60 58 57 60 59 62 63 64 65 67 67 74 79 78 88
25 26 67 58 65 48 20 22 31 25 24 24 24 26 28 32 35 34 34 37 38 42 44 46 44 41 41 50 50 53 56 53 54 59 58 62 63 63 60 62 61 66 69 74 73 78 78 82 88
30 36 24 47 68 68 26 28 26 24 25 24 25 25 27 29 31 31 32 37 38 41 45 50 46 44 45 52 57 56 56 59 59 58 60 62 63 51 61 70 67 67 72 75 78 81 80 82 86
25 22 42 54 71 49 26 27 42 31 28 25 24 25 25 28 31 34 33 39 39 41 49 55 50 46 46 48 55 51 53 54 55 57 60 65 62 59 63 69 72 71 72 71 72 79 77 78 83
29 31 30 26 45 60 57 34 24 27 26 27 28 26 29 30 32 35 35 37 38 42 43 51 50 48 50 48 52 56 55 54 55 58 63 63 65 63 63 60 64 66 68 82 85 82 74 69 69
24 28 27 70 50 62 66 44 24 28 32 30 29 30 33 35 37 37 40 42 41 45 46 47 53 53 52 52 52 49 51 50 53 58 57 60 60 63 59 60 60 63 65 74 78 79 73 70 70

GFSSGP_sfc_rhum_009.txt.gz
RH
50 26 27 22 25 26 24 18 30 29 31 27 33 44 52 49 56 80 69 66 73 82 79 80 90 89 90 90 90 90 87 86 86 87 88 85 82 81 80 79 80 76 74 74 73 76 79 82 83
33 20 22 20 28 29 26 26 28 25 24 29 30 36 45 54 42 57 70 62 67 75 82 83 91 90 90 91 90 89 87 87 88 88 84 83 80 78 78 80 83 77 74 73 73 74 76 80 83
33 22 19 23 26 25 32 26 24 22 20 24 36 36 40 48 42 51 64 68 78 90 89 88 92 93 93 92 92 93 93 92 90 88 78 80 78 78 80 80 80 73 72 72 73 76 81 86 89
20 19 15 19 19 16 28 25 23 24 22 28 32 50 36 35 41 48 64 75 89 98 97 97 96 96 94 94 94 94 93 93 91 87 82 80 78 78 79 78 74 71 69 69 69 71 74 80 84
29 22 21 23 20 30 22 20 20 25 24 36 40 47 43 36 37 40 67 71 92 97 95 93 96 95 94 93 93 93 93 93 92 89 86 81 78 78 78 78 76 73 72 70 69 70 71 75 81
21 17 22 21 20 21 21 18 22 26 25 34 45 46 45 35 35 37 45 68 76 90 94 88 92 92 93 93 92 92 92 92 91 89 87 81 80 81 78 78 75 73 71 69 69 69 69 71 74
23 24 23 20 20 26 20 16 16 24 22 32 40 50 45 39 34 34 41 56 69 76 88 92 89 88 92 93 92 92 92 91 90 89 89 87 86 85 81 78 74 71 70 67 66 67 71 70 74
17 19 18 18 23 27 16 14 12 17 18 15 35 49 57 41 35 32 40 44 47 57 66 78 85 86 95 94 92 91 90 89 87 86 88 87 85 83 83 81 78 74 70 66 64 69 73 72 75
12 15 16 13 16 18 13 11 8 13 15 28 32 38 42 37 34 34 37 42 48 49 57 68 70 76 85 92 86 89 89 88 86 86 86 88 89 84 81 83 81 77 77 76 74 75 76 77 76
12 17 13 9 11 11 10 9 8 13 16 34 44 38 36 37 38 37 37 41 47 52 59 58 59 75 72 52 85 91 82 89 88 87 88 87 89 88 74 81 82 79 80 81 83 82 81 82 85
12 13 9 8 7 8 8 8 9 15 18 23 50 44 42 42 42 39 36 40 47 47 56 63 57 57 58 66 83 87 86 90 87 80 70 72 71 80 82 93 91 95 90 92 88 89 90 87 83
12 8 7 8 8 6 7 6 8 11 11 17 37 42 42 44 44 38 36 37 46 50 59 61 62 56 63 57 68 66 69 70 80 74 71 77 82 74 74 75 78 86 91 95 88 82 76 77 70
9 9 7 8 8 11 9 8 10 11 12 15 27 37 43 41 42 37 34 34 43 51 60 60 63 64 60 64 72 68 72 67 67 73 66 69 76 72 72 73 68 66 67 66 64 62 61 65 60
11 8 8 8 12 12 14 13 12 12 10 15 24 36 36 35 34 37 37 34 41 42 57 80 76 67 59 65 69 67 70 65 72 67 65 64 69 73 74 71 72 67 69 68 66 63 65 66 66
11 11 11 12 13 14 14 17 15 12 9 11 17 31 33 33 34 34 36 37 37 64 72 86 92 83 67 60 60 67 48 50 60 60 57 59 60 62 66 72 75 75 74 72 70 70 73 71 66
14 17 20 15 15 14 14 20 15 12 12 13 15 15 22 33 32 34 35 34 46 73 77 80 75 75 77 62 54 51 56 58 60 62 67 62 62 66 71 69 72 77 77 76 74 76 75 76 76
22 22 21 17 14 17 18 22 15 14 13 14 15 14 14 22 30 33 33 33 50 70 70 78 82 89 76 53 52 59 50 50 55 61 62 57 63 64 68 68 71 74 78 80 79 78 84 85 78
23 20 25 22 18 14 16 19 19 16 16 17 18 20 19 28 34 36 40 38 43 63 79 78 88 81 61 61 58 63 57 58 59 59 57 59 60 60 61 61 62 65 69 73 70 74 71 77 72
17 18 22 22 16 21 20 21 22 22 24 24 27 39 39 39 40 47 50 56 65 64 69 76 81 68 67 61 67 62 55 56 60 53 58 56 52 52 56 61 66 70 69 72 70 77 72 67 75
18 26 31 22 18 18 20 25 24 24 26 27 31 35 38 42 45 46 47 47 56 67 69 67 65 65 59 57 62 58 58 57 57 55 57 59 60 57 51 63 67 69 70 70 70 73 79 78 78
28 31 31 29 22 22 25 29 26 24 24 24 28 31 36 41 47 50 51 56 54 67 55 50 48 48 53 56 47 49 52 55 58 62 62 59 65 58 55 61 67 72 73 72 73 78 76 84 81
36 30 29 26 31 34 22 41 32 29 32 31 33 37 38 41 45 46 52 57 58 61 53 49 47 44 44 51 55 56 62 68 71 73 69 70 59 56 56 58 65 73 74 73 80 68 84 88 91
35 34 33 33 36 38 30 41 34 29 36 36 37 38 42 44 47 50 53 54 57 55 54 54 48 44 45 47 53 65 65 68 69 72 66 62 62 59 58 62 66 71 77 75 85 88 88 91 91
25 34 36 37 41 65 38 44 53 45 37 39 38 39 40 43 45 48 51 50 54 54 52 46 46 47 48 51 58 58 57 64 69 68 68 66 65 67 61 61 68 72 77 84 85 89 88 90 86
32 46 77 76 79 76 42 43 53 40 35 37 44 46 47 47 48 47 46 50 55 57 56 54 52 48 53 54 57 62 63 64 68 67 66 62 66 68 75 75 77 80 80 83 84 87 88 91 94
38 43 80 76 87 70 28 50 50 34 34 34 36 40 43 44 44 44 43 46 46 43 49 55 50 49 54 65 62 63 64 68 61 57 58 70 78 77 75 81 80 80 80 85 86 90 87 81 88
40 49 35 66 79 85 50 43 37 32 32 33 33 34 44 46 43 39 41 43 46 51 60 63 58 58 57 57 62 62 64 59 60 57 74 79 76 60 78 81 80 80 83 77 76 80 82 90 92
33 30 59 69 70 64 46 55 63 46 44 35 35 38 42 41 44 47 49 55 57 58 67 67 62 61 60 59 62 57 60 57 61 73 72 72 72 72 72 72 74 76 78 83 89 94 91 89 89
43 48 44 43 66 79 85 58 44 46 43 44 41 47 51 51 53 56 56 54 57 60 64 66 64 62 63 59 56 56 58 60 66 68 68 67 66 64 68 71 74 75 77 80 89 92 89 90 84
35 41 45 79 68 83 86 63 49 47 42 43 42 46 51 50 53 56 56 55 54 58 57 56 60 65 63 60 62 57 59 54 59 60 61 61 61 66 67 66 58 58 58 61 66 76 76 69 68

GFSSGP_sfc_rhum_012.txt.gz
RH
45 25 28 22 24 27 29 23 31 39 48 45 42 51 61 61 62 86 80 77 84 89 85 84 92 90 91 90 90 89 88 86 84 84 84 82 80 78 79 79 78 75 72 71 72 73 75 77 79
31 21 24 22 28 31 26 27 43 39 37 39 40 45 60 86 80 90 87 77 80 85 85 85 93 92 92 92 90 88 86 85 86 85 83 81 78 79 79 79 78 74 70 70 71 74 78 82 85
33 24 18 23 28 28 31 30 28 32 31 34 43 43 46 66 74 77 77 75 81 88 86 89 94 93 92 93 93 92 91 92 88 83 81 78 78 77 76 76 74 70 68 66 66 68 72 78 81
23 19 17 20 23 18 28 29 28 36 37 37 41 50 42 46 56 78 80 86 94 97 96 97 95 95 94 94 93 93 93 92 87 86 79 77 76 75 76 75 73 69 67 65 65 67 70 75 79
29 21 23 25 22 31 26 24 24 32 45 43 40 50 52 69 74 82 87 87 91 90 96 96 97 96 94 93 91 93 94 93 91 89 84 77 76 76 76 76 72 70 67 66 65 66 68 71 75
22 18 21 26 23 25 22 26 25 41 43 41 45 47 49 60 78 78 84 94 95 96 97 95 95 96 95 94 93 93 92 92 91 90 85 78 78 79 77 76 73 70 66 65 64 65 67 69 71
23 22 22 22 24 29 19 19 27 42 48 50 40 50 46 51 64 73 84 94 94 96 97 97 95 93 93 92 92 92 93 91 91 90 87 85 85 85 80 77 73 69 65 63 62 67 70 70 72
20 20 21 19 25 25 16 13 18 24 33 40 38 54 48 40 50 67 78 84 94 94 95 96 96 96 96 95 92 91 88 88 88 88 85 85 83 84 84 82 79 74 69 67 69 71 73 73 75
17 21 20 16 20 21 13 13 13 25 35 43 41 44 35 40 43 54 64 72 78 76 86 92 92 93 96 94 89 89 86 85 85 85 85 90 90 86 85 85 80 78 76 76 77 78 77 76 78
18 20 16 12 13 14 12 9 10 29 51 56 52 40 38 35 42 47 52 61 66 73 76 75 82 87 89 65 92 93 86 90 90 89 90 92 94 92 79 86 83 83 79 81 83 85 86 85 90
18 14 10 10 10 9 9 9 11 29 51 49 49 46 40 37 38 41 45 50 56 60 64 70 76 77 78 73 89 92 94 95 93 91 93 93 88 92 94 94 95 95 89 95 91 92 92 92 92
12 11 8 11 9 8 8 9 10 19 24 43 40 38 41 42 40 38 40 45 57 58 59 63 74 72 72 80 89 87 86 90 92 88 80 82 85 79 85 88 86 87 84 93 93 92 80 79 79
11 10 8 11 12 11 8 8 9 16 28 41 40 40 42 40 40 36 33 39 55 59 66 76 69 68 68 71 76 75 74 80 82 78 74 78 79 73 75 74 74 74 74 73 72 69 64 66 66
11 9 9 9 14 13 12 15 13 14 32 48 44 46 44 42 39 37 41 38 53 62 81 84 78 74 61 70 73 74 74 72 79 73 70 69 78 74 74 74 74 77 81 81 77 74 75 76 76
11 11 12 14 16 17 14 18 17 12 29 50 49 48 46 43 40 39 38 36 49 71 73 76 75 78 72 67 68 67 61 68 70 66 70 69 71 72 76 78 75 77 79 78 80 78 81 80 73
14 18 19 18 17 17 14 18 16 13 20 38 46 44 43 43 40 37 42 50 60 75 69 77 70 82 76 68 67 58 54 64 66 71 73 70 71 70 71 68 67 74 75 77 77 80 78 79 81
23 22 25 22 17 18 20 22 19 15 13 19 27 37 39 41 49 54 48 74 77 70 72 82 90 85 74 71 75 66 64 66 64 70 70 66 64 63 64 62 63 71 72 76 76 74 82 83 74
24 24 47 21 21 23 20 26 24 21 18 28 32 49 60 64 68 70 75 76 82 86 93 92 90 85 81 81 81 74 65 64 65 63 61 56 57 57 62 64 70 72 71 73 74 73 73 77 82
18 27 25 25 20 19 25 32 33 35 44 48 53 60 56 54 54 63 70 78 81 89 88 82 70 71 73 68 80 72 67 59 62 60 59 60 61 64 66 72 73 76 72 73 71 75 78 76 81
30 28 31 26 21 18 27 31 34 34 40 46 52 57 56 53 53 54 61 66 71 76 84 75 65 61 59 71 74 75 65 56 56 57 58 67 65 59 53 68 70 76 73 71 72 79 83 84 82
38 35 36 32 27 24 27 32 37 36 37 39 44 52 55 58 57 56 60 72 76 78 66 53 52 53 56 54 50 53 55 59 64 69 68 59 58 60 63 66 72 74 75 76 78 83 84 90 90
44 34 32 32 35 31 28 47 37 44 43 44 50 57 56 56 57 53 56 64 65 63 58 52 48 48 50 53 55 57 65 68 74 80 71 62 63 63 62 67 72 77 82 84 88 82 92 90 92
36 36 37 37 41 44 37 46 41 40 45 49 52 55 60 58 55 58 59 58 58 58 58 55 51 50 51 53 56 65 64 74 79 72 66 62 65 63 60 66 68 74 80 85 87 94 93 95 95
30 40 44 45 49 64 45 50 53 51 44 46 48 51 55 60 62 61 60 56 57 59 56 55 54 56 55 58 65 66 68 70 70 66 62 63 69 73 71 68 82 84 88 89 91 92 90 92 85
36 54 75 76 78 73 47 56 60 46 42 48 53 54 52 56 62 60 57 58 59 58 61 58 56 62 67 66 67 68 68 67 57 58 62 76 72 74 79 82 85 87 87 87 87 88 88 87 82
41 48 77 70 76 67 44 62 53 44 44 44 41 50 50 50 55 58 59 58 59 63 65 60 55 56 62 64 63 63 63 64 62 60 71 77 79 81 84 84 79 78 81 86 88 91 93 90 95
44 49 42 67 80 82 61 51 43 41 39 36 40 41 48 54 57 57 60 61 64 65 69 63 59 63 60 61 63 64 62 61 63 72 78 79 78 71 75 77 77 77 80 84 87 92 91 93 93
31 35 60 71 66 64 54 61 61 49 47 44 56 56 57 58 57 59 61 64 69 72 70 64 61 63 62 61 64 59 62 66 72 75 75 75 74 70 70 68 72 77 80 84 89 92 90 92 95
44 48 50 52 71 77 83 65 55 53 51 60 61 60 61 62 60 63 61 62 64 60 57 62 65 67 68 66 65 66 64 65 74 73 72 72 70 70 66 71 72 68 69 69 76 82 87 78 73
39 47 52 74 62 86 85 62 49 54 52 55 54 54 54 56 61 60 63 60 59 58 57 58 59 63 69 69 70 69 67 64 64 72 73 72 68 66 65 63 57 58 59 62 65 70 70 71 71

GFSSGP_sfc_rhum_015.txt.gz
RH
45 25 27 21 25 28 30 23 41 44 60 55 54 60 81 90 80 88 85 87 89 91 88 87 92 90 90 90 90 90 87 84 84 84 83 80 78 78 78 76 74 70 68 68 70 73 75 78 81
28 24 23 24 30 28 27 38 51 50 48 42 43 51 68 89 85 92 93 88 86 89 89 90 94 93 92 91 91 90 85 84 85 84 81 78 78 76 75 74 74 70 66 64 64 66 69 73 77
34 25 19 23 31 33 29 36 48 47 44 38 46 44 58 91 87 87 87 84 86 92 92 93 95 95 93 93 92 91 91 90 87 83 78 78 75 73 72 73 72 67 64 62 62 65 68 72 76
25 21 18 22 24 22 28 33 37 43 41 40 51 55 47 68 81 84 83 84 94 98 97 96 96 95 94 94 94 94 94 90 89 85 78 76 73 71 72 73 70 66 63 61 60 62 67 71 73
29 22 23 23 21 28 29 33 40 42 46 44 44 53 63 86 81 88 92 88 93 97 97 96 97 96 94 92 92 94 93 91 91 86 82 76 73 71 72 72 70 67 65 62 63 65 67 69 73
24 23 23 24 23 31 25 31 45 48 46 49 56 54 62 88 91 93 88 86 81 93 93 94 97 96 95 94 94 95 94 93 92 88 84 78 77 77 73 72 70 67 65 64 66 68 69 71 74
27 24 26 24 38 34 29 24 49 46 49 48 44 58 66 94 93 93 90 84 85 88 96 99 99 96 95 94 94 92 91 91 90 90 87 84 84 82 78 75 70 67 66 67 68 71 74 74 76
23 22 27 21 32 42 28 17 36 45 50 40 40 58 85 67 88 94 98 98 99 99 98 99 98 97 96 96 92 92 90 89 90 89 87 83 81 82 82 82 78 73 69 70 72 74 76 77 81
21 24 26 20 32 24 17 17 20 37 44 47 50 46 61 70 84 93 98 98 98 93 97 97 98 97 96 95 90 89 87 87 88 87 84 88 89 88 87 86 82 79 75 76 78 81 83 83 83
25 29 22 14 18 26 20 27 31 46 56 58 50 46 56 71 77 81 86 91 94 93 94 95 95 96 96 76 93 94 89 93 92 91 91 92 93 93 82 87 85 85 84 83 84 86 87 89 94
21 18 12 10 13 12 13 14 24 53 64 54 49 52 56 65 63 65 68 68 70 72 76 82 85 91 90 78 96 97 97 96 94 92 93 94 92 96 96 97 95 95 88 95 93 92 96 90 94
20 11 12 10 13 9 10 11 30 29 44 48 40 43 48 52 55 56 62 64 68 72 70 74 82 83 86 88 90 90 90 93 94 92 89 92 90 86 91 95 86 82 81 82 85 85 77 72 74
16 11 12 12 10 9 8 10 13 20 45 42 38 38 42 43 46 47 50 53 59 67 66 76 83 81 78 83 89 89 87 90 90 90 86 85 80 80 82 78 81 80 82 83 80 79 76 78 77
12 13 12 14 13 11 11 17 17 29 55 46 40 39 38 38 39 42 46 51 60 59 73 83 81 75 72 78 84 84 84 83 86 85 80 78 81 79 78 80 76 76 81 81 82 82 82 80 78
11 12 13 15 17 17 16 20 18 28 51 50 44 42 43 39 40 38 42 47 58 64 70 88 86 80 79 77 77 81 76 79 84 76 74 74 78 80 78 72 69 74 78 75 77 76 75 73 70
17 19 19 16 18 20 15 16 20 38 57 57 52 52 57 55 53 52 48 45 61 77 91 92 84 83 85 87 91 83 71 74 76 80 81 75 72 68 68 66 68 75 76 77 75 80 70 74 77
24 23 26 22 19 20 19 22 21 24 56 60 55 59 55 74 81 78 74 57 75 78 90 96 93 94 89 91 91 85 77 71 74 73 70 66 64 65 68 70 77 78 76 78 77 73 76 79 77
23 26 47 22 23 22 24 29 34 32 38 34 80 77 76 82 90 92 94 92 87 89 92 92 92 91 87 90 79 76 64 69 70 68 65 63 67 66 70 70 79 77 74 75 74 73 75 78 82
24 29 29 28 23 31 40 44 48 59 70 76 74 73 77 78 80 81 84 90 86 88 87 86 88 86 79 75 80 78 90 84 77 67 64 66 60 63 69 72 76 76 72 73 74 79 82 79 84
28 30 35 30 24 32 41 46 49 49 63 68 66 70 72 77 72 70 76 81 89 87 82 76 76 70 69 81 89 91 83 68 66 64 65 63 65 63 61 72 75 76 78 79 81 86 89 90 91
42 40 38 30 29 33 36 44 46 45 56 61 66 64 63 72 75 72 76 79 80 70 63 56 57 57 66 73 70 59 58 64 72 74 64 64 66 68 71 75 80 84 86 89 94 93 94 97 93
43 38 35 32 33 47 35 60 51 53 61 65 69 76 74 69 64 64 65 64 63 65 59 54 52 54 54 56 59 60 65 68 82 80 69 71 73 74 73 75 80 85 90 87 87 88 95 96 98
40 39 37 39 43 44 42 56 56 50 65 68 72 68 64 61 60 62 62 60 60 61 61 60 58 59 58 62 67 74 70 81 78 72 68 74 73 69 75 74 74 79 87 87 88 90 94 95 96
35 42 48 56 53 67 53 55 57 57 54 60 60 64 60 62 69 65 63 61 64 67 67 69 69 71 70 68 69 72 72 70 68 64 63 70 75 84 78 75 82 85 89 88 91 90 87 90 92
41 52 73 76 78 77 52 60 59 50 48 54 58 59 65 68 71 68 59 59 68 74 72 68 66 65 65 66 66 66 66 65 62 60 66 78 86 91 85 82 81 82 86 87 89 89 90 91 94
46 50 78 63 76 67 50 69 59 52 51 50 52 56 63 71 62 60 64 70 73 71 67 64 59 61 60 61 61 63 64 69 68 66 75 84 86 84 86 82 77 76 79 84 89 92 92 91 94
48 53 48 74 82 83 68 57 45 48 54 53 54 56 62 70 70 68 70 72 72 72 71 69 66 63 62 62 65 65 69 72 74 73 82 85 83 76 83 81 76 76 79 84 88 94 93 92 94
37 39 59 72 63 64 62 67 67 54 52 54 63 67 70 68 68 69 72 74 72 69 69 68 66 64 64 67 70 68 69 70 75 80 82 82 80 71 70 72 73 73 74 80 84 85 88 93 94
46 49 55 60 73 74 82 71 58 54 58 66 72 70 69 71 68 67 64 63 63 60 58 63 64 67 73 76 76 78 79 74 74 81 81 77 74 75 76 74 71 70 63 66 69 72 80 79 74
45 50 50 72 65 88 85 64 56 59 63 62 63 62 67 65 67 61 60 57 54 57 58 56 56 58 62 66 70 72 75 73 76 76 78 76 74 76 70 73 73 65 62 64 66 70 72 73 73

GFSSGP_sfc_rhum_018.txt.gz
RH
69 53 35 26 22 27 28 23 37 48 68 66 62 66 80 89 69 86 89 88 88 96 94 90 91 90 90 89 90 90 85 84 83 82 79 78 77 74 73 72 74 68 64 64 65 66 67 70 72
31 27 26 28 32 29 28 32 54 57 61 60 56 65 73 86 85 96 93 88 88 92 95 92 92 92 91 91 91 89 84 84 83 80 78 76 73 72 72 72 75 67 62 60 60 62 64 67 69
35 25 23 29 36 29 28 46 54 50 48 42 48 49 62 84 86 88 90 86 87 96 96 96 95 93 92 93 92 90 89 88 85 80 77 73 70 68 71 72 74 64 59 58 58 60 62 66 70
28 25 21 25 30 24 24 44 48 48 45 46 52 48 57 76 85 91 89 90 95 99 98 97 96 95 94 92 91 93 93 91 88 84 76 71 68 67 69 71 69 62 60 61 62 64 65 68 75
29 25 26 25 26 24 24 41 44 48 48 51 46 58 76 92 89 90 93 92 92 98 98 97 97 96 94 92 93 94 92 92 89 85 81 74 68 68 71 71 68 66 64 65 66 68 69 72 78
26 25 27 29 25 35 33 40 46 49 48 52 60 66 82 92 92 89 88 89 84 91 94 96 95 94 95 94 96 94 92 92 90 87 83 75 75 76 72 70 70 68 68 69 70 72 73 76 79
28 24 28 26 39 41 29 42 47 44 51 54 50 75 92 96 90 87 83 82 87 91 87 90 97 96 96 96 95 94 93 92 90 88 86 84 83 81 78 76 71 69 72 74 74 76 79 78 81
27 25 46 27 38 46 37 26 42 49 54 42 49 93 89 89 89 86 84 86 87 86 88 92 99 98 98 97 94 92 90 90 89 88 86 84 82 80 79 79 77 75 74 75 76 81 83 83 85
25 28 29 28 45 44 32 25 31 43 46 50 51 67 80 94 90 90 95 95 94 93 96 99 99 98 96 95 93 90 88 88 88 87 84 87 88 87 86 84 81 80 82 81 82 85 86 88 87
27 30 24 18 27 40 31 26 38 48 57 54 64 80 92 97 95 89 90 92 93 99 98 98 97 96 96 83 95 95 91 95 94 92 92 92 92 91 84 86 85 85 86 85 84 84 86 84 92
28 24 17 13 22 28 24 29 40 53 64 56 72 87 94 97 97 98 97 95 94 93 94 96 96 96 95 89 97 98 98 97 96 93 93 93 93 96 96 97 96 94 79 87 88 83 84 76 82
23 18 14 10 13 17 17 19 46 44 42 49 64 74 84 89 83 83 82 80 81 84 82 88 91 93 93 91 96 95 97 97 97 96 93 96 96 93 96 92 83 82 84 80 80 81 77 78 78
20 14 13 12 12 12 11 16 38 31 55 46 59 65 72 72 68 61 57 61 74 77 79 84 87 87 85 87 93 93 94 95 93 94 90 91 86 87 85 84 83 83 82 83 81 82 79 76 73
17 12 13 15 12 11 10 14 16 31 56 50 57 62 65 62 59 62 65 69 73 73 80 86 89 84 80 85 84 92 92 90 92 93 86 83 84 86 83 79 75 78 81 81 83 81 78 75 73
12 12 13 14 18 18 17 20 20 52 52 50 49 53 53 51 54 54 57 63 70 75 87 95 90 89 90 91 90 92 95 85 86 81 82 81 82 80 73 72 72 79 80 77 76 76 71 70 68
16 19 18 16 19 21 14 16 20 68 55 60 55 57 59 63 61 59 54 61 79 92 96 94 86 91 91 91 94 95 86 81 89 84 86 74 70 68 71 73 80 81 78 70 76 80 69 73 77
23 23 26 23 21 20 18 31 38 39 65 68 67 64 72 83 92 93 92 74 94 95 96 97 93 92 94 97 98 91 78 74 72 75 78 76 73 70 74 72 75 71 72 77 72 74 76 79 74
22 25 47 25 34 42 41 58 62 67 50 77 87 88 92 98 91 91 96 97 97 96 94 96 94 96 97 92 86 76 67 76 83 86 70 65 66 65 69 70 72 74 73 78 78 76 78 79 83
25 26 28 31 27 45 62 67 67 82 84 86 92 93 96 95 82 91 96 94 94 95 93 93 94 94 94 80 84 82 85 89 80 69 64 60 60 67 72 78 78 80 81 84 85 87 88 84 91
31 31 36 34 34 49 59 61 67 67 80 82 89 94 94 90 88 87 92 92 90 90 93 93 92 83 71 81 88 90 86 76 71 66 70 70 71 70 69 79 84 85 82 86 91 90 92 92 94
42 35 41 36 40 45 48 54 62 61 72 70 72 77 83 87 90 90 90 88 80 78 75 68 68 68 72 72 71 68 70 76 79 72 70 74 75 74 77 78 79 81 83 84 94 93 94 96 94
42 40 35 36 45 50 44 71 63 70 76 76 77 80 85 83 74 70 65 66 64 68 64 61 59 60 61 64 68 69 77 79 86 77 76 78 75 74 71 70 79 83 86 85 88 87 95 94 97
42 40 38 42 46 47 47 65 67 69 83 81 82 81 83 78 69 64 57 62 70 68 70 71 70 69 72 74 74 79 84 82 78 74 76 76 76 70 69 75 81 84 87 90 88 88 89 93 94
38 46 50 59 56 66 60 57 64 71 68 74 72 74 72 76 78 72 67 65 69 67 67 72 69 68 67 66 68 69 68 68 68 68 71 77 80 86 85 81 84 88 89 88 90 89 87 89 91
47 53 75 76 79 77 56 61 54 51 58 65 68 72 73 79 79 76 71 67 71 74 75 69 66 64 64 64 64 64 64 66 65 66 72 76 86 92 92 85 77 80 82 84 85 86 87 87 92
48 53 77 63 83 73 56 68 58 52 52 56 62 68 72 77 73 71 71 79 75 68 66 65 64 63 63 64 64 66 67 74 75 73 76 83 87 91 87 83 78 75 79 83 84 90 89 87 92
51 56 52 74 82 84 73 60 57 63 62 61 63 67 76 73 76 77 75 75 75 73 73 70 65 65 64 66 72 74 75 76 81 81 84 90 90 80 86 84 75 79 79 78 85 92 91 90 90
43 45 57 72 63 59 68 72 73 66 66 64 70 71 77 76 77 78 77 74 72 71 70 68 65 69 72 77 80 78 80 77 78 82 86 87 87 81 76 73 80 78 78 82 84 85 83 85 91
49 52 61 62 73 73 84 72 59 57 59 62 72 74 74 74 76 76 73 68 62 58 56 60 58 66 67 66 71 70 71 72 78 81 83 83 81 78 77 80 80 78 74 73 74 74 73 82 80
49 52 50 68 59 87 83 62 50 59 58 68 74 71 72 71 72 70 67 62 54 54 54 51 55 50 53 58 60 60 68 75 83 80 80 83 83 82 84 74 75 78 80 72 71 71 73 75 73

GFSSGP_sfc_rhum_021.txt.gz
RH
54 30 23 19 16 19 20 17 32 53 66 60 54 59 68 73 75 82 85 76 79 80 74 67 89 89 87 88 90 89 85 82 81 78 77 76 73 72 72 74 73 67 61 60 60 60 60 60 63
20 22 20 21 18 18 19 32 54 56 60 63 58 59 62 67 80 93 85 81 83 82 72 65 90 90 89 90 90 88 83 82 80 77 76 73 71 71 70 70 72 67 58 56 55 55 60 65 69
23 19 17 19 24 18 22 46 51 51 46 41 54 61 80 74 84 89 82 79 78 78 72 69 90 92 91 92 90 89 88 87 83 80 73 69 67 68 69 71 70 66 59 59 56 58 64 70 73
20 18 15 18 18 18 22 44 44 52 60 56 51 49 72 74 72 78 80 76 76 79 72 87 94 94 93 92 92 92 91 90 86 82 74 67 65 65 67 73 71 65 63 62 61 64 68 74 79
19 17 18 18 17 16 19 38 40 43 45 48 49 46 74 86 80 84 88 77 80 78 74 73 96 94 92 92 92 93 92 90 88 83 79 72 65 66 69 74 73 69 67 66 67 70 72 77 80
20 17 19 18 27 30 34 37 43 39 39 44 50 65 86 87 87 86 81 73 71 75 77 77 93 95 94 94 94 92 92 90 89 86 82 74 73 75 71 72 73 71 71 72 72 74 76 79 80
20 18 18 19 35 33 33 42 44 40 45 50 50 76 91 93 83 79 75 72 78 75 78 81 78 85 96 96 95 92 92 90 89 87 85 83 81 81 78 76 73 72 76 76 76 78 82 82 82
19 18 20 23 37 38 24 32 39 41 49 41 50 72 88 90 85 78 76 76 76 81 76 80 82 76 82 83 95 93 90 89 88 87 85 83 80 80 79 77 78 77 76 76 79 83 84 84 84
18 19 19 25 36 39 28 27 32 40 42 44 46 66 71 84 82 85 89 89 88 87 88 88 88 85 83 79 80 86 88 88 87 83 82 80 62 62 64 78 82 81 83 82 81 83 85 81 74
19 22 18 19 34 50 43 24 32 43 45 44 73 86 83 88 85 87 91 88 85 89 91 88 89 85 80 68 73 71 68 64 67 66 70 65 70 66 65 75 86 84 80 80 82 82 76 61 44
21 21 17 13 29 35 31 28 37 44 48 41 60 89 88 87 82 79 78 76 79 80 85 82 84 80 74 68 69 66 66 66 68 73 72 73 71 74 70 66 58 60 65 51 53 50 47 56 51
18 17 12 9 18 26 25 24 41 37 34 38 58 81 85 86 84 78 78 79 78 78 73 74 75 77 79 67 66 67 65 68 69 72 77 75 69 71 70 54 56 59 53 56 55 51 58 54 50
19 15 11 11 12 18 18 24 37 33 41 48 68 80 82 76 74 72 67 65 65 64 65 69 73 74 74 74 71 73 75 72 80 74 74 68 60 66 59 61 53 52 49 51 51 49 47 47 44
17 11 10 12 10 11 15 14 20 26 44 62 71 72 70 65 63 58 53 52 58 57 63 72 71 70 68 73 77 77 88 86 84 82 78 74 62 66 59 54 50 51 50 50 49 48 43 42 42
11 11 12 13 11 13 13 14 18 41 42 58 65 62 61 56 52 50 49 53 54 54 67 78 78 73 74 76 86 92 88 82 80 87 83 77 65 63 58 53 53 53 52 52 48 46 44 39 37
13 17 15 13 14 15 10 14 32 40 45 51 54 52 51 51 50 52 45 48 56 68 75 81 78 78 85 88 91 93 93 92 88 87 80 69 62 59 59 60 58 58 52 48 57 45 40 40 40
21 16 18 16 25 15 17 28 44 45 49 54 50 51 55 65 72 80 69 62 73 74 79 84 84 87 90 96 98 92 77 64 63 68 63 66 58 61 62 67 62 54 50 51 47 46 48 43 41
20 19 18 18 24 32 39 53 55 54 52 60 60 65 70 73 79 85 88 87 84 79 82 87 91 96 98 96 86 69 73 66 67 78 66 53 51 58 53 54 57 51 49 50 48 51 46 49 52
18 19 20 24 30 48 61 62 62 62 60 65 67 68 74 77 87 85 86 85 85 84 83 88 96 94 91 74 68 58 76 82 62 49 53 52 51 53 55 51 52 52 51 58 60 53 55 44 54
25 27 31 33 37 45 52 62 62 62 67 68 68 72 77 85 86 85 80 80 79 83 86 81 77 78 60 52 59 63 62 54 48 49 55 53 55 52 51 54 53 55 50 60 62 61 50 50 58
34 31 31 34 38 39 43 47 62 63 66 70 72 75 80 84 85 83 79 78 76 79 78 68 57 56 55 59 54 52 56 55 50 47 47 52 52 48 53 57 56 57 55 56 62 61 60 48 50
37 30 35 39 34 34 34 28 56 67 72 74 74 77 78 81 76 67 58 59 62 61 59 54 52 50 52 52 53 59 52 54 54 50 49 46 54 53 51 55 60 62 58 60 55 50 54 51 46
36 32 32 31 33 34 36 34 49 64 72 72 69 71 71 68 61 51 49 49 50 53 54 56 56 54 56 56 58 53 55 52 50 51 55 55 55 56 56 60 62 60 54 58 57 57 54 50 47
40 38 42 45 41 42 43 36 42 66 61 63 61 63 62 58 52 50 52 52 52 56 60 59 52 50 49 49 51 52 52 51 47 51 52 52 53 55 63 62 60 59 56 58 56 59 57 53 52
36 40 52 56 58 51 47 47 36 42 50 54 57 56 56 54 54 53 51 49 56 59 57 53 47 49 50 51 49 50 50 51 52 52 52 56 54 56 59 67 64 52 57 58 58 57 56 54 51
40 40 62 54 63 54 44 50 36 43 40 49 49 50 54 55 57 54 54 57 56 56 52 50 46 47 48 51 52 54 56 53 53 57 56 56 60 62 65 67 59 56 58 57 60 59 59 62 60
40 41 43 61 68 63 46 43 39 51 46 53 55 55 55 55 56 56 59 57 54 53 56 54 46 47 52 57 58 59 58 57 54 54 59 59 61 56 64 67 60 59 58 57 58 58 61 61 59
35 39 46 51 58 47 41 50 40 56 52 54 57 57 56 56 58 59 56 59 55 53 58 56 51 56 64 56 57 51 50 49 50 53 50 52 54 56 62 64 60 59 60 62 58 58 56 58 54
41 44 52 47 53 48 52 34 45 45 48 54 53 53 57 59 59 58 56 53 50 51 52 52 57 54 45 41 45 42 43 48 52 51 50 49 55 52 59 61 62 61 66 65 64 57 53 54 55
37 40 44 53 49 64 59 38 36 47 47 50 51 55 57 58 58 56 53 50 48 49 51 50 50 40 39 38 38 40 45 46 48 49 50 54 56 60 62 62 61 61 72 66 61 53 53 55 55

GFSSGP_sfc_rhum_024.txt.gz
RH
46 16 9 12 15 13 15 13 29 45 53 44 40 48 50 53 59 74 62 53 56 61 58 58 89 87 87 87 88 88 82 80 78 77 75 73 72 71 71 73 72 63 58 56 55 56 60 65 67
9 10 12 11 14 14 14 16 23 43 43 41 45 42 45 51 58 71 65 61 64 64 54 50 90 89 89 90 89 87 81 79 76 74 71 71 71 70 68 68 70 66 57 54 56 60 64 68 70
11 13 11 10 10 13 14 29 36 34 30 31 42 42 54 52 62 68 72 69 72 61 52 55 89 90 90 89 89 88 86 84 82 77 68 68 68 66 66 70 71 66 59 57 59 60 64 69 73
9 11 10 11 12 11 16 30 32 32 34 30 31 62 55 56 59 51 70 67 67 67 54 82 92 91 88 89 91 91 89 87 84 78 71 65 64 64 66 73 73 65 62 62 64 67 68 72 76
10 10 11 12 12 11 12 26 30 29 29 27 28 39 56 64 49 50 70 81 88 81 62 62 93 87 86 90 90 91 90 89 85 80 75 70 64 65 69 74 75 69 67 67 68 70 73 75 78
10 10 11 12 17 19 13 24 28 26 24 26 34 37 70 64 64 74 70 79 87 62 61 63 88 90 92 94 93 92 90 89 87 83 78 70 70 72 70 71 72 71 71 72 72 75 78 79 79
12 9 11 15 24 26 25 26 27 28 28 33 33 47 79 75 72 68 63 71 64 57 60 66 60 74 96 95 92 92 90 89 87 85 83 80 81 80 76 72 71 71 73 74 76 80 81 80 80
12 10 12 18 24 34 31 30 30 42 35 36 35 46 90 68 70 65 64 63 62 60 65 69 66 60 61 67 92 91 89 88 86 85 82 81 79 78 76 77 78 76 76 77 79 81 80 74 76
12 11 12 22 24 26 22 28 29 30 36 39 41 45 50 67 70 68 73 72 72 71 74 70 55 58 56 52 69 83 87 86 85 78 80 74 42 46 48 80 83 81 78 78 78 78 74 72 67
14 12 12 16 20 24 23 24 24 32 36 39 55 56 68 77 70 70 74 81 77 81 79 77 70 67 62 49 56 51 45 43 47 47 52 44 54 50 48 66 80 73 70 75 73 69 65 51 28
14 13 11 12 19 18 17 20 17 24 36 31 41 76 80 78 73 73 71 73 75 73 77 80 70 67 54 48 43 39 40 47 51 58 56 57 54 55 48 41 37 41 54 34 40 37 32 41 36
16 12 11 14 20 19 18 17 23 21 24 26 33 57 70 73 74 58 63 56 60 62 52 53 55 60 57 41 39 45 46 51 57 59 64 62 54 55 52 36 39 43 37 41 37 33 42 40 37
15 12 10 9 18 24 20 20 22 25 27 29 44 53 56 56 45 41 40 40 42 44 46 48 51 54 53 53 52 56 60 61 64 62 66 59 50 54 44 46 39 39 36 35 36 35 34 34 32
13 12 9 8 12 20 20 21 20 24 30 40 49 49 48 44 40 38 39 38 39 37 46 50 47 51 50 54 61 60 61 61 67 76 82 82 70 57 46 44 39 37 36 36 36 38 33 32 33
10 10 9 9 11 15 15 16 18 31 34 40 43 44 43 37 37 34 33 33 34 35 47 56 56 53 58 62 65 70 74 80 71 79 80 82 76 62 49 43 42 43 42 41 37 37 33 32 29
10 10 10 12 10 11 13 14 24 36 34 37 40 43 44 41 37 34 33 30 30 37 53 65 65 65 69 75 76 88 92 84 76 77 77 68 63 68 52 50 50 48 42 38 36 36 34 33 33
12 10 11 13 14 11 10 13 25 36 32 35 40 39 39 43 44 44 36 34 37 43 59 68 68 72 84 95 93 89 78 60 61 69 66 70 66 57 52 47 47 44 38 40 37 37 40 40 37
12 12 9 11 18 11 14 24 26 38 32 34 34 36 38 41 47 57 49 43 44 52 62 70 77 84 92 93 78 64 55 59 50 53 47 43 43 47 42 43 46 39 38 41 44 48 42 40 37
10 12 11 15 25 25 26 26 30 38 37 39 36 39 40 42 54 59 59 57 55 61 68 76 80 79 75 72 62 52 52 53 45 39 44 43 42 42 42 37 41 44 42 49 47 41 40 36 38
13 13 18 23 26 25 26 32 33 35 40 39 39 39 41 53 58 64 58 63 70 73 73 72 67 62 53 46 41 41 44 41 38 39 44 40 41 38 38 43 40 44 38 45 48 49 44 36 37
20 18 23 19 26 26 25 30 35 41 42 45 46 42 48 55 59 59 60 65 69 70 67 57 54 52 41 42 43 44 45 42 38 38 36 39 40 36 39 42 41 40 39 36 48 47 47 42 33
21 22 21 25 22 19 23 18 34 41 46 46 50 51 64 60 55 53 55 58 61 62 58 45 42 40 43 42 39 41 36 39 41 39 37 34 40 37 34 38 44 46 42 46 43 36 45 42 37
26 25 22 22 20 23 23 19 32 42 46 49 54 54 55 49 45 44 45 48 50 57 48 44 42 40 41 42 43 41 42 39 36 35 37 38 37 39 38 40 46 50 47 46 47 46 44 38 40
25 26 25 24 24 30 21 24 16 33 33 46 50 51 51 44 38 36 38 39 41 43 46 45 40 40 40 39 40 41 39 32 28 32 32 29 31 33 37 41 49 50 49 47 46 49 47 46 42
26 25 32 42 39 34 31 28 17 22 32 38 46 45 45 41 38 38 38 35 39 44 46 43 39 40 39 37 33 34 35 36 32 33 32 36 30 30 35 39 42 43 48 49 49 48 51 49 42
25 24 32 30 34 28 32 29 20 26 27 33 36 37 39 38 38 36 35 37 40 44 43 40 38 35 32 32 34 40 35 30 30 31 28 29 31 31 34 37 40 47 48 50 47 48 52 54 51
29 28 30 41 55 50 23 26 25 31 29 35 36 36 37 36 38 36 37 40 42 42 44 42 32 30 35 52 60 47 40 30 28 30 33 29 32 28 33 38 43 46 51 50 49 46 53 54 54
27 26 35 36 50 34 21 25 18 37 34 36 38 37 35 33 35 38 39 44 41 41 42 38 36 38 48 49 41 33 28 28 30 32 31 32 33 34 36 38 40 43 45 47 49 48 50 52 45
31 30 30 28 37 30 28 15 24 27 30 35 37 35 34 35 37 40 40 42 41 39 36 43 42 48 46 37 32 31 28 28 30 30 31 33 38 37 38 41 44 43 43 46 50 55 54 48 42
27 26 24 32 33 44 44 22 23 31 30 29 33 34 33 35 37 39 41 41 38 37 38 44 42 45 42 30 28 26 27 26 28 30 33 37 40 39 40 44 44 44 47 60 71 53 41 43 45

GFSSGP_sfc_rhum_027.txt.gz
RH
40 21 9 8 13 13 13 11 14 47 38 37 34 40 50 46 58 70 56 55 48 48 44 61 90 88 88 86 86 87 81 80 78 76 73 73 71 70 69 71 69 62 56 56 60 62 64 65 70
13 6 6 10 13 13 10 8 13 40 33 35 33 34 35 51 52 67 64 55 50 49 51 57 91 89 90 89 88 85 79 77 74 72 71 70 69 67 65 66 70 65 57 59 58 60 63 68 70
10 6 8 10 12 12 13 21 30 33 30 28 34 28 39 45 45 56 54 57 60 57 53 60 90 91 89 88 88 86 84 82 79 74 68 66 65 64 65 69 72 66 59 59 58 59 62 66 70
7 6 9 13 12 10 12 29 34 25 26 24 31 43 38 44 45 48 52 57 61 60 69 87 92 89 87 87 90 88 88 85 80 75 69 64 63 66 69 74 72 64 63 63 64 67 68 72 75
7 8 11 11 11 10 8 26 26 26 30 21 21 34 35 35 37 45 53 58 68 82 80 73 92 86 84 89 89 88 89 86 82 77 73 68 66 69 72 75 73 69 67 67 68 71 74 75 76
7 8 11 11 10 11 9 17 19 30 27 24 25 32 46 37 40 38 46 66 81 84 87 65 84 84 89 94 93 91 90 88 85 80 74 67 70 73 72 72 72 71 72 72 73 76 77 76 78
9 7 9 9 14 18 13 25 25 24 26 29 22 35 50 51 42 51 66 84 86 88 88 71 70 82 94 93 92 91 90 88 86 84 81 79 81 80 75 72 72 72 73 74 76 77 75 74 76
7 8 8 9 19 36 18 22 25 24 37 26 34 55 40 45 48 57 73 90 82 96 75 71 69 65 67 68 92 90 88 87 86 82 80 81 78 76 74 79 77 76 76 76 76 77 73 69 73
8 11 8 10 28 25 21 23 23 21 24 31 35 36 36 48 55 59 71 93 87 83 70 74 58 54 58 63 74 81 87 87 83 75 76 74 43 49 53 78 79 74 71 74 73 68 67 70 64
9 9 8 10 22 44 19 20 25 25 48 42 39 40 48 55 55 61 63 68 70 75 71 62 70 65 56 42 48 44 46 47 47 45 48 43 47 50 47 61 76 67 65 70 66 62 63 63 30
9 12 10 10 17 21 17 18 19 27 35 39 38 58 63 59 56 56 60 63 67 70 70 63 64 56 46 44 38 34 36 42 47 51 53 55 48 48 45 40 39 41 54 38 42 38 31 38 36
11 10 10 9 16 14 14 16 18 44 73 47 32 54 57 60 57 54 55 60 65 66 56 47 47 50 45 36 31 35 39 45 56 62 60 58 49 56 47 36 34 40 34 40 36 33 39 38 35
12 10 10 12 14 13 17 16 18 27 18 22 39 49 49 46 38 37 36 38 45 39 40 42 47 47 42 42 41 46 51 66 56 57 62 57 58 63 48 48 39 40 36 36 38 36 36 35 34
10 10 8 9 14 19 17 16 17 22 19 28 35 34 33 29 27 28 30 32 35 35 39 42 40 43 43 48 56 60 54 55 55 54 59 73 71 72 66 70 64 49 40 40 39 40 39 39 36
10 11 8 9 14 19 18 13 16 22 21 30 29 31 27 25 24 27 28 30 30 32 38 44 48 47 51 59 54 55 58 64 65 63 73 73 70 68 71 68 68 53 48 54 49 49 40 34 30
11 12 14 10 12 14 18 15 19 20 20 24 25 27 27 29 25 24 23 25 26 33 41 49 45 56 61 70 79 88 88 72 64 67 68 67 66 77 73 67 57 54 46 38 38 36 37 37 36
13 13 13 12 9 11 14 14 20 21 18 24 28 30 30 31 28 28 25 23 25 35 50 57 59 68 77 92 93 89 77 64 61 65 72 65 58 58 52 48 47 46 39 40 41 42 44 42 40
15 12 10 11 10 12 10 14 15 19 18 24 26 28 30 31 32 34 29 27 27 36 52 59 69 71 78 90 81 69 63 57 56 54 45 44 43 45 41 43 46 44 41 42 45 50 42 39 34
11 12 9 11 14 10 10 13 15 19 18 22 23 27 30 32 35 40 37 37 38 53 64 70 78 69 67 57 54 52 53 47 44 38 41 42 40 40 41 38 41 43 42 44 47 45 44 36 34
10 11 12 12 12 16 12 13 17 22 21 21 22 26 28 31 41 42 44 45 46 65 68 64 63 65 62 61 56 44 44 40 36 37 42 39 40 38 36 45 41 41 38 40 39 44 43 38 36
12 13 15 14 15 14 15 17 24 23 25 27 24 23 25 31 41 45 47 60 62 69 75 62 61 66 54 41 37 38 40 41 37 38 37 39 39 35 36 38 39 40 38 36 41 42 46 42 39
17 16 15 16 19 18 15 17 20 26 28 31 33 31 32 36 38 42 46 66 71 71 70 65 64 42 38 39 36 41 35 40 39 38 37 34 39 36 31 32 38 42 41 44 42 35 44 46 43
27 17 17 17 17 22 18 15 45 24 26 28 30 32 38 38 39 42 42 49 58 68 64 45 40 36 39 36 38 39 39 40 35 34 35 32 33 31 30 34 38 44 42 44 46 47 48 45 47
18 20 20 19 16 26 14 16 17 24 21 26 31 36 39 38 36 35 38 40 45 49 44 43 38 36 38 38 40 42 40 32 29 32 31 27 28 28 28 28 36 38 39 43 43 45 51 55 52
17 20 32 36 32 33 18 19 15 10 19 22 35 37 39 35 32 34 36 36 42 44 44 40 36 37 38 39 35 34 35 34 45 34 28 29 26 26 29 33 35 34 38 40 42 53 60 51 50
20 18 33 33 31 23 20 19 14 17 18 21 30 34 37 34 31 32 32 33 36 40 40 36 36 37 35 32 31 34 32 34 28 27 27 29 29 28 31 33 34 36 39 40 53 54 49 58 60
20 24 20 29 48 41 16 11 18 21 21 24 30 33 36 32 31 31 30 32 35 38 41 40 37 33 30 35 38 37 46 35 27 28 32 28 29 25 30 35 36 35 37 41 48 50 53 52 56
23 18 27 26 38 35 15 14 14 25 23 25 30 32 33 31 30 30 30 35 36 37 41 42 35 30 35 34 40 36 41 29 27 31 31 29 31 32 35 36 36 38 39 39 42 45 48 53 58
26 24 22 22 30 37 27 16 14 15 20 25 27 29 31 31 30 30 31 34 36 37 40 37 33 34 35 33 34 45 35 28 29 30 30 30 33 34 34 34 36 36 36 37 46 59 60 58 58
21 22 22 36 29 33 42 24 15 17 17 21 24 26 28 28 27 29 32 34 36 38 37 38 37 34 33 32 45 38 28 25 28 29 28 31 34 36 35 34 35 35 35 41 58 53 61 62 54

GFSSGP_sfc_rhum_030.txt.gz
RH
40 22 18 14 13 16 17 12 24 40 35 32 35 37 44 55 66 88 79 72 53 56 68 74 89 88 87 88 88 86 84 78 74 77 79 77 76 74 74 72 69 67 61 60 60 62 65 68 70
19 16 13 9 16 18 14 25 30 34 36 32 31 32 41 61 56 68 65 57 48 54 57 70 91 89 89 89 87 83 80 76 77 77 74 74 70 67 69 74 70 68 59 56 57 58 60 62 64
22 10 7 10 15 17 14 28 39 33 28 30 32 31 34 49 52 59 59 64 50 52 54 78 91 89 89 89 87 85 83 80 78 75 69 66 66 68 70 74 72 69 62 60 60 60 62 66 75
11 8 7 16 16 11 13 53 61 35 28 24 29 38 31 37 45 48 58 66 60 59 70 91 88 87 87 89 89 87 84 80 78 75 72 66 69 71 73 76 74 68 66 66 66 68 71 80 80
11 8 11 13 12 10 9 25 24 36 47 45 64 34 36 39 45 49 60 63 75 92 86 85 89 84 88 88 88 87 85 81 79 76 75 74 71 73 76 80 78 73 70 70 72 73 75 81 81
10 9 14 14 11 9 9 18 26 42 46 53 57 33 37 36 45 58 68 76 84 92 90 89 88 89 90 91 90 90 87 83 80 78 77 75 76 79 79 79 79 78 76 75 75 76 76 77 77
12 9 11 10 12 16 15 27 44 62 65 37 33 33 48 40 38 52 82 83 92 92 94 95 90 90 94 92 92 91 88 86 84 83 82 82 82 80 80 80 79 78 78 77 76 77 73 74 74
8 10 12 10 8 18 20 26 43 50 51 38 26 36 46 40 49 82 85 91 93 96 96 97 85 86 83 82 90 88 88 86 82 81 80 80 78 78 80 81 80 77 74 74 74 74 69 72 69
6 12 14 10 8 35 51 72 39 28 37 35 29 36 56 49 60 92 93 96 97 95 95 96 87 83 79 79 81 86 87 84 80 78 80 80 65 69 71 80 79 74 74 76 73 68 64 75 68
10 13 11 14 25 48 58 70 64 24 29 26 35 41 50 56 65 83 92 95 93 97 96 92 81 82 74 50 71 72 69 69 66 64 72 74 70 67 56 73 77 70 69 72 70 64 67 68 49
10 12 9 18 31 33 44 55 28 42 46 49 76 60 57 58 60 69 85 88 93 83 72 71 75 73 57 61 58 59 63 66 71 73 76 77 70 71 77 87 69 76 74 66 65 59 55 52 56
11 8 9 11 24 26 35 22 25 26 37 60 65 66 55 50 55 64 71 74 73 71 66 66 65 70 66 56 56 57 58 69 86 80 70 76 84 79 73 71 62 60 59 59 61 60 58 58 50
10 10 9 10 17 16 16 33 37 31 30 52 58 56 48 44 47 54 61 61 60 60 59 57 62 64 61 64 69 71 83 80 85 80 77 82 78 84 79 76 72 67 63 59 63 62 58 56 51
9 11 10 9 16 15 20 38 34 46 32 42 48 41 38 34 32 35 44 48 45 44 53 58 55 62 59 72 76 74 75 75 76 78 81 82 83 86 82 78 75 72 62 60 61 62 59 58 56
11 13 11 10 14 19 23 24 20 25 27 35 33 32 27 26 26 30 36 41 41 42 47 57 60 61 70 69 68 71 74 76 78 81 84 84 81 79 78 79 76 69 64 61 61 61 58 59 49
14 13 17 12 14 18 33 43 17 22 26 27 27 27 26 25 26 29 33 34 37 41 49 55 49 69 69 73 73 79 90 84 78 83 80 80 80 80 78 74 73 70 73 64 63 65 65 64 63
15 19 20 15 12 18 26 33 14 17 22 26 28 27 28 28 26 28 31 31 35 42 55 63 66 75 79 88 93 88 84 71 74 77 79 77 70 68 71 71 73 69 64 66 66 70 70 66 58
21 19 15 14 10 11 18 16 14 15 20 26 27 28 32 31 29 30 28 30 34 52 62 66 75 83 82 90 80 75 75 72 72 70 65 64 61 60 63 68 65 64 66 66 70 72 67 64 60
16 14 14 11 9 12 16 13 12 14 17 26 27 31 34 32 32 34 36 38 44 62 70 72 80 79 77 75 73 72 74 67 66 59 58 56 58 54 62 66 64 64 64 65 59 62 65 66 63
16 16 15 11 11 13 10 12 12 14 16 20 25 28 32 33 39 43 41 46 60 68 79 82 75 74 73 65 64 65 63 62 59 58 58 56 54 53 57 62 60 60 61 62 66 67 70 67 65
15 15 20 14 10 8 12 12 16 16 17 16 20 22 26 33 46 44 46 53 73 71 77 80 78 73 73 66 63 58 58 59 57 59 59 56 52 48 50 52 58 62 63 67 69 67 66 70 66
23 18 16 16 17 20 19 24 42 31 21 21 21 23 26 28 40 41 46 60 68 72 73 68 69 67 66 65 54 59 54 54 58 60 58 55 52 47 43 46 54 61 67 68 69 55 70 69 72
26 24 20 14 16 42 33 36 31 37 34 26 28 30 29 30 37 42 59 68 71 72 74 70 67 65 52 50 54 59 59 62 57 58 54 47 49 49 42 49 61 62 64 66 68 69 67 70 73
19 22 18 18 20 59 31 48 31 32 30 34 26 30 32 39 39 39 60 64 64 72 72 75 66 48 51 50 54 60 60 53 53 53 52 50 50 48 51 49 56 58 60 62 66 68 64 73 73
15 19 42 71 68 56 18 20 29 26 34 68 48 30 37 39 42 43 48 58 65 69 60 55 46 46 51 56 54 53 51 56 55 53 50 47 47 50 53 51 55 57 57 61 64 69 73 77 77
21 18 51 76 84 41 18 22 18 16 16 23 28 34 38 40 42 43 45 48 53 53 53 50 44 45 48 51 48 51 52 52 49 49 42 48 47 48 48 50 54 54 55 59 63 70 75 76 80
20 25 19 28 54 66 23 13 17 17 18 22 32 35 40 38 37 38 39 45 49 50 53 53 44 43 45 47 51 54 50 46 48 42 45 50 46 38 52 54 54 55 57 60 63 69 73 75 79
20 16 32 31 50 46 20 17 28 25 20 22 33 37 39 36 34 35 34 42 43 46 52 56 49 44 43 48 55 51 50 46 42 45 50 45 46 45 50 52 53 54 56 57 60 72 75 76 81
24 26 21 18 33 59 57 25 17 17 19 23 29 34 38 38 35 35 34 36 40 45 47 51 47 40 44 45 52 54 49 49 44 48 48 47 47 47 49 49 50 50 52 55 62 66 64 70 81
19 24 22 61 38 46 63 39 16 18 16 21 23 26 32 34 33 33 33 36 40 44 45 48 48 42 44 47 46 48 50 45 44 45 46 47 48 49 49 49 48 49 50 56 60 66 67 68 69

GFSSGP_sfc_rhum_033.txt.gz
RH
68 52 39 34 28 31 34 25 47 55 49 51 48 59 75 74 82 87 83 78 80 88 87 84 89 88 89 89 87 85 81 80 78 78 79 76 74 74 73 73 70 67 59 59 58 56 55 56 60
36 25 32 32 26 36 29 56 62 54 43 40 40 46 62 83 73 92 85 77 74 86 84 83 89 89 89 88 85 81 78 78 78 77 75 74 71 71 75 73 70 67 59 56 56 58 60 64 69
37 25 27 19 23 28 30 70 56 48 38 37 42 38 48 80 74 73 75 70 72 74 80 84 90 89 88 86 84 83 82 79 77 74 71 70 69 68 72 75 73 70 62 61 62 63 66 72 77
25 20 14 21 25 20 19 52 50 40 44 50 45 48 46 58 69 71 62 70 67 79 84 87 86 85 86 88 85 83 82 79 77 76 76 71 70 71 74 78 76 68 66 65 65 66 69 78 76
28 23 19 23 21 16 22 38 48 57 58 67 58 49 58 57 72 79 80 70 87 90 86 81 85 85 89 86 84 83 82 80 80 80 79 76 72 73 77 81 78 73 70 70 69 70 74 78 78
26 20 25 24 15 13 54 52 48 50 54 64 59 58 61 65 76 85 87 95 89 88 86 84 87 92 92 88 86 85 83 81 81 81 80 78 79 81 81 82 82 80 77 76 73 75 75 74 75
25 24 21 16 14 14 46 58 67 65 59 50 62 86 68 66 94 93 96 97 96 92 90 89 93 93 93 92 89 86 83 83 83 83 82 82 82 82 82 82 82 80 80 78 75 70 68 67 69
16 19 20 16 15 51 60 59 66 82 59 48 40 65 79 98 93 92 94 97 98 98 96 96 97 94 87 85 89 86 84 84 82 81 81 81 80 81 82 81 80 77 75 74 72 71 66 64 63
16 19 17 15 38 64 69 61 71 68 66 50 42 60 91 89 81 89 94 96 95 96 98 94 97 91 86 86 84 83 81 80 80 79 79 82 78 77 78 79 78 73 71 71 70 68 66 72 72
19 23 18 23 44 51 64 55 56 65 76 53 66 83 90 87 85 91 93 98 97 95 94 98 91 90 82 67 84 84 72 76 76 76 80 79 79 79 70 79 79 73 71 70 70 74 68 63 56
17 18 13 25 40 45 54 52 47 60 64 59 74 83 87 86 89 87 84 91 91 89 90 92 91 80 64 69 78 77 78 79 81 77 82 88 78 84 86 89 76 79 76 71 66 61 56 60 63
18 14 11 31 33 39 39 38 32 43 54 58 67 72 74 89 82 87 86 91 94 93 88 85 84 69 63 67 69 72 80 89 93 88 84 87 95 94 86 80 77 70 74 71 70 71 60 56 53
16 13 11 30 31 41 31 37 36 52 60 47 52 58 68 75 82 84 83 83 87 84 76 70 68 62 62 70 83 86 92 87 94 87 85 89 87 92 90 85 80 75 69 66 64 58 56 56 55
14 13 13 14 32 36 36 40 37 45 56 57 54 60 73 69 70 76 81 80 73 69 68 69 65 64 71 79 84 85 86 85 85 90 91 89 94 89 83 83 77 72 66 60 62 58 59 65 60
16 19 16 15 25 41 44 43 42 44 46 52 58 57 51 60 68 71 71 70 68 62 60 66 67 79 78 76 78 86 81 82 87 93 93 86 86 85 84 82 76 71 70 66 64 70 70 70 62
21 22 24 17 28 33 29 42 36 43 45 61 52 45 40 38 55 56 53 50 56 58 60 63 65 81 78 82 89 88 92 93 95 91 88 82 82 77 80 79 76 75 77 70 76 76 72 70 65
30 31 28 22 23 32 32 39 32 39 45 50 43 38 36 40 43 44 45 48 52 56 56 70 79 81 90 95 95 96 90 92 91 91 86 81 75 75 78 78 72 75 76 78 71 75 74 69 66
34 28 29 27 20 31 37 35 25 35 35 40 42 43 42 38 39 41 42 46 54 59 59 81 85 91 96 95 96 96 90 92 91 87 80 72 70 70 74 72 72 72 73 69 69 70 73 70 70
28 24 23 19 13 26 26 25 22 23 36 42 43 47 49 42 40 36 41 51 61 66 82 89 87 94 93 96 97 87 83 86 85 77 73 71 62 66 71 74 69 67 67 64 68 69 68 71 74
27 25 25 19 14 19 20 22 20 21 29 37 41 46 45 47 49 46 61 61 67 75 84 91 87 86 92 91 90 74 80 80 74 68 68 64 64 65 60 65 65 63 66 70 72 70 76 75 73
31 36 26 22 18 16 16 21 28 22 22 32 36 38 39 48 54 55 66 77 84 89 89 86 87 83 86 88 74 75 75 72 74 72 71 64 60 55 61 62 64 67 70 72 74 75 70 74 72
26 28 29 24 25 28 29 44 46 38 33 27 31 39 42 50 52 53 75 86 92 95 94 89 83 81 82 87 80 69 65 64 73 77 71 61 57 52 47 57 68 72 74 71 76 66 74 72 76
32 28 27 29 32 46 41 43 40 42 28 33 36 34 42 54 55 57 75 85 88 90 94 92 88 84 80 78 74 62 75 72 72 69 68 69 64 54 53 59 59 61 68 68 70 74 79 80 80
27 30 32 39 44 56 36 41 48 53 35 34 30 38 39 53 64 70 77 81 87 94 93 92 86 85 79 61 67 68 65 62 60 60 58 60 60 62 54 51 58 58 61 65 70 72 80 80 78
29 36 62 69 80 72 36 42 40 34 34 40 38 36 50 60 73 82 85 86 89 93 92 90 85 67 65 63 57 56 59 59 57 58 61 49 52 57 53 53 57 60 61 62 67 74 77 79 83
36 35 67 80 88 73 43 50 34 27 26 33 40 42 52 56 66 80 81 80 85 89 90 83 63 65 62 57 54 58 56 62 60 57 54 53 53 52 51 55 56 55 58 62 64 72 78 85 88
37 39 36 69 82 86 48 24 28 26 36 54 54 50 59 62 62 66 74 79 81 76 70 65 61 60 59 58 60 61 59 55 53 52 52 54 51 44 53 55 54 55 58 59 60 79 82 81 86
27 26 44 55 54 56 38 39 44 35 45 50 51 59 58 54 56 58 61 69 66 67 68 68 62 60 59 59 62 55 50 50 49 52 48 47 48 49 52 52 52 53 55 60 68 76 72 80 90
34 36 35 35 56 66 78 46 29 31 32 46 52 52 54 48 49 51 54 59 60 62 65 65 64 59 60 62 60 58 54 50 48 46 48 48 48 50 51 54 54 50 54 60 65 69 70 76 81
25 35 46 70 46 64 79 55 24 24 28 30 38 45 52 46 44 46 47 53 56 58 60 64 66 56 57 60 59 55 54 48 46 48 51 53 51 54 55 56 52 52 55 61 69 69 69 72 78

GFSSGP_sfc_rhum_036.txt.gz
RH
74 59 41 37 31 34 38 28 26 58 58 54 57 72 84 83 85 83 89 90 85 90 90 87 90 90 90 88 86 84 81 75 74 73 75 75 75 75 73 71 69 66 57 56 57 57 58 61 65
49 30 36 36 28 34 28 31 63 57 48 58 53 65 80 90 88 94 93 88 83 88 85 85 90 90 89 87 84 81 75 73 76 74 72 73 74 72 73 72 70 68 60 58 57 57 58 64 72
39 31 36 35 30 28 29 63 56 51 51 44 46 42 64 93 88 80 81 89 89 88 82 87 91 90 88 84 82 81 80 79 78 77 72 71 70 68 71 76 73 69 62 58 57 58 62 73 75
28 23 21 20 22 21 22 42 62 54 49 54 48 51 60 64 80 76 77 81 90 87 86 91 91 89 87 85 84 83 80 79 79 78 75 72 68 70 73 77 74 69 63 60 60 62 69 75 73
32 26 22 24 21 15 39 31 53 61 65 64 54 62 65 87 76 77 78 77 90 89 86 84 88 88 86 84 83 82 82 82 82 80 78 76 73 72 77 81 78 74 67 65 64 67 74 76 72
29 24 28 26 19 15 61 72 64 70 68 70 59 68 74 86 86 85 91 88 87 88 86 83 85 85 85 84 84 83 84 84 83 82 80 79 80 80 81 82 81 79 77 74 72 71 71 74 72
34 29 31 23 19 27 60 67 69 66 59 65 65 84 87 91 91 93 95 98 92 95 96 90 84 82 90 89 88 86 84 84 84 83 82 82 83 83 82 82 81 80 77 74 71 68 66 66 72
23 23 27 22 15 32 64 66 68 70 63 59 60 83 94 91 92 93 94 98 98 95 96 94 96 90 92 89 88 87 86 86 84 82 82 83 84 83 82 81 80 77 75 70 69 66 66 70 69
18 23 25 18 25 61 64 68 62 60 64 57 82 90 93 91 89 91 95 97 98 98 96 93 96 95 95 90 84 84 82 83 83 81 82 84 84 81 79 79 78 74 72 68 66 65 69 72 75
23 27 22 16 44 57 62 62 60 59 61 68 94 90 86 87 89 93 93 96 96 97 98 92 93 93 89 72 81 86 76 83 82 82 81 80 81 83 78 79 78 73 73 70 68 72 71 67 61
24 22 18 22 53 46 68 57 62 64 66 62 94 93 93 91 84 88 91 89 88 84 89 98 97 88 82 75 91 89 87 83 82 82 84 86 82 87 89 90 78 74 74 75 69 58 60 57 60
19 14 14 43 44 46 48 48 54 63 62 72 86 86 88 89 80 79 91 85 89 87 88 91 94 82 77 78 84 82 78 85 93 93 87 94 97 95 86 90 80 81 78 71 69 67 60 59 58
19 16 24 40 40 37 44 50 46 61 66 72 83 81 84 77 76 77 83 79 79 87 81 82 87 83 74 79 81 86 93 96 95 92 85 86 88 91 90 87 78 74 72 68 65 63 64 65 60
21 23 36 39 36 28 42 40 45 56 57 65 73 89 78 76 81 82 81 85 83 79 83 80 84 74 75 86 87 96 92 92 92 96 94 92 91 88 86 81 75 71 67 68 71 72 72 72 65
24 21 40 50 48 41 38 41 51 52 58 65 69 75 80 73 82 82 82 84 81 77 75 81 79 77 86 90 88 85 87 89 96 98 92 91 88 87 83 79 75 75 72 72 76 74 73 68 57
29 24 25 39 38 38 39 50 51 53 61 69 67 68 72 79 79 74 77 76 75 73 72 73 69 85 85 89 83 88 93 97 98 94 90 85 84 81 82 79 79 83 81 80 79 76 73 68 65
36 34 31 30 29 31 33 41 36 48 59 69 72 62 67 75 76 76 74 76 71 68 66 83 84 85 93 93 96 96 94 97 97 93 89 85 82 79 79 77 82 80 78 79 73 80 75 70 66
43 31 32 30 25 31 36 30 34 48 59 70 64 49 52 73 74 70 70 66 66 66 66 84 83 93 92 95 97 96 94 95 94 88 84 78 79 78 78 80 79 74 68 70 69 69 71 73 73
36 37 38 25 20 33 32 27 31 48 55 60 54 52 53 65 59 57 58 63 64 66 84 88 91 96 87 95 97 97 96 96 94 86 78 76 74 76 76 73 70 68 67 72 67 71 68 76 73
34 39 36 26 20 30 32 28 29 40 45 48 48 48 47 49 50 55 58 61 64 71 83 90 86 92 87 88 96 86 88 90 86 81 80 72 72 70 68 69 67 66 72 72 72 73 80 78 76
37 38 38 35 23 20 23 32 38 26 39 42 43 41 40 44 48 55 60 68 66 90 93 87 89 88 89 91 90 82 76 81 79 80 77 71 68 64 65 65 68 72 73 74 78 77 70 74 77
39 28 28 33 29 25 31 45 44 37 31 42 42 46 45 44 45 62 66 77 81 92 92 89 88 88 86 92 86 73 69 75 79 79 75 68 63 63 63 68 75 76 74 70 74 73 79 80 78
37 33 35 30 40 46 40 40 36 46 32 38 37 48 49 48 50 76 75 82 83 95 96 95 90 92 84 86 89 76 78 75 82 81 72 71 70 63 59 62 63 66 71 69 67 69 79 88 84
36 35 40 51 49 52 46 44 43 46 30 30 27 39 50 62 70 84 86 90 90 93 95 95 95 91 92 91 89 75 74 77 77 80 78 78 66 66 58 57 61 63 63 63 68 74 82 83 83
35 43 64 62 76 62 45 46 40 32 33 35 31 50 54 64 83 94 94 94 94 96 96 96 94 93 93 88 86 77 71 70 70 67 72 64 63 59 57 57 59 58 60 64 65 70 78 85 89
43 39 66 59 75 62 49 55 43 30 26 33 40 49 70 76 78 89 92 93 94 95 95 94 94 86 74 70 73 69 57 57 64 60 52 60 57 57 55 57 57 57 59 60 63 79 87 87 90
36 44 40 72 85 87 58 34 31 35 40 50 55 52 69 79 90 91 89 89 93 95 94 93 79 70 62 61 62 58 60 60 61 66 67 61 59 52 58 55 57 56 57 58 69 84 79 84 90
35 30 45 59 63 70 43 43 45 44 42 58 57 57 68 78 91 92 88 91 90 90 88 80 70 63 61 62 62 60 63 61 60 58 59 50 52 55 55 54 53 55 54 60 72 79 73 82 89
36 38 40 43 60 62 74 46 28 38 48 52 55 56 67 69 78 85 84 83 79 76 74 70 65 62 60 57 60 60 51 52 54 52 54 52 53 52 50 56 59 53 53 59 76 74 75 76 82
32 38 44 67 44 68 80 52 33 32 39 53 57 57 64 58 62 70 75 78 75 70 66 68 63 60 56 57 55 54 58 66 56 53 56 53 51 55 59 60 60 56 57 62 69 74 71 71 75

GFSSGP_sfc_rhum_039.txt.gz
RH
76 61 44 37 30 35 40 29 27 42 60 66 68 75 82 97 80 82 93 90 88 86 89 90 90 90 89 86 85 82 77 70 68 70 75 76 73 74 74 70 67 66 61 57 57 58 63 72 75
50 35 36 30 31 36 29 28 43 48 64 72 67 74 85 97 84 94 92 91 84 86 87 88 90 90 88 86 84 79 73 69 72 71 72 73 69 71 72 72 70 68 64 57 57 59 61 69 78
40 32 42 35 36 30 29 36 63 61 64 63 54 56 78 91 84 85 88 84 86 86 85 88 91 89 86 85 81 78 78 78 77 76 71 71 67 68 71 74 72 68 64 59 58 61 65 74 79
30 27 23 24 22 22 23 22 54 60 59 63 66 69 70 85 84 84 85 86 90 87 86 93 91 87 85 84 83 82 81 81 79 76 74 72 67 68 73 76 72 69 65 59 59 62 70 73 79
35 27 27 33 21 19 64 71 59 74 74 71 68 72 82 90 82 86 89 88 92 93 91 92 91 87 86 84 83 82 83 83 80 78 76 75 73 72 78 79 76 73 69 67 67 70 72 71 75
33 27 28 30 22 17 69 78 70 70 68 71 64 80 93 86 89 90 90 94 95 96 92 88 88 88 85 84 83 85 86 84 82 80 79 78 79 80 80 80 79 76 74 73 73 73 71 71 71
36 35 31 26 24 20 65 72 71 67 59 59 67 90 94 94 94 93 95 95 96 98 97 96 94 88 89 88 88 88 88 87 85 84 83 83 84 83 81 80 78 76 74 72 70 70 73 71 73
30 25 28 23 21 21 64 66 71 70 64 60 64 90 95 96 93 91 93 93 93 97 97 96 95 89 93 85 88 89 89 89 88 86 86 86 85 84 82 82 79 76 75 71 70 74 76 72 75
21 27 27 22 22 44 72 73 70 67 62 83 90 90 91 95 90 96 94 97 96 98 96 96 96 89 91 90 84 86 87 88 86 86 85 88 89 85 79 80 77 75 73 71 74 76 75 75 76
26 28 26 20 38 55 67 65 62 61 87 93 95 91 92 87 92 95 94 97 96 98 97 96 94 89 96 75 86 86 82 87 86 86 85 86 88 87 78 81 75 74 74 74 75 76 72 64 64
25 23 20 21 50 55 66 62 65 64 77 82 95 94 94 95 90 91 96 92 93 95 95 96 92 95 91 82 91 88 87 86 84 85 86 87 83 91 88 92 78 80 80 72 62 60 61 60 64
26 18 18 42 53 48 53 53 52 70 66 81 88 88 89 91 92 90 91 93 93 92 88 82 95 92 89 88 90 87 83 86 91 86 82 89 96 95 94 90 87 80 77 69 68 70 67 66 61
20 19 29 41 44 46 44 48 46 69 92 85 83 87 87 78 82 84 82 83 87 89 87 88 96 92 81 85 87 90 91 94 96 95 92 95 95 91 93 86 79 76 70 69 70 71 69 68 61
25 26 41 43 44 36 35 46 51 69 92 90 84 86 84 74 80 87 84 79 80 77 82 85 88 93 80 84 85 93 97 95 95 96 91 90 89 89 81 78 74 73 73 76 74 73 70 67 58
28 37 46 48 47 44 39 52 57 67 85 92 89 89 83 70 78 80 86 79 80 78 81 87 93 87 83 89 94 97 95 94 98 97 95 90 88 86 81 79 79 78 77 77 76 73 68 64 56
30 28 42 41 47 42 36 53 56 64 75 90 94 90 79 80 77 74 79 77 81 84 83 83 79 85 94 95 96 94 95 97 98 97 95 89 87 82 82 83 86 85 81 79 79 75 70 69 67
38 35 34 36 40 40 40 46 55 66 69 81 87 90 83 80 83 78 80 80 81 82 82 88 89 94 96 95 96 95 96 97 97 95 94 88 84 81 81 84 86 79 77 79 73 78 72 71 69
48 43 49 38 37 39 42 36 54 62 69 74 81 82 85 84 84 75 80 79 79 86 81 91 92 96 95 95 97 98 92 94 95 93 89 83 82 78 80 81 78 71 71 71 69 69 78 77 74
40 44 46 35 23 36 36 32 50 58 71 85 83 70 76 83 76 78 78 80 84 84 90 92 95 96 90 94 96 97 95 96 94 87 82 81 82 78 77 76 72 70 70 71 68 74 73 77 78
39 38 37 29 27 34 37 36 34 58 62 68 71 61 62 74 81 80 81 83 81 80 86 94 91 94 89 85 96 92 94 95 92 87 85 79 81 73 68 71 69 72 77 75 74 74 83 78 77
40 43 42 35 32 28 34 35 32 35 54 58 60 51 54 70 77 78 79 78 79 79 85 91 91 91 88 93 91 92 89 89 88 90 86 79 75 70 69 70 75 76 78 79 80 76 69 75 78
43 35 39 39 40 27 33 40 43 37 45 51 52 56 54 62 63 66 70 74 76 79 82 86 90 91 90 90 88 86 86 84 86 87 82 76 74 71 69 72 79 79 76 75 77 75 82 81 79
39 42 40 39 38 47 43 40 38 48 40 42 49 52 53 51 55 61 65 70 73 81 90 92 93 93 86 88 88 83 86 84 86 84 78 76 73 71 73 70 67 68 73 66 66 72 80 89 87
36 40 44 52 51 55 49 44 43 42 36 36 36 46 51 51 63 62 65 76 82 94 96 97 94 91 87 90 94 85 83 82 86 85 83 81 74 70 64 61 63 64 64 63 70 81 82 83 87
38 46 62 62 71 60 48 51 43 31 32 35 38 45 50 58 78 89 91 90 91 96 96 96 95 95 94 92 95 90 91 82 82 76 78 73 71 66 64 62 63 66 65 63 64 71 75 80 88
50 44 63 59 70 58 54 62 42 36 35 36 36 44 57 72 69 93 91 90 92 94 93 96 94 93 97 96 96 91 88 85 91 82 76 64 60 59 58 63 64 66 60 60 63 74 84 89 90
46 48 43 71 85 84 59 46 30 34 48 59 58 70 80 89 90 92 94 93 93 94 92 94 95 95 94 89 87 81 79 78 86 75 67 60 60 54 58 63 62 60 60 58 64 80 82 81 89
39 35 49 61 58 70 53 48 43 38 37 57 62 65 80 91 95 96 96 96 95 95 94 95 95 90 78 75 75 73 78 75 73 68 63 57 57 55 63 59 58 59 60 61 72 84 78 84 89
41 43 44 47 60 61 72 54 32 37 38 47 54 57 74 88 93 93 93 93 94 95 96 96 89 78 67 65 71 67 70 63 62 60 54 51 56 55 54 56 57 61 60 66 77 81 77 78 82
38 41 44 68 49 72 82 56 34 33 36 51 48 53 69 76 83 89 90 91 92 94 93 92 83 72 62 68 70 72 72 67 58 54 50 55 57 62 56 62 64 62 60 64 76 77 73 80 81

GFSSGP_sfc_rhum_042.txt.gz
RH
76 56 45 33 30 35 44 29 29 35 51 80 72 77 88 88 83 83 90 88 83 89 90 90 90 88 86 84 82 80 77 74 72 73 76 77 76 74 71 70 70 67 65 61 67 73 72 70 70
51 36 37 31 33 37 27 28 35 67 76 72 60 74 93 91 82 92 90 92 83 86 88 91 90 87 85 83 80 77 73 73 76 74 73 74 72 73 72 71 69 68 66 61 68 72 74 75 81
39 32 42 33 38 31 28 27 73 69 68 62 57 69 82 92 86 84 85 88 88 87 88 91 90 87 85 82 78 76 76 77 78 76 70 70 71 70 74 72 70 69 66 61 62 68 74 80 81
32 31 23 26 26 23 25 22 58 60 68 62 66 74 81 89 89 87 86 85 93 88 90 93 90 86 84 81 79 80 80 80 77 75 73 71 70 68 75 74 70 69 67 62 60 68 73 77 81
33 30 31 35 27 19 23 76 82 76 78 73 68 83 93 89 88 92 94 93 96 92 92 92 92 85 83 82 81 82 82 81 78 76 76 75 74 74 79 78 73 70 70 67 66 71 77 77 78
34 29 34 36 24 19 51 82 77 74 74 70 76 88 92 86 91 95 90 93 95 98 96 93 89 87 86 83 84 86 85 83 81 80 79 79 81 81 80 79 75 72 71 72 72 71 75 78 77
36 38 39 34 27 22 58 74 75 77 73 74 77 95 96 96 95 89 92 93 94 98 99 97 92 85 89 90 91 90 88 86 85 84 84 85 85 83 80 77 74 74 74 74 73 72 73 78 81
34 29 46 28 24 21 65 69 78 76 77 67 81 94 96 96 91 87 92 95 94 96 98 96 93 90 94 90 92 92 90 89 89 88 86 85 84 82 80 80 77 75 74 76 78 75 76 76 80
26 35 32 28 23 23 68 74 75 74 89 87 90 90 92 93 89 91 95 96 96 96 95 96 96 93 93 88 88 89 89 90 88 86 86 90 90 86 80 80 79 76 77 78 78 78 78 79 75
31 34 29 22 22 51 70 66 65 68 91 88 96 95 94 94 92 95 94 97 97 95 94 92 96 92 92 82 87 90 86 89 89 90 85 88 87 84 81 79 77 78 80 80 76 73 69 63 64
30 26 22 20 20 55 65 63 66 80 88 86 92 95 97 95 89 92 91 90 90 90 92 93 93 93 96 86 88 91 89 89 88 86 88 91 90 90 90 90 78 86 72 64 62 62 64 64 64
31 22 20 25 55 54 55 62 64 64 63 79 85 86 91 89 88 85 89 92 90 95 94 92 91 97 94 91 87 88 83 87 92 87 83 90 96 94 92 89 84 78 75 71 74 72 68 64 61
24 20 23 29 49 52 47 49 58 94 92 86 85 87 86 88 91 87 89 89 89 92 93 89 90 97 89 90 89 89 90 88 92 88 86 92 95 95 94 89 79 75 72 74 75 72 63 61 60
23 38 43 47 51 43 47 54 56 92 92 92 88 94 93 87 92 91 89 93 90 85 84 75 97 95 86 89 88 91 95 95 97 97 96 94 93 94 84 79 77 77 77 78 73 68 65 62 59
29 46 46 48 44 50 44 55 57 95 89 96 92 93 91 83 88 82 81 85 87 84 78 87 96 95 88 88 90 96 97 97 98 98 94 95 90 83 80 81 81 82 80 76 73 69 67 64 56
30 33 50 48 50 49 39 48 76 94 88 95 95 95 90 82 81 81 89 80 86 91 93 92 83 95 92 94 96 98 98 98 98 98 96 91 85 80 82 84 84 86 82 78 75 71 71 71 65
41 41 36 39 42 45 41 61 70 80 86 95 96 95 90 90 85 79 86 90 91 93 92 94 94 95 95 95 97 97 96 98 98 98 96 92 85 82 82 85 88 82 80 79 74 76 71 70 69
47 46 58 43 42 46 56 54 69 76 83 91 95 95 94 89 84 79 84 87 92 93 92 93 96 96 96 98 98 98 98 98 93 89 92 87 85 80 84 84 81 75 73 76 71 73 80 75 73
41 44 46 42 30 46 46 43 64 68 75 91 94 94 94 89 78 81 85 88 93 94 94 94 96 97 96 98 98 99 98 92 86 83 87 86 83 80 81 78 73 74 71 71 71 77 74 74 78
39 41 43 36 33 38 42 44 55 70 67 76 82 86 85 87 90 87 90 92 93 92 91 95 94 97 94 89 96 94 96 95 81 81 86 86 81 80 75 74 74 76 78 76 74 75 82 82 80
42 44 45 38 36 31 40 43 39 50 65 70 74 71 72 77 90 89 91 91 92 93 92 94 94 95 92 92 91 96 93 91 86 94 93 85 81 74 73 74 78 79 79 80 80 77 75 78 80
44 37 42 43 42 38 37 40 44 43 60 64 67 73 68 64 78 85 87 91 92 92 92 93 94 94 92 92 84 88 86 95 92 86 82 84 79 75 72 76 79 82 83 80 80 76 80 80 76
37 42 44 46 46 50 45 41 35 51 50 59 57 63 61 57 68 80 84 84 86 93 94 96 96 94 90 90 84 86 92 91 91 91 85 86 83 78 76 80 74 75 76 74 72 76 80 85 84
38 40 44 53 53 59 49 47 44 47 39 39 46 52 53 56 68 71 76 81 89 94 95 96 96 95 91 91 94 90 93 93 93 95 90 86 83 81 75 68 72 72 72 69 71 80 80 86 84
42 48 63 61 71 62 51 56 48 35 36 37 41 44 49 52 70 74 79 87 91 93 95 96 95 95 93 94 94 95 94 89 88 89 89 85 78 75 70 66 70 71 72 68 74 68 67 82 87
47 46 66 58 69 54 53 59 39 40 43 49 42 40 53 63 67 71 71 84 89 91 95 96 94 92 95 95 94 96 89 89 89 88 87 77 67 66 65 64 68 74 79 79 65 70 77 87 90
46 50 45 73 84 84 59 48 30 45 56 56 56 63 64 78 76 76 84 87 93 94 94 94 95 94 95 94 94 92 90 91 93 90 87 79 72 62 62 67 75 88 77 64 66 74 80 83 88
44 42 52 64 60 63 56 52 44 34 40 60 57 64 80 88 90 94 94 94 94 92 92 94 94 93 93 96 96 96 95 94 94 90 81 72 68 58 66 71 82 69 64 64 67 72 79 84 88
48 48 50 50 62 60 69 52 39 32 38 47 54 59 68 86 94 96 96 94 92 92 94 95 96 95 98 95 95 96 94 90 91 84 81 73 65 61 68 76 65 65 66 66 68 74 82 81 86
41 44 48 69 52 72 80 57 36 32 35 38 43 53 63 82 91 94 95 97 97 96 95 96 95 96 95 92 89 94 92 87 86 83 72 67 68 67 64 64 66 64 64 66 71 77 73 82 85

GFSSGP_sfc_rhum_045.txt.gz
RH
57 34 29 20 18 21 20 16 18 19 28 67 62 59 64 69 68 62 81 83 77 79 66 70 88 88 87 84 83 81 79 77 75 78 80 79 76 74 74 72 70 70 67 67 67 69 73 75 71
34 27 25 22 18 17 13 18 25 43 55 60 57 69 72 81 73 85 86 82 78 79 66 67 89 86 85 83 81 79 75 76 77 78 78 75 74 74 72 73 72 74 74 72 69 67 71 78 80
27 24 27 23 22 15 15 18 31 43 61 53 53 61 70 83 76 81 78 83 87 80 67 70 87 84 83 81 78 77 79 79 79 78 75 75 74 73 73 74 72 72 74 71 70 73 78 81 83
22 22 16 18 18 17 16 15 38 49 54 50 52 74 79 85 88 85 81 80 91 85 70 87 87 85 81 79 78 80 81 80 78 75 75 74 75 74 74 74 71 70 71 72 74 76 76 82 82
21 20 24 21 18 15 14 36 59 48 56 54 53 77 83 87 93 86 90 88 93 89 84 86 93 88 81 81 81 83 81 79 77 75 75 76 77 77 75 75 73 72 73 73 72 74 77 80 81
22 20 22 18 17 15 18 56 56 59 58 58 68 71 92 88 91 92 92 97 98 95 87 91 91 86 84 82 84 84 82 81 80 79 79 80 80 80 77 76 76 74 73 75 76 76 77 78 79
25 24 24 22 21 17 38 57 62 62 59 59 62 76 96 94 91 90 91 96 98 98 98 97 95 88 86 91 88 86 86 85 84 84 85 84 82 77 75 76 77 76 73 73 76 80 79 78 79
22 20 21 19 17 16 49 58 64 60 65 58 71 74 86 94 89 90 91 95 95 96 97 97 95 91 93 81 91 90 90 90 89 86 83 83 81 80 79 77 77 79 76 75 76 80 82 80 77
19 23 23 20 17 17 59 56 64 65 70 77 81 78 86 90 85 92 93 95 95 95 93 92 94 88 93 87 84 89 90 89 86 80 85 76 49 52 51 74 79 79 82 79 80 78 77 76 74
20 25 22 18 17 26 57 53 58 68 77 78 86 93 94 81 80 94 95 96 95 95 95 92 92 91 87 78 79 88 83 78 75 68 65 56 65 59 55 67 81 83 82 79 76 70 66 54 38
22 22 19 16 16 37 53 56 54 66 72 69 84 93 91 91 83 88 92 94 93 91 88 84 84 88 87 84 94 87 76 75 75 70 66 71 65 68 61 63 61 61 62 44 48 44 40 45 37
23 19 18 16 38 48 49 51 57 54 59 67 73 85 87 89 89 88 93 90 87 81 80 82 86 87 91 86 79 79 74 67 69 66 72 72 74 82 68 61 64 56 50 54 48 47 50 47 44
22 17 18 22 42 42 45 46 52 70 79 74 77 79 77 81 86 83 79 76 79 78 83 82 88 88 86 80 78 76 76 68 74 69 73 75 77 78 70 64 55 51 51 51 49 46 42 44 43
20 24 34 39 42 39 40 48 50 81 82 81 79 79 77 78 82 78 71 73 80 74 69 74 74 85 81 80 79 75 69 67 71 73 74 79 73 73 66 60 55 54 51 50 46 44 42 41 40
24 30 35 39 38 42 41 44 47 78 80 85 82 80 78 78 77 82 73 71 74 75 72 78 79 84 80 74 70 70 74 71 78 80 82 82 78 75 68 60 58 56 54 55 51 48 44 39 36
23 29 34 32 39 43 35 35 56 84 83 86 83 76 78 70 73 72 74 72 69 67 70 73 71 82 80 76 72 68 75 84 87 88 84 80 75 69 65 59 60 60 56 51 54 46 44 42 39
33 26 27 26 39 42 34 39 57 81 72 72 73 74 73 70 70 68 68 62 64 65 69 73 76 81 82 81 81 79 82 84 81 84 75 75 70 67 61 58 62 63 57 61 49 50 46 45 42
34 31 31 29 36 38 41 37 57 76 74 61 67 72 74 70 64 66 69 64 63 66 70 69 74 81 83 82 80 74 80 84 83 80 72 70 62 65 62 61 66 63 64 53 49 53 50 45 44
31 33 31 28 25 36 40 37 39 69 75 72 65 70 71 68 58 62 68 70 66 68 73 73 80 82 79 77 82 78 78 82 74 70 73 72 63 63 66 61 62 57 52 52 56 54 53 47 50
35 33 32 29 26 30 29 27 32 59 67 64 62 66 65 64 66 66 69 71 72 69 71 74 75 78 78 70 76 69 72 73 66 76 82 79 70 64 66 63 56 54 52 58 58 56 52 50 52
34 33 34 32 30 26 29 27 31 50 56 57 62 61 61 62 66 69 72 73 72 72 71 72 72 74 78 74 70 72 72 71 69 72 74 70 68 65 66 61 56 58 54 55 58 56 51 44 54
36 29 32 33 32 30 27 26 29 35 54 57 53 61 61 58 61 62 69 71 71 75 74 72 74 75 76 78 71 73 67 70 69 77 71 72 70 65 60 58 60 60 57 59 56 50 52 54 48
33 35 34 34 34 38 34 30 26 36 35 47 51 54 58 56 55 59 63 66 68 74 82 78 77 76 76 77 73 72 70 70 74 77 74 72 72 65 60 60 62 62 56 57 55 59 58 69 74
33 34 38 42 40 44 37 32 30 28 29 29 32 46 50 53 60 56 57 62 69 79 84 84 81 78 77 79 79 77 79 80 79 81 79 76 67 61 63 57 60 58 54 55 53 58 68 73 64
33 36 45 51 55 50 44 43 32 27 27 29 30 30 41 50 55 53 60 70 70 79 81 81 78 79 80 83 82 81 79 76 74 76 87 84 71 67 67 61 60 53 54 58 64 84 85 66 71
40 37 55 48 53 42 45 43 23 29 27 38 42 39 34 46 52 51 56 63 69 75 76 80 78 76 80 86 82 80 78 79 78 81 86 83 74 69 65 59 54 57 69 70 90 78 67 59 59
38 41 37 60 69 63 41 34 25 31 31 36 40 42 41 44 49 51 53 60 66 73 77 82 79 74 80 84 82 81 81 82 88 89 86 83 79 70 65 60 59 65 71 85 76 61 59 63 67
35 35 46 52 56 56 41 40 25 26 27 34 38 41 45 54 60 59 58 62 64 69 74 77 75 74 75 79 82 82 82 82 85 87 83 83 76 66 66 60 65 75 82 70 70 58 61 62 64
42 41 44 40 47 48 48 35 34 28 26 31 36 41 46 56 61 65 66 65 65 70 72 75 72 72 74 78 81 83 85 84 85 89 88 83 75 64 58 59 74 79 71 65 69 70 64 63 60
35 40 42 57 47 56 58 42 28 31 26 30 29 40 43 50 58 66 69 73 73 72 71 73 76 77 75 80 86 88 88 90 91 92 88 82 74 67 68 72 74 72 67 56 73 72 66 58 59

GFSSGP_sfc_rhum_048.txt.gz
RH
44 17 12 13 13 11 12 10 8 16 15 34 41 40 44 47 50 66 65 68 61 58 50 60 89 89 88 87 84 82 80 79 78 80 80 79 78 78 75 74 74 74 74 72 72 64 65 67 70
13 15 15 10 11 11 10 9 12 21 32 42 45 46 43 72 61 65 80 72 56 56 52 47 92 88 86 84 82 80 77 77 79 80 78 77 77 75 76 77 78 75 73 70 72 67 67 71 76
18 16 14 12 11 10 10 11 14 18 38 39 39 43 49 69 66 67 60 73 68 61 49 55 90 88 85 83 81 79 80 80 81 78 77 77 75 75 76 80 80 78 75 71 73 72 70 78 83
12 13 12 12 11 10 10 8 10 17 30 34 35 51 59 78 73 62 54 77 78 69 62 86 89 86 84 82 80 81 81 81 79 77 77 75 75 75 77 78 80 78 77 74 76 70 75 82 83
10 10 12 12 11 10 8 8 23 22 29 33 36 47 60 90 80 76 84 82 85 78 78 80 90 87 82 81 82 82 82 79 78 77 77 76 76 77 77 78 78 80 81 78 72 72 76 81 82
12 11 12 10 11 9 11 24 32 36 38 42 43 46 67 81 83 87 96 95 96 91 86 85 91 87 84 83 84 83 80 79 78 79 79 79 78 80 80 78 80 80 78 77 77 78 79 80 77
13 12 12 11 15 14 19 34 41 41 38 43 41 48 87 84 86 87 95 97 97 99 97 92 90 85 88 87 86 86 82 82 82 83 83 84 83 81 79 76 76 78 78 78 78 79 79 77 74
12 12 12 11 13 15 24 36 44 42 43 44 43 46 77 90 83 89 95 95 97 98 98 95 92 87 84 82 91 90 89 90 88 86 84 84 82 82 81 78 77 76 79 81 82 80 78 74 72
12 14 11 13 14 14 24 34 43 47 46 48 52 51 65 88 78 83 94 96 97 98 96 94 89 87 82 80 86 86 89 86 83 79 80 70 38 39 42 75 84 80 81 81 80 78 78 76 68
14 14 13 12 12 13 23 37 43 50 48 52 72 90 85 84 79 82 93 95 96 97 95 93 90 88 87 82 80 67 65 61 60 55 52 40 45 40 41 66 86 83 81 79 75 71 69 56 28
14 15 13 12 12 14 21 36 38 39 46 42 66 93 89 83 80 86 91 92 90 91 91 91 91 90 87 88 86 70 64 68 62 62 49 53 48 47 43 49 46 48 56 36 39 39 31 36 32
16 13 13 13 19 26 35 34 38 42 51 52 72 83 84 78 78 88 92 93 92 92 90 90 90 93 86 89 83 80 73 61 58 52 56 55 50 50 48 43 44 46 39 42 40 37 43 41 39
17 14 13 15 24 30 36 35 36 53 52 54 69 77 78 76 73 77 72 78 85 91 85 86 85 86 87 86 89 81 66 57 50 56 55 43 43 52 47 49 42 42 41 40 40 40 37 40 38
15 16 20 24 30 30 29 33 36 56 54 63 67 64 70 68 66 75 61 64 70 70 73 58 63 58 53 63 73 65 61 57 58 44 48 58 50 52 46 48 45 43 41 40 39 39 38 35 34
17 20 22 24 27 29 30 32 31 52 55 65 52 58 64 66 60 65 57 57 54 47 51 63 54 58 56 60 62 61 55 47 44 46 62 62 57 54 52 48 47 44 44 45 43 42 38 34 28
16 19 18 25 26 30 28 27 38 54 54 53 45 49 51 62 60 58 56 55 47 46 52 58 55 58 63 59 51 46 44 50 49 53 58 65 64 62 58 50 48 48 47 42 42 41 36 33 28
18 16 17 18 24 26 27 24 37 54 50 44 42 46 47 50 49 55 53 51 49 45 51 61 59 56 61 63 55 53 52 52 53 60 63 67 64 64 56 50 50 54 46 47 44 41 38 35 30
16 18 16 17 24 28 26 22 35 44 46 44 37 42 46 45 48 47 51 47 42 43 52 56 57 63 68 61 56 43 48 48 55 56 53 61 54 60 54 49 56 49 47 48 44 44 36 32 30
19 19 17 18 20 26 23 19 19 37 45 42 36 37 40 43 40 46 45 43 42 46 53 55 62 63 72 56 50 42 48 50 55 53 57 59 53 55 55 50 55 51 49 47 50 44 44 37 37
24 21 20 20 21 22 16 16 16 30 38 37 32 33 33 36 40 44 48 45 45 46 50 52 52 54 60 51 46 42 40 44 46 51 59 60 58 54 53 53 54 52 46 52 50 47 41 38 38
26 23 22 21 21 19 20 17 19 25 32 36 34 30 30 32 40 44 46 50 52 48 51 47 47 49 56 55 49 45 45 50 52 55 65 65 74 60 54 59 58 57 48 48 50 48 44 40 40
27 20 22 23 23 22 20 20 16 20 28 36 38 38 37 34 34 37 44 48 50 51 48 47 48 49 53 58 52 52 44 49 51 54 52 53 60 60 53 55 57 60 48 48 48 42 42 41 42
23 22 23 24 22 24 21 21 17 22 20 24 29 32 35 32 32 33 37 42 45 47 50 49 47 48 51 55 57 53 49 42 46 55 59 62 63 60 54 54 58 62 51 51 50 49 47 43 43
23 26 26 26 25 35 20 21 17 14 15 14 16 24 29 32 33 30 31 36 40 44 51 55 51 50 51 56 61 61 59 51 49 61 63 61 63 63 58 51 55 56 51 52 48 49 52 56 62
25 27 36 41 41 40 27 26 18 15 16 18 19 17 19 27 33 34 32 36 42 48 55 58 54 51 51 56 59 63 66 64 62 61 62 64 66 75 73 66 59 54 52 48 50 70 64 59 56
26 25 37 46 43 32 31 28 17 17 17 20 24 25 25 23 27 31 34 35 39 48 55 57 57 57 51 60 62 62 69 72 65 60 64 72 77 76 70 67 63 55 54 59 71 67 66 56 53
30 32 24 37 51 46 24 21 16 17 18 18 22 25 25 24 24 28 29 33 39 46 55 58 54 50 52 68 68 72 81 79 72 68 76 82 80 75 69 66 66 65 51 58 77 72 77 65 62
27 24 36 33 46 42 26 25 16 16 16 16 16 20 26 31 30 29 30 33 37 42 51 57 56 52 52 58 69 70 72 72 71 72 81 79 78 72 70 71 62 56 67 75 81 70 75 73 71
32 31 30 28 32 39 37 25 17 15 16 19 20 20 22 30 35 37 37 37 39 42 47 54 54 51 52 55 59 68 71 74 73 78 79 76 77 75 74 67 58 63 77 80 80 85 77 70 80
20 23 27 38 33 35 39 29 15 16 18 20 19 21 24 27 33 39 42 44 44 47 47 49 50 48 49 53 58 63 68 74 78 81 83 84 84 79 70 67 72 79 80 81 84 80 82 81 75

GFSSGP_sfc_rhum_051.txt.gz
RH
49 23 11 9 12 10 9 8 6 10 13 20 20 25 30 61 69 64 56 55 50 56 50 64 92 90 90 89 88 86 83 81 80 81 81 81 82 82 82 82 79 77 71 64 64 65 66 69 71
14 9 10 10 12 9 8 6 9 9 16 25 29 30 26 62 53 67 66 66 55 62 50 62 93 90 89 88 85 83 80 79 80 80 80 80 80 78 78 79 80 78 75 64 64 66 69 73 76
16 10 12 12 11 10 8 10 10 11 17 25 23 26 37 52 52 58 51 82 77 65 57 70 93 90 87 85 83 81 81 82 81 80 80 78 77 78 80 81 80 78 76 66 65 69 73 78 82
10 10 9 10 10 8 7 8 8 9 13 18 21 29 47 58 54 61 50 61 83 75 67 83 91 88 85 83 82 82 82 82 80 80 79 78 78 80 84 84 80 78 77 68 67 71 75 81 82
9 8 10 11 8 7 7 6 7 12 13 17 19 26 46 65 63 67 66 65 66 66 74 86 91 87 84 83 83 83 84 81 81 79 78 78 79 81 85 84 80 80 80 72 70 72 74 78 80
11 8 11 10 9 8 8 12 16 15 16 23 27 24 64 62 69 86 89 91 78 93 93 90 88 85 84 84 84 85 83 82 82 80 80 81 82 83 84 85 85 83 79 79 78 78 76 75 74
12 10 11 9 11 11 13 19 26 29 25 26 26 34 67 69 85 87 95 97 99 98 97 94 91 82 89 89 87 86 85 84 84 84 84 85 84 82 84 84 82 80 80 79 79 80 79 73 72
9 9 10 9 13 18 18 22 29 32 28 31 30 36 55 79 87 93 93 97 98 98 98 96 94 90 83 75 87 85 85 88 89 88 86 84 82 81 81 82 80 80 80 79 78 80 77 71 69
8 11 11 11 12 17 14 21 30 36 31 34 44 52 72 76 85 91 95 96 98 98 97 95 95 93 86 81 82 82 90 88 86 81 81 69 40 39 43 75 83 84 83 80 78 78 78 75 68
10 12 11 10 11 13 13 23 31 35 32 38 71 73 77 78 80 87 94 97 96 98 97 94 92 91 87 82 79 84 71 64 61 57 57 44 46 46 46 73 85 85 84 82 80 76 75 63 29
11 12 10 10 12 12 14 22 26 28 35 38 52 91 87 84 73 79 92 95 96 95 93 89 88 86 87 88 91 90 62 58 59 65 58 56 59 60 57 60 50 55 62 40 43 46 36 37 33
12 10 10 10 12 16 23 21 28 35 42 44 72 77 74 70 76 78 90 93 94 94 95 89 90 95 93 94 93 85 59 59 60 63 64 63 59 63 58 45 44 46 39 42 39 37 44 42 39
12 11 10 11 15 21 23 24 26 37 40 59 75 74 70 60 73 80 84 86 89 92 91 94 93 94 93 92 91 78 58 57 70 58 57 59 58 65 47 46 42 42 40 42 41 42 39 41 38
12 12 12 14 17 17 23 23 27 39 45 63 71 60 51 53 64 78 78 87 89 89 89 90 93 92 88 83 84 76 63 60 55 61 60 66 56 57 45 48 43 42 41 39 39 40 40 37 36
12 14 13 15 17 17 20 33 28 36 40 48 52 44 47 54 52 64 66 76 81 83 79 86 85 82 73 67 64 49 55 52 54 53 62 61 53 54 52 50 46 43 42 45 42 43 39 37 30
11 12 16 53 17 17 27 79 33 32 40 37 36 39 44 52 47 48 53 58 53 49 52 57 52 59 57 58 56 51 53 52 48 47 56 58 51 51 52 46 48 46 47 44 44 43 40 37 31
13 13 16 26 13 17 19 64 31 27 33 31 32 35 38 44 41 46 48 46 43 46 49 51 54 46 50 54 57 59 50 41 33 41 47 54 55 60 64 50 50 54 48 46 45 44 43 38 32
13 13 12 12 28 16 19 20 26 26 28 30 29 31 34 39 39 43 46 43 41 43 53 58 57 57 63 69 55 45 47 45 41 45 50 55 58 61 60 50 53 55 47 48 47 48 42 37 33
13 13 12 13 16 18 22 17 28 26 27 30 30 30 31 36 34 41 44 45 44 42 49 52 57 59 61 52 49 40 48 44 42 47 51 55 55 58 58 48 54 54 49 51 53 50 48 39 36
16 17 14 16 15 17 20 17 17 21 26 25 27 28 29 30 34 40 45 43 44 44 47 48 48 49 58 51 43 38 37 37 36 40 48 48 55 53 54 52 52 55 50 56 55 53 46 42 41
17 19 19 19 26 13 14 15 12 13 19 22 21 22 22 27 32 39 40 41 45 43 46 44 46 48 59 53 41 38 35 36 38 40 45 52 56 53 53 54 52 55 56 58 57 53 50 44 43
20 15 18 17 17 19 18 21 23 14 18 22 22 21 21 23 27 32 39 40 41 41 43 43 43 42 42 45 43 45 39 37 38 42 43 52 61 66 55 52 56 58 56 62 61 49 51 48 44
18 18 18 17 19 20 26 19 23 14 16 18 23 23 22 22 24 29 34 37 38 41 43 45 42 40 39 43 48 46 47 39 38 43 56 60 60 60 54 53 60 60 56 60 63 58 55 45 44
16 21 20 20 21 32 20 21 20 19 13 13 14 18 22 22 23 24 26 30 34 37 44 45 42 39 40 42 49 51 50 47 38 44 57 59 57 58 60 57 64 64 60 57 57 58 54 50 55
19 23 36 40 35 39 20 17 16 31 13 12 13 12 16 20 23 23 23 27 32 39 44 45 42 39 40 43 47 52 51 51 50 44 57 60 63 62 62 65 69 73 70 65 57 58 67 66 72
22 22 38 55 48 36 24 22 15 14 13 12 13 15 15 16 21 22 22 24 29 36 41 44 42 42 40 55 58 53 52 52 56 59 55 59 63 64 71 75 74 71 69 70 72 75 74 65 70
23 26 19 31 36 44 24 17 19 13 11 13 13 16 17 18 18 19 22 24 27 36 43 48 45 43 44 65 86 79 65 61 66 68 65 66 70 75 79 81 73 68 65 73 84 82 75 76 74
20 21 30 30 50 50 22 20 18 16 14 12 12 14 18 21 19 19 20 23 27 30 41 47 49 47 46 47 59 58 58 68 69 70 74 74 77 75 74 73 72 72 73 77 72 80 81 82 92
25 28 25 25 30 52 39 24 15 14 13 14 14 13 14 20 25 25 24 23 24 26 34 43 46 46 43 43 52 63 70 70 80 81 84 84 77 73 72 72 75 76 73 70 84 79 86 85 90
19 24 25 38 37 31 36 30 14 14 13 14 14 14 14 15 23 29 30 32 31 33 35 41 46 46 43 45 50 63 76 79 84 88 88 90 87 86 82 82 85 85 86 90 93 87 82 86 92

GFSSGP_sfc_rhum_054.txt.gz
RH
53 32 21 16 16 15 14 9 6 7 11 34 52 44 55 48 59 58 69 82 86 82 75 79 91 90 90 90 89 87 84 83 83 84 85 84 83 85 82 76 74 74 69 65 66 65 63 65 68
22 16 11 12 17 18 10 8 11 12 18 29 38 42 33 66 54 54 65 75 72 70 66 78 92 91 90 89 87 85 82 82 83 83 84 83 84 84 82 79 75 74 70 66 66 66 65 69 74
24 12 13 15 17 15 11 9 10 11 10 15 25 28 50 76 74 65 59 78 79 70 67 74 90 91 90 88 85 83 83 83 83 82 83 82 82 83 82 82 75 73 70 66 67 67 68 74 80
14 11 12 14 11 8 8 8 8 8 8 12 14 46 68 60 66 69 61 70 77 77 84 95 96 91 89 86 84 84 84 84 82 83 80 80 81 82 83 82 78 74 71 67 68 68 71 79 77
11 10 13 12 11 10 6 6 7 8 10 13 27 45 83 76 74 81 74 71 82 88 92 93 96 90 86 85 85 85 85 84 83 81 81 82 84 84 84 83 81 75 74 69 69 69 71 78 74
14 11 13 12 11 8 7 22 21 17 14 13 19 29 82 77 84 92 93 80 85 92 93 90 92 91 86 86 86 87 85 85 84 83 84 86 87 86 84 85 82 79 79 78 76 77 75 76 71
13 13 13 11 9 16 16 25 26 34 62 45 34 61 81 87 93 94 96 97 96 96 94 92 89 87 91 92 91 90 87 86 86 87 87 88 89 89 88 86 83 83 82 81 79 79 78 74 68
9 10 12 10 11 19 24 24 45 28 78 70 53 63 80 91 92 92 94 98 98 98 95 93 92 92 94 82 86 86 88 91 90 88 86 87 88 88 86 84 83 81 81 80 79 79 76 72 65
8 13 14 13 11 18 22 26 60 44 42 60 73 81 80 86 85 90 94 97 98 99 95 93 94 93 92 89 81 85 89 88 86 82 81 77 75 78 65 80 83 82 82 81 80 78 76 71 66
10 14 15 9 10 11 11 15 44 27 30 56 57 76 77 75 73 93 96 98 98 98 99 95 94 92 87 83 87 90 84 76 71 66 65 58 65 64 70 86 88 85 83 82 79 78 74 66 48
10 13 11 9 11 11 13 47 53 60 54 56 55 79 84 75 71 89 96 97 97 97 96 95 94 90 84 83 90 94 92 89 77 74 68 74 71 71 78 79 76 81 75 60 67 70 57 55 54
11 9 9 9 10 13 17 58 62 59 64 63 65 75 73 65 77 87 96 96 97 95 95 93 93 95 94 93 88 89 91 78 73 78 76 74 72 74 72 67 69 68 66 62 62 64 64 57 52
11 10 9 9 10 14 16 22 42 45 62 64 67 65 63 72 84 87 88 90 93 95 96 98 90 91 91 91 95 95 90 84 81 78 72 76 74 77 72 71 63 63 65 63 67 65 59 57 51
10 10 11 10 12 14 17 57 61 82 58 61 61 58 58 71 80 83 83 88 92 92 94 96 92 92 90 92 94 93 86 74 73 77 75 72 77 79 74 75 68 67 66 64 64 63 62 59 54
10 12 12 13 13 16 17 36 61 73 60 56 52 44 51 62 71 77 79 81 83 89 88 93 95 96 94 90 95 87 76 69 73 72 76 76 75 72 70 72 72 68 67 66 65 63 62 58 51
14 12 14 15 17 18 28 57 46 37 50 46 40 40 57 50 60 65 71 72 69 77 81 85 76 90 91 89 90 62 63 74 74 74 74 74 71 72 75 74 74 72 73 67 70 67 64 65 57
15 16 13 20 19 21 40 66 60 41 44 34 37 39 46 45 55 63 64 64 63 65 70 75 76 74 67 70 63 63 61 68 63 66 70 75 73 74 78 77 74 74 74 74 68 71 70 65 56
17 15 13 12 17 16 18 54 69 59 30 28 33 35 42 42 49 52 56 56 54 56 62 62 63 64 62 63 61 60 72 63 59 54 57 69 72 76 81 82 79 76 75 75 73 71 70 65 58
15 14 14 17 18 19 25 23 43 37 26 28 30 34 37 41 44 49 50 52 52 55 60 59 62 63 62 67 65 63 68 58 58 56 61 73 72 75 77 84 80 79 77 74 75 74 70 65 58
17 17 16 12 16 16 14 17 37 36 52 27 29 32 35 36 43 51 51 52 56 61 60 59 58 55 57 65 64 58 58 59 54 54 67 71 75 73 77 82 77 82 76 77 78 76 76 71 69
17 16 16 21 22 16 15 15 13 30 36 23 26 27 29 34 43 48 51 55 55 60 64 61 60 59 64 65 58 53 51 53 54 52 59 65 70 70 72 76 78 78 79 81 82 79 76 75 72
20 12 14 19 22 22 19 24 15 15 18 22 23 26 28 30 37 44 48 52 54 54 56 54 55 56 59 61 59 57 51 48 51 53 59 61 73 75 68 72 76 80 79 79 81 74 72 71 70
18 18 19 16 18 20 20 27 20 17 18 20 24 23 25 27 34 41 44 47 48 50 54 54 53 51 53 60 62 67 57 54 51 61 63 64 75 77 78 75 78 82 82 81 82 77 73 74 71
15 19 21 20 22 35 20 24 30 21 21 19 19 21 22 23 30 35 40 40 44 47 53 56 54 50 50 59 62 64 66 60 58 61 64 75 76 79 78 70 80 85 85 86 85 84 78 75 74
18 23 38 44 43 45 21 23 22 24 22 16 20 19 22 23 26 30 36 40 42 46 51 54 52 50 50 53 56 60 68 68 61 64 64 73 75 78 79 85 84 84 81 84 83 84 78 80 80
24 25 40 57 68 46 38 32 20 18 17 14 13 17 18 23 26 27 29 36 40 46 50 51 48 50 47 53 57 69 62 71 78 73 62 74 70 76 79 86 81 82 85 85 83 85 86 92 96
26 30 22 32 44 60 43 31 22 18 15 12 13 14 18 21 23 26 25 29 36 43 50 54 49 46 46 54 66 68 84 90 94 85 78 83 80 85 90 92 87 89 86 86 88 91 94 93 92
19 20 34 30 57 60 30 27 27 19 15 13 14 17 19 22 24 24 23 28 32 39 47 53 52 48 47 54 66 71 79 86 86 85 82 85 93 93 93 93 90 86 86 86 88 92 87 91 96
21 26 31 28 31 54 56 35 27 21 16 15 17 16 19 24 27 27 27 28 28 34 41 52 51 49 57 70 74 74 82 76 78 85 88 88 93 92 87 87 87 86 85 88 91 95 93 95 96
18 24 28 46 40 40 61 44 17 22 16 17 16 15 21 20 27 30 31 31 33 35 40 47 52 54 65 71 77 73 73 79 88 93 95 95 93 91 90 88 88 88 92 92 93 94 94 93 94

GFSSGP_sfc_rhum_057.txt.gz
RH
73 58 55 36 38 35 32 22 17 18 32 50 46 35 56 64 63 94 84 82 88 79 78 94 87 89 90 90 89 86 85 85 85 84 84 85 82 78 78 76 74 73 68 62 60 63 64 67 71
43 28 40 32 33 39 28 16 16 15 33 41 42 36 56 83 61 78 90 86 82 72 74 95 88 89 90 90 87 85 83 86 85 83 85 85 80 78 78 76 75 74 70 62 59 63 68 71 73
50 28 30 30 37 35 27 15 14 14 15 29 34 64 68 72 68 75 82 81 78 84 82 82 87 88 90 88 86 84 85 85 85 83 85 85 81 78 78 77 76 74 69 61 60 65 68 72 74
34 26 24 29 29 20 20 12 12 11 9 16 58 72 73 67 73 86 78 80 86 88 90 95 89 89 90 87 86 86 86 85 85 84 85 84 83 80 78 78 76 74 69 61 62 66 68 75 75
35 28 30 33 26 17 15 23 22 27 36 47 40 78 76 73 87 91 86 87 97 98 96 93 93 95 96 90 87 86 86 86 85 84 84 85 84 83 79 78 77 75 72 66 64 65 69 72 69
25 25 33 28 20 16 26 24 29 55 40 53 62 74 89 81 90 97 95 90 96 97 97 95 94 94 95 96 93 89 88 86 85 85 85 85 86 85 82 80 79 78 78 76 72 73 71 69 70
26 28 28 22 16 22 27 29 57 64 62 55 70 80 85 86 92 95 98 96 97 96 97 97 94 95 97 96 94 91 89 89 90 90 90 89 88 88 83 83 82 82 81 78 75 75 71 68 68
22 21 22 19 17 29 24 26 46 52 66 57 64 71 80 93 92 94 97 98 99 96 96 96 95 93 93 90 88 87 93 91 91 93 93 92 90 90 86 84 83 82 80 78 75 74 68 65 63
20 23 24 19 17 27 28 35 51 52 61 66 77 70 77 89 91 94 98 98 99 98 97 96 97 95 92 89 87 91 90 89 89 91 92 90 90 88 80 84 85 82 81 79 76 72 68 65 59
21 26 20 14 18 19 36 47 49 55 66 72 89 88 88 90 89 96 98 99 98 99 99 96 95 95 90 78 88 92 88 85 78 79 82 84 82 81 80 86 87 85 82 80 78 74 70 60 52
17 20 15 12 17 18 30 44 48 53 65 71 74 94 90 89 91 95 97 98 98 98 98 96 94 92 88 86 91 91 94 89 78 76 75 75 84 85 88 87 85 86 80 73 73 71 62 58 60
17 14 12 12 17 21 32 52 76 73 85 77 87 82 80 85 88 95 97 97 97 98 98 97 92 91 90 87 92 94 93 90 86 81 75 82 78 77 78 84 82 72 70 64 66 70 70 58 52
18 14 12 13 13 22 40 64 75 76 71 63 73 76 84 86 89 91 92 93 95 97 98 97 94 94 94 93 94 90 95 92 92 79 76 77 71 81 75 75 72 70 71 62 69 69 62 58 53
18 16 15 13 14 20 42 56 50 75 54 64 74 83 87 86 86 92 91 95 95 96 96 95 95 91 90 94 93 97 95 92 90 88 87 79 76 82 74 81 67 72 72 67 73 68 65 61 53
20 21 17 15 19 26 38 45 55 62 64 67 72 76 86 88 78 84 86 90 88 91 89 90 93 92 88 88 90 92 89 93 90 86 77 77 80 78 78 86 84 75 73 69 71 69 68 68 54
23 23 28 17 21 31 30 52 50 55 62 64 67 71 83 84 78 87 79 84 80 85 89 89 84 88 88 86 85 82 91 90 88 82 85 74 73 76 79 83 82 75 78 76 76 73 69 68 59
30 31 25 19 20 34 42 66 44 48 53 59 58 73 68 79 84 83 81 82 87 88 88 85 88 83 83 87 84 80 72 74 66 74 75 76 77 79 80 84 79 81 86 79 71 74 71 74 70
32 27 23 23 26 39 54 60 49 45 60 64 67 69 64 80 81 78 78 77 82 86 86 86 83 83 81 83 70 62 65 70 75 74 73 81 81 80 86 88 87 91 82 80 80 74 78 76 65
23 25 25 22 24 24 46 59 54 49 66 66 61 58 57 73 73 73 73 72 75 78 81 83 81 79 78 73 68 60 64 57 77 70 62 77 78 82 87 90 91 92 81 80 80 80 77 76 69
24 26 26 20 22 27 32 59 49 54 56 53 50 56 54 63 71 69 70 70 68 72 72 76 70 68 64 60 60 64 61 59 60 66 70 74 79 76 87 92 94 92 85 85 84 80 82 75 72
25 27 26 24 29 27 28 35 51 46 56 46 59 46 48 64 64 65 65 66 63 69 70 64 65 62 61 58 62 75 72 73 69 62 70 77 80 80 82 90 91 85 85 89 87 83 78 79 80
27 22 19 20 31 40 27 42 32 54 60 66 52 42 46 60 60 58 60 64 60 63 62 61 60 60 58 64 69 69 66 63 62 63 60 71 84 82 79 82 90 87 84 91 88 82 84 79 73
26 25 28 27 32 34 31 41 34 42 55 63 49 39 43 53 60 60 58 58 59 62 63 59 61 56 53 56 67 71 67 60 57 61 69 67 76 79 78 79 87 89 86 92 89 89 85 77 79
21 29 28 33 36 52 34 36 39 33 24 31 32 37 37 44 54 55 55 54 56 59 66 65 65 63 56 60 68 72 79 70 64 64 69 82 87 84 84 86 90 93 92 91 92 92 89 91 91
25 30 56 64 62 63 36 40 34 28 29 24 30 30 33 37 50 53 54 57 57 56 62 64 62 65 64 66 67 68 78 80 76 64 70 93 91 93 88 88 93 95 95 92 89 92 91 92 85
29 35 65 63 76 63 47 49 34 28 25 21 20 23 27 34 42 49 51 52 53 54 57 59 58 58 57 60 66 71 70 71 74 78 86 84 82 83 86 92 93 92 91 93 92 94 96 94 93
34 41 33 46 58 73 57 44 32 29 25 25 18 21 27 33 35 43 47 48 48 53 54 58 57 55 56 58 71 70 70 75 83 81 80 92 92 93 94 95 95 96 96 94 93 95 96 96 96
26 28 45 46 66 71 50 47 46 31 26 21 22 25 25 30 33 35 42 47 45 46 50 52 55 58 55 55 59 60 78 82 92 94 94 92 95 96 98 98 97 96 92 90 92 94 94 95 98
33 32 36 43 57 70 70 55 36 34 29 22 20 21 28 32 32 35 38 38 42 44 47 51 50 55 61 61 65 64 86 91 96 95 92 92 96 96 97 95 92 92 92 92 94 94 95 95 97
23 30 34 69 60 61 72 61 29 29 25 21 19 20 25 35 34 35 37 40 46 41 45 50 54 61 63 66 86 92 94 97 97 96 96 97 97 97 95 95 95 92 92 92 94 94 92 94 96

GFSSGP_sfc_rhum_060.txt.gz
RH
68 59 51 37 34 40 43 28 22 19 25 49 47 47 65 69 74 80 84 85 91 90 88 92 97 94 90 88 88 86 85 84 86 86 83 82 81 79 77 75 73 70 68 66 67 68 70 72 74
46 35 40 41 38 43 35 25 20 17 16 54 44 55 70 65 68 92 93 82 83 78 78 82 91 97 90 88 87 85 83 84 86 85 82 81 79 78 78 76 73 70 69 65 66 68 64 64 74
38 29 33 41 46 43 36 25 20 16 38 40 72 68 67 81 73 85 85 83 82 83 74 73 80 89 90 88 86 86 84 84 85 83 81 81 80 80 79 78 74 69 67 65 66 64 62 68 76
36 30 30 34 35 28 27 20 17 41 46 50 55 84 75 66 89 91 86 80 89 92 89 87 86 89 87 89 88 88 86 86 86 83 81 81 80 80 80 78 74 69 68 65 65 62 64 72 76
40 34 35 43 32 25 18 24 46 54 52 57 60 66 74 84 85 93 92 90 97 99 97 94 92 85 90 90 93 92 87 87 88 84 81 81 81 81 80 78 74 72 69 64 62 64 69 72 77
36 34 41 44 31 20 22 42 46 50 52 49 66 77 83 86 94 94 97 98 95 98 98 96 94 92 92 94 95 94 89 88 88 86 84 82 82 82 81 80 78 77 76 73 70 71 71 70 74
34 33 38 32 23 19 27 51 51 52 54 54 68 76 84 91 94 93 98 98 99 99 97 96 95 93 95 94 95 94 90 90 89 87 85 85 85 84 83 83 82 80 77 74 72 71 71 69 70
29 30 36 26 24 22 28 48 54 50 64 58 68 71 78 91 92 95 98 98 99 99 96 98 98 96 93 93 92 91 96 96 92 90 91 92 88 87 86 84 82 79 76 73 71 68 68 67 70
23 31 33 25 22 22 28 53 60 57 59 67 84 86 95 96 91 94 97 95 98 99 98 97 96 94 94 94 93 86 93 95 96 95 94 93 90 89 81 85 83 80 77 74 71 72 71 67 70
24 31 25 18 18 22 47 54 61 60 63 71 90 93 89 90 90 94 95 99 99 99 99 97 95 94 96 94 91 93 91 92 92 93 95 94 93 87 83 85 85 82 79 76 72 73 68 62 58
24 24 16 15 14 20 60 79 65 71 93 83 81 95 95 94 92 94 97 98 99 99 98 96 93 92 91 95 96 94 93 92 92 90 84 90 88 85 85 84 83 85 80 77 69 63 61 60 58
22 16 15 14 16 26 51 69 65 70 69 72 83 86 88 88 90 92 97 98 98 98 98 97 95 94 96 96 92 95 91 84 85 81 84 87 83 78 82 81 82 77 75 72 68 70 67 58 50
21 20 16 15 23 44 51 69 59 63 72 77 84 79 84 87 88 90 91 93 96 98 98 95 93 92 96 94 97 96 95 90 89 79 82 76 74 77 79 78 79 73 71 67 68 75 63 56 54
24 25 23 17 16 44 53 67 60 65 68 80 80 84 87 89 86 91 92 96 96 97 98 96 94 93 92 94 95 97 96 94 89 86 90 77 75 74 75 78 72 74 74 68 74 70 64 59 48
25 26 22 20 19 39 47 56 57 69 66 77 87 93 86 81 87 88 87 91 93 95 95 94 95 94 91 88 94 94 94 92 91 90 85 79 74 72 80 77 82 77 76 73 78 72 68 65 52
28 30 32 22 20 32 40 48 54 69 71 78 87 92 92 88 87 84 84 83 87 89 93 93 89 88 88 85 90 77 85 89 88 88 86 78 80 74 82 93 93 83 81 81 78 77 76 70 62
40 38 34 26 19 28 39 49 54 65 65 70 90 92 95 94 94 92 80 80 84 84 90 93 87 87 84 84 80 80 82 81 78 78 80 79 78 83 86 88 86 86 90 84 74 78 74 75 70
40 37 39 30 24 43 52 53 62 58 59 65 82 89 93 92 96 88 75 80 80 81 84 86 85 83 82 81 83 81 82 80 76 74 74 80 83 84 88 90 88 92 92 85 80 76 80 77 76
30 32 33 27 28 39 46 51 52 67 65 76 78 79 88 91 89 86 85 87 82 88 92 89 86 87 87 82 83 77 78 74 77 72 72 78 84 82 88 91 91 94 90 83 80 80 79 84 75
31 32 31 25 26 29 50 46 48 59 67 68 70 72 81 86 91 86 87 90 89 91 90 90 88 84 80 73 70 69 66 63 63 73 76 76 83 82 88 92 93 95 95 88 89 83 88 84 78
29 31 31 28 26 30 51 47 56 52 54 55 55 59 65 81 89 85 84 88 87 88 89 85 83 83 80 74 68 75 78 79 69 70 73 77 79 79 81 89 91 94 89 85 91 86 81 81 85
35 26 27 27 33 42 32 45 55 60 58 59 55 58 61 72 77 78 80 83 81 82 80 81 76 75 71 68 66 65 63 61 56 56 58 64 85 82 79 81 90 92 89 87 86 85 83 78 73
30 27 30 31 35 38 34 42 38 56 56 51 55 54 57 67 75 77 75 75 71 72 76 75 72 69 66 62 60 67 66 62 60 65 71 72 82 85 84 82 93 93 90 89 92 94 88 81 81
24 30 34 39 43 55 39 39 43 70 51 43 46 51 50 64 66 68 66 65 66 67 71 67 67 69 62 61 64 70 72 70 69 70 72 72 72 82 84 83 89 92 90 93 93 93 91 91 90
27 37 57 61 62 62 39 47 39 29 33 42 42 49 46 56 63 64 65 65 63 66 70 67 64 68 62 62 64 72 74 77 80 66 67 74 78 82 82 87 88 91 92 93 95 95 96 95 95
34 37 63 61 74 61 50 54 39 29 30 29 36 39 40 46 58 63 61 62 62 63 65 66 64 66 61 60 61 65 71 75 79 77 70 74 77 74 81 90 90 95 97 97 97 96 97 96 98
34 43 34 50 68 75 62 49 33 30 30 29 32 35 39 41 53 59 59 60 59 62 67 67 65 64 64 62 61 64 72 77 80 80 82 86 86 90 94 94 93 97 96 98 96 98 97 95 96
28 32 48 59 64 68 57 51 48 36 33 30 28 28 33 37 44 54 55 58 58 57 59 67 67 67 66 66 68 69 73 76 80 92 85 84 94 92 95 97 96 98 97 97 97 97 96 96 97
37 40 46 46 62 68 71 57 42 36 35 27 25 24 29 37 40 47 52 52 54 55 56 60 66 68 70 70 71 72 76 76 94 97 98 97 98 97 98 98 98 98 98 96 96 97 96 97 98
23 32 37 61 62 69 76 62 36 32 28 24 24 24 35 35 35 37 44 50 52 52 53 56 58 64 64 73 86 87 96 96 97 95 97 99 99 98 97 98 96 95 95 95 95 97 96 96 97

GFSSGP_sfc_rhum_063.txt.gz
RH
73 72 54 35 31 43 53 34 29 24 22 54 53 54 70 79 74 70 86 88 91 94 91 86 88 85 90 88 83 86 86 86 85 84 83 82 80 79 76 74 75 75 73 69 70 69 72 74 76
45 46 37 38 39 44 35 29 25 21 23 59 61 67 70 75 74 91 92 89 86 91 89 86 85 85 83 88 89 86 85 86 84 83 82 80 79 77 75 74 75 76 73 69 69 69 71 75 79
37 28 32 44 49 44 38 26 25 31 54 52 79 76 74 80 79 87 88 87 85 84 79 86 86 86 84 89 91 86 86 86 84 82 80 79 78 77 75 75 75 75 72 65 62 66 73 82 82
36 30 31 37 40 32 30 21 22 41 45 54 71 85 81 74 88 88 88 84 86 87 83 86 88 86 88 88 88 88 88 86 84 81 80 80 79 78 75 74 75 75 71 61 58 68 76 82 81
40 37 39 45 36 29 24 22 51 60 60 57 64 70 76 91 90 91 96 87 88 88 90 84 84 86 81 86 86 85 86 86 84 82 82 81 80 79 76 75 75 75 71 63 67 74 81 81 80
35 36 43 48 35 24 20 43 50 54 53 53 70 79 87 94 94 88 94 98 96 93 97 93 85 88 83 91 88 90 90 85 84 83 82 82 82 81 78 78 77 76 74 70 73 80 80 79 79
35 39 45 41 32 25 24 51 52 57 57 66 73 77 83 91 94 91 94 99 99 98 98 97 95 96 98 95 92 89 88 87 84 85 84 85 85 83 82 80 78 74 72 70 69 75 79 79 80
32 35 49 35 28 24 30 53 61 60 69 63 79 75 76 92 91 93 97 94 99 93 98 98 98 96 96 97 92 87 87 84 84 87 89 89 87 85 83 80 76 72 70 69 70 74 79 80 81
27 34 40 30 26 22 42 52 65 60 64 76 93 90 92 93 90 92 96 99 99 99 99 99 98 96 94 94 87 82 84 77 84 85 91 90 90 90 85 80 77 73 74 75 71 72 79 81 81
28 35 28 22 20 20 45 58 61 67 68 80 97 96 96 92 90 94 97 98 99 99 99 98 98 97 94 91 92 88 88 84 84 85 90 94 94 91 81 80 80 77 75 75 76 73 68 62 68
27 27 22 16 18 25 58 76 68 76 74 73 82 94 97 96 94 92 95 98 99 99 99 98 96 94 92 93 95 85 84 86 91 93 92 92 91 88 87 80 81 81 72 61 60 68 59 51 57
26 19 19 17 19 45 68 70 73 79 64 80 81 95 95 92 95 93 97 98 98 99 98 98 96 96 94 94 93 95 91 92 95 95 92 85 85 86 89 79 82 76 76 68 66 73 63 53 52
22 23 23 22 22 39 59 67 56 66 80 88 92 94 94 93 95 97 93 94 96 98 98 98 95 96 98 98 98 97 97 93 93 92 91 83 79 82 80 77 78 77 71 70 71 69 60 56 49
28 27 27 23 29 56 60 70 81 62 79 93 92 95 94 94 94 95 88 96 96 98 98 98 98 97 96 97 95 97 97 96 93 92 89 78 75 78 73 74 73 76 68 70 78 70 63 60 52
29 28 27 24 25 49 52 70 72 68 80 94 95 95 94 94 93 86 92 91 93 96 97 97 98 96 95 94 96 97 96 94 92 90 85 81 75 73 72 70 76 74 73 70 80 74 70 61 49
30 35 36 26 24 29 37 41 48 78 81 93 96 98 94 94 94 94 86 85 89 93 96 95 93 96 97 94 95 94 91 94 92 89 83 80 77 74 75 85 87 78 82 79 83 81 77 70 60
42 38 35 29 24 28 48 46 49 78 74 87 97 98 96 98 95 95 95 90 88 88 93 97 95 93 93 94 93 89 87 81 85 86 79 78 78 82 80 85 85 84 90 88 82 84 79 78 72
43 42 53 38 29 46 57 48 59 78 81 84 96 97 98 98 95 94 83 80 84 88 89 90 91 94 89 90 90 85 91 82 78 76 78 82 85 83 89 91 91 93 94 91 88 81 83 79 75
34 38 39 33 26 44 49 46 51 71 82 78 96 99 98 97 93 94 80 81 85 86 89 88 88 89 83 88 82 86 88 82 78 73 73 81 85 87 91 94 93 95 95 89 86 85 83 87 82
37 39 37 31 26 38 40 43 52 73 69 65 85 95 95 94 98 96 96 94 94 88 88 85 86 96 89 80 76 77 71 75 71 76 77 76 83 84 90 92 93 94 94 91 88 84 90 89 82
37 38 36 33 30 35 50 49 54 53 62 70 72 78 80 89 96 96 96 97 86 92 89 84 92 93 90 82 71 76 74 72 68 68 77 82 80 83 86 90 92 94 94 91 93 89 90 91 93
39 31 31 32 39 43 39 53 38 54 62 62 64 70 76 82 85 90 93 98 90 88 80 88 91 89 84 85 83 81 73 71 65 61 71 72 82 82 84 87 93 95 95 95 93 90 88 91 89
35 32 34 38 38 44 40 45 35 63 64 58 58 62 67 75 83 89 88 89 93 89 87 93 89 87 80 82 74 75 76 72 71 73 72 72 80 88 89 90 93 94 96 94 94 95 94 92 94
28 37 40 46 47 59 43 41 46 64 48 49 44 60 62 71 78 79 78 80 86 86 90 92 89 82 81 78 76 76 74 71 70 76 77 75 79 87 92 93 94 94 93 94 94 92 93 93 91
36 41 62 63 64 59 41 49 36 33 44 37 41 47 58 62 73 78 80 80 81 84 85 86 86 83 78 77 75 71 74 74 74 66 72 70 77 86 86 94 92 93 93 92 94 96 96 97 95
40 40 66 63 69 58 52 61 41 35 30 32 34 39 48 56 66 73 75 74 74 76 78 80 78 80 75 75 74 70 67 71 74 75 69 74 75 71 81 92 92 92 93 96 98 99 99 98 96
42 48 35 50 70 79 63 52 37 33 32 32 32 48 52 51 63 66 69 70 69 69 72 75 71 70 71 73 71 70 70 74 74 76 90 85 85 81 90 93 93 93 93 95 98 98 98 98 97
31 35 50 62 65 70 59 62 47 36 31 38 32 44 51 47 56 61 63 66 64 62 64 68 73 67 64 67 65 65 67 71 77 84 84 87 87 93 96 96 94 94 95 97 97 98 98 97 98
42 44 48 46 62 58 61 60 45 37 34 38 35 30 47 46 46 56 60 60 61 60 60 63 67 72 69 66 68 67 71 74 80 83 84 90 93 97 98 97 97 97 98 99 99 98 98 97 98
32 38 40 58 62 72 71 48 38 38 34 35 27 26 30 36 42 43 55 59 61 61 61 62 63 67 71 77 76 79 78 84 83 86 86 86 93 98 98 98 98 98 98 98 98 98 97 97 98

GFSSGP_sfc_rhum_066.txt.gz
RH
74 73 53 32 29 40 51 36 35 27 26 52 58 56 60 74 64 64 92 93 96 94 92 87 86 86 86 86 88 87 86 86 86 85 85 84 82 79 78 77 76 75 72 68 67 68 69 72 75
49 50 37 38 38 42 34 32 28 29 42 57 68 75 68 74 77 94 91 87 89 92 89 86 84 80 81 84 84 86 84 84 85 85 84 82 79 78 78 78 76 75 73 68 67 71 72 75 78
39 29 32 42 50 42 38 29 24 23 51 58 79 79 79 71 82 88 93 90 89 92 89 85 89 86 84 85 86 86 86 85 85 84 80 80 77 78 79 79 77 76 74 72 72 73 77 80 82
36 30 32 39 48 34 30 25 25 26 45 60 79 77 83 76 91 92 94 89 92 88 89 90 90 87 83 84 85 89 89 86 84 82 80 78 77 78 80 78 77 73 71 70 72 77 80 82 82
38 37 41 50 40 32 29 25 38 61 57 59 70 68 75 76 93 93 95 91 91 92 90 94 92 88 85 84 86 87 87 88 83 82 80 78 78 79 79 78 74 70 68 72 78 80 80 82 81
34 37 43 44 36 28 25 27 54 52 58 55 73 75 76 92 94 93 92 95 90 93 92 92 90 89 85 86 84 81 86 85 83 83 82 80 78 78 80 78 74 73 78 80 82 82 80 80 79
34 40 48 44 36 29 22 58 54 51 62 62 76 85 86 89 93 92 94 98 96 94 94 96 90 88 86 87 86 83 82 83 84 84 83 82 82 82 80 79 75 76 83 83 81 80 81 80 79
35 38 58 40 34 26 23 51 64 61 61 68 83 79 76 96 93 93 96 92 98 98 96 96 95 91 95 96 93 95 90 88 88 87 88 89 87 83 80 75 72 73 80 81 81 81 80 80 81
31 36 43 35 29 23 30 49 62 62 71 74 90 95 94 90 89 93 98 97 98 96 98 99 98 95 94 95 96 94 90 77 85 90 91 91 92 89 78 71 73 74 77 79 82 82 82 81 82
33 39 31 26 24 20 21 46 58 67 73 78 93 93 87 96 90 94 97 98 99 99 99 97 98 98 96 95 94 91 92 87 76 87 92 94 96 91 75 75 76 75 76 81 83 84 83 82 82
31 30 26 21 20 21 30 77 68 74 72 72 77 92 88 96 92 92 96 98 98 99 99 98 98 96 94 94 92 88 96 96 95 91 92 92 89 90 84 74 69 70 70 62 70 70 68 76 79
30 22 21 20 23 36 50 72 70 78 61 83 86 91 88 96 97 97 96 98 98 98 98 99 96 96 96 92 92 90 90 92 96 95 94 84 85 93 93 82 84 78 74 71 66 65 65 64 69
25 23 24 23 28 30 59 59 62 67 70 89 96 97 96 95 97 90 93 94 97 98 98 99 98 96 96 94 94 93 90 85 91 91 91 80 85 90 88 84 80 75 75 70 73 61 54 55 60
28 27 30 28 25 56 57 72 75 59 84 94 96 96 95 94 97 89 90 96 96 98 98 99 98 97 96 93 93 94 95 90 92 92 90 80 78 83 78 76 73 74 72 76 68 59 56 59 56
32 33 30 26 28 43 56 58 79 65 90 95 96 95 95 94 93 96 83 90 95 97 97 99 99 97 98 96 97 98 96 96 95 96 91 82 80 82 77 77 75 72 72 77 73 70 67 60 52
35 36 38 26 33 39 42 48 36 75 92 94 96 97 96 94 94 95 95 82 90 95 97 97 96 99 99 98 98 98 97 96 98 97 91 78 77 77 77 86 86 76 73 79 77 76 72 63 57
42 42 37 30 29 49 50 46 49 89 90 91 96 90 97 96 96 96 96 83 92 90 95 98 98 97 98 97 97 96 93 91 97 95 88 77 79 82 76 76 81 78 87 81 82 85 78 72 66
43 45 55 41 34 38 53 49 45 83 84 85 93 91 95 98 97 96 92 94 86 89 92 94 96 96 97 97 97 96 96 93 94 91 80 79 78 81 86 86 86 87 91 88 88 84 83 78 72
35 39 43 37 29 36 41 53 40 72 89 91 93 96 93 98 94 96 78 86 95 90 92 92 95 96 94 94 97 95 94 86 90 83 78 82 80 82 86 89 91 92 90 89 88 87 84 84 78
38 41 42 34 28 34 35 38 44 67 77 82 86 94 95 97 99 98 90 84 90 88 90 90 89 88 82 78 83 89 93 83 83 85 81 84 85 86 90 91 92 95 97 94 92 87 90 87 81
41 41 42 31 37 37 45 46 40 50 72 72 71 81 88 93 97 92 94 83 82 90 88 86 86 85 83 79 74 76 86 80 77 78 80 79 84 87 88 93 95 96 95 94 94 89 87 91 92
39 36 34 36 44 48 44 54 40 36 52 66 69 82 81 89 92 96 91 89 82 82 90 86 86 95 91 88 88 82 81 76 68 66 71 72 79 82 83 88 93 95 96 95 91 92 90 91 93
33 34 38 40 47 50 47 53 40 63 46 52 62 67 74 82 89 96 96 94 85 81 91 81 86 95 87 88 84 82 82 68 72 72 70 73 76 82 83 86 92 95 96 95 96 96 94 92 94
34 41 44 51 52 66 47 46 50 40 46 38 46 56 60 77 81 88 88 90 96 96 91 80 84 92 89 88 87 84 80 79 79 84 83 82 82 83 89 90 93 94 96 96 95 95 96 96 95
39 44 65 68 70 69 45 49 37 33 31 35 34 46 58 64 78 89 94 94 95 98 96 88 88 92 91 88 87 83 80 80 78 73 79 86 84 88 91 93 96 96 95 96 96 97 98 98 98
44 46 71 66 71 60 54 58 42 37 32 31 36 41 54 67 74 82 86 85 87 90 94 95 95 93 88 87 85 82 79 80 77 82 74 85 85 80 78 91 95 95 95 96 98 98 98 98 99
47 53 40 53 73 77 61 54 41 38 35 34 35 36 48 65 74 77 79 80 81 83 85 89 88 89 86 85 84 82 80 82 84 85 90 90 90 89 88 90 92 94 95 97 96 97 98 99 98
38 36 52 65 66 71 62 65 49 39 30 28 34 37 49 60 69 71 74 77 74 74 77 80 84 85 82 81 82 81 81 83 86 89 90 92 94 92 91 92 93 94 95 96 96 96 96 98 99
43 44 51 50 65 67 66 54 47 37 34 35 37 38 41 60 60 66 67 70 70 71 71 75 78 80 81 81 81 79 84 85 88 91 93 93 92 90 89 88 91 94 95 98 97 96 99 99 99
37 44 47 66 59 77 70 48 34 38 36 38 37 31 36 54 55 60 64 68 71 70 68 69 71 75 76 80 81 82 80 78 81 82 80 81 81 82 86 88 92 96 98 98 98 99 99 98 99

GFSSGP_sfc_rhum_069.txt.gz
RH
56 44 31 20 18 21 22 20 23 20 26 25 50 45 41 51 44 44 74 79 84 81 76 77 89 89 88 89 89 87 87 86 86 86 87 86 85 83 80 79 77 75 72 70 72 72 72 71 73
39 34 24 23 21 20 18 20 19 17 25 43 53 59 53 43 62 73 75 78 85 78 72 73 90 88 89 88 88 87 86 85 85 86 86 85 82 80 79 78 76 74 72 66 66 68 72 76 78
27 22 21 24 27 20 20 20 17 17 20 42 48 59 56 50 64 70 80 77 88 86 72 77 84 85 87 88 88 87 86 85 85 85 84 82 81 80 79 78 76 74 72 68 67 70 75 80 83
24 20 22 23 23 22 20 17 19 18 33 46 56 53 61 60 71 80 76 77 86 94 88 83 90 88 85 88 87 87 87 86 86 84 82 81 81 80 79 78 76 74 68 72 71 75 78 82 83
24 23 26 26 24 22 21 19 18 28 39 44 53 45 53 62 76 75 79 79 83 93 86 85 91 87 84 84 87 88 87 86 84 83 81 81 80 79 79 80 78 77 77 77 76 78 79 80 82
21 24 25 23 22 21 20 18 27 39 38 45 50 52 52 75 74 76 81 85 84 95 94 86 85 89 87 85 87 87 88 86 84 82 80 81 80 80 80 77 76 78 81 84 81 78 78 79 80
23 23 23 25 24 22 16 35 36 36 41 40 54 60 62 65 76 76 81 94 88 91 94 94 83 81 90 89 91 88 89 86 84 82 81 82 81 82 79 76 77 81 85 84 82 81 81 80 80
23 23 30 26 23 19 15 35 44 43 38 54 56 56 58 76 76 78 87 93 96 93 88 92 90 93 86 88 88 87 87 86 83 84 84 84 85 83 80 80 84 84 84 82 80 82 81 81 82
21 24 26 23 24 17 16 24 48 48 48 58 68 76 81 80 78 87 90 92 93 93 91 95 95 98 98 95 91 92 89 89 79 83 87 83 73 74 65 71 86 85 82 80 81 82 82 82 82
21 26 24 19 18 15 15 20 32 46 52 52 70 84 82 82 79 87 92 90 92 94 97 97 98 98 98 97 96 95 94 91 84 83 77 73 81 68 61 74 84 83 83 82 82 83 83 66 52
24 22 21 18 16 16 17 32 45 49 43 44 52 72 80 83 80 79 89 91 87 97 99 95 97 96 96 98 97 97 96 93 92 84 86 77 68 69 66 66 65 69 76 60 64 65 49 56 52
23 20 18 16 16 21 22 39 49 51 40 55 62 68 80 81 80 80 84 89 93 93 96 96 96 98 98 97 92 97 88 95 94 85 81 72 69 71 68 58 57 62 62 67 65 55 61 60 56
22 18 17 16 19 23 36 33 38 53 52 69 73 75 81 79 84 82 80 86 92 91 97 99 95 96 96 94 92 91 85 79 92 90 76 65 66 69 57 62 55 50 53 56 55 55 54 56 57
20 19 20 22 21 24 32 38 54 41 51 75 81 80 77 80 83 79 82 85 90 91 96 98 99 96 95 94 92 95 93 87 93 91 82 74 67 67 57 56 52 50 47 49 48 50 48 47 50
23 26 22 20 20 25 44 38 52 43 64 69 77 76 78 77 80 78 71 78 82 91 95 95 99 97 95 95 90 92 95 94 92 92 91 80 70 68 60 54 55 56 53 51 49 49 46 43 40
26 28 26 18 26 42 37 31 22 37 58 61 73 76 80 78 75 73 73 77 85 88 90 86 97 97 94 93 90 95 96 95 93 96 92 82 69 68 63 56 56 60 58 50 48 48 44 43 40
34 28 29 22 21 41 33 28 28 63 62 57 65 72 78 78 77 76 78 74 75 84 86 94 97 98 97 97 96 95 97 94 96 98 93 78 70 68 61 58 60 66 66 61 55 54 49 48 44
25 34 31 25 23 27 35 28 24 34 60 57 56 67 74 79 76 74 77 75 72 84 90 94 96 98 98 98 97 96 95 94 95 97 93 79 65 66 71 69 69 68 70 65 63 64 60 51 47
27 30 27 26 24 23 25 27 23 29 57 59 59 63 69 79 71 74 75 75 73 82 87 91 96 97 96 94 92 96 96 93 94 94 91 80 72 69 74 75 74 76 72 70 72 70 74 64 60
30 32 30 26 26 27 22 26 22 34 43 45 46 57 65 75 80 79 72 78 80 82 83 86 91 92 89 86 82 83 87 88 88 90 91 84 78 69 73 77 73 72 80 82 83 82 77 79 71
34 33 31 28 27 25 30 30 25 23 43 49 54 51 55 67 84 86 77 77 82 79 84 83 85 87 84 86 89 92 94 94 94 95 95 90 81 76 77 82 79 83 84 86 89 88 79 76 78
38 30 28 31 30 26 32 36 32 23 25 37 38 52 55 63 70 77 79 74 78 78 77 78 78 78 74 78 85 90 80 88 86 86 85 90 90 86 80 81 87 91 88 88 91 87 79 76 78
29 31 32 31 33 35 30 36 32 33 26 22 24 37 47 54 64 73 76 72 71 74 78 76 76 75 73 71 71 77 81 76 83 83 85 83 87 87 83 80 90 86 91 90 84 86 83 81 77
28 30 35 42 42 50 38 34 33 27 26 24 22 26 37 52 60 66 70 71 72 71 81 78 77 76 74 73 71 71 72 74 72 72 70 75 78 79 81 77 77 80 76 81 83 83 82 82 82
30 36 45 55 58 50 38 38 32 27 23 24 23 22 26 45 58 66 73 76 76 79 84 75 73 76 78 75 73 73 70 71 69 69 64 73 71 68 71 74 75 75 76 76 77 81 83 83 85
38 36 48 47 57 45 41 43 30 27 26 26 23 25 30 38 55 61 67 72 76 82 84 76 75 77 79 77 73 71 70 65 64 64 59 62 60 59 63 70 68 69 70 74 76 80 82 84 90
43 45 35 47 54 56 40 37 31 29 28 26 25 26 25 30 47 55 62 68 72 77 79 79 78 79 80 77 74 73 71 71 69 68 70 70 68 66 66 68 70 71 72 73 76 80 82 86 86
34 34 49 53 52 51 42 46 32 30 23 22 24 26 27 29 44 53 58 67 66 70 74 77 77 82 78 73 74 72 72 71 70 72 71 69 70 68 67 67 68 66 68 72 75 79 79 85 88
38 39 43 41 50 47 48 38 39 32 28 28 31 28 32 31 38 50 54 59 62 64 68 74 72 73 77 77 77 75 76 75 74 74 73 72 74 75 75 70 68 66 68 72 77 78 80 89 89
30 36 39 52 47 58 55 42 28 36 34 31 30 33 31 27 32 44 52 56 61 64 64 67 68 69 73 79 80 81 79 76 76 76 74 76 74 74 73 74 72 68 70 77 87 95 97 98 98

GFSSGP_sfc_rhum_072.txt.gz
RH
40 23 18 15 14 12 12 12 12 13 16 16 25 25 21 23 25 28 48 60 64 57 55 69 91 90 89 88 88 88 87 87 85 85 85 86 86 85 84 82 79 77 76 74 72 73 73 75 75
19 23 17 12 14 11 11 12 13 13 13 19 28 32 31 30 35 40 51 61 67 52 55 60 90 86 90 89 88 87 87 86 85 85 86 85 85 84 83 81 79 78 77 72 71 71 73 75 78
18 16 14 13 12 11 11 13 12 13 14 18 25 33 31 34 42 50 62 63 71 63 55 55 83 83 84 89 88 87 87 86 86 86 86 84 83 81 81 79 77 76 75 70 67 68 76 78 82
14 13 13 14 13 13 12 12 12 12 19 22 24 24 37 39 45 54 59 60 64 83 59 75 92 92 92 94 88 88 87 87 87 86 84 83 82 81 80 78 76 74 72 68 68 75 79 82 83
14 12 12 13 12 13 12 12 12 13 21 23 28 20 31 45 51 55 58 59 66 88 79 81 90 87 85 92 86 88 88 88 87 84 83 82 82 81 80 78 76 74 75 73 73 78 80 82 83
14 13 12 10 12 12 12 12 13 16 19 25 28 27 29 47 50 57 62 66 73 90 80 68 82 87 84 77 89 89 89 88 86 84 83 83 82 81 80 78 77 78 80 80 79 80 80 81 81
13 12 10 10 11 14 13 15 18 17 17 17 24 30 34 48 54 55 60 73 76 93 92 75 70 70 92 89 82 84 89 87 85 84 83 83 84 83 83 82 82 82 84 83 80 81 82 80 80
12 12 12 11 11 13 11 14 18 19 16 32 27 26 29 49 51 56 64 86 81 88 94 89 74 68 63 72 93 88 80 88 86 86 85 86 84 81 81 83 86 87 85 82 81 83 82 81 82
13 13 12 10 11 11 10 14 16 24 22 35 36 38 46 56 56 60 73 84 91 88 86 91 83 82 85 85 80 83 82 87 89 84 87 85 65 59 63 70 89 87 84 82 83 83 83 83 82
13 12 10 9 9 11 11 15 16 20 18 25 31 44 58 58 54 57 66 72 78 81 78 77 83 83 90 98 94 96 93 88 88 85 80 76 69 57 47 74 89 86 83 83 84 84 84 67 45
12 13 9 11 10 11 11 12 17 19 17 15 22 36 54 55 55 52 56 65 65 73 81 82 92 89 96 98 98 99 98 98 92 83 82 78 70 58 58 67 66 62 68 48 56 58 38 39 37
14 12 9 10 10 11 12 12 17 18 20 30 32 36 47 52 50 52 55 57 63 87 91 77 82 89 93 98 97 97 98 97 96 91 84 78 63 60 62 57 55 51 45 48 44 39 41 43 40
16 10 10 11 11 12 13 16 14 18 20 32 38 44 48 46 47 51 50 56 72 82 89 91 88 87 94 94 97 96 95 95 95 94 80 66 58 57 55 54 48 46 45 46 43 41 41 42 40
12 12 10 9 12 13 16 13 22 14 21 32 43 40 41 45 49 48 51 52 70 79 90 96 97 95 97 95 97 96 94 91 94 95 75 68 58 60 50 55 47 46 44 43 39 38 37 36 36
13 16 12 12 12 12 14 15 16 16 32 33 41 40 42 46 47 50 49 52 63 76 86 95 97 97 96 94 98 92 94 90 94 92 75 59 55 56 56 48 44 41 40 43 39 40 35 34 33
16 16 16 10 11 16 24 17 12 21 30 32 36 40 46 47 48 47 50 49 53 68 86 93 92 95 96 94 97 95 93 94 92 90 74 58 52 58 57 45 41 39 42 39 38 37 37 34 32
19 17 18 14 12 15 22 15 15 24 26 25 31 37 44 45 48 48 49 48 53 59 68 92 93 95 92 90 96 95 95 94 94 94 86 68 52 55 44 41 43 49 39 38 39 39 39 38 34
19 19 16 16 12 17 17 17 12 14 21 25 26 33 40 43 44 48 52 50 54 59 73 88 90 97 94 94 91 94 95 92 97 97 89 76 56 57 44 43 54 53 45 46 44 48 42 41 39
16 16 16 11 13 18 16 15 13 12 19 23 27 29 36 41 39 47 54 56 59 64 74 80 96 97 96 94 95 94 95 93 95 91 90 79 59 50 50 43 54 58 54 53 57 55 59 50 47
20 19 18 14 16 19 13 12 11 14 16 16 17 26 29 36 42 51 55 56 59 66 70 82 91 95 89 90 87 91 89 92 86 92 89 84 66 50 59 67 66 64 58 59 64 68 68 62 68
23 22 20 17 14 16 16 14 12 13 14 17 21 21 25 32 44 51 56 58 56 68 67 66 81 85 84 80 78 88 94 96 96 96 92 91 79 57 64 77 73 77 65 61 69 70 68 67 69
26 18 21 20 21 20 18 17 13 16 15 14 15 23 26 29 37 45 52 55 55 58 66 62 71 71 80 80 78 73 70 86 79 85 87 93 85 74 69 77 78 79 72 65 72 77 65 63 75
22 17 22 22 22 23 20 17 13 15 19 15 13 14 22 28 34 42 49 49 50 51 63 68 68 63 76 82 76 75 65 74 81 83 89 91 94 87 73 80 82 81 77 80 77 79 71 62 67
21 24 24 24 24 35 24 18 17 14 17 15 13 12 13 24 31 37 42 46 48 50 59 68 63 61 68 73 77 82 79 74 78 90 86 92 94 91 88 74 74 71 81 72 72 80 77 73 68
22 25 35 41 42 39 20 23 19 18 16 16 16 14 14 21 30 35 41 47 48 53 59 59 55 56 61 66 69 72 73 72 74 81 80 86 86 82 79 80 80 70 64 80 74 69 74 62 66
25 26 33 42 42 32 26 29 21 16 16 19 18 16 16 19 28 33 38 45 48 53 57 58 52 51 54 62 61 62 62 68 65 65 60 65 64 64 65 72 74 70 67 73 72 69 59 64 67
29 32 23 32 37 44 27 25 20 18 17 16 16 17 16 15 21 31 35 43 47 52 57 60 50 48 52 59 60 60 60 61 60 62 59 57 59 54 64 65 68 67 63 61 66 60 60 61 64
26 22 40 36 49 46 28 28 23 22 21 15 15 15 14 16 20 28 32 41 44 49 54 60 52 48 50 55 58 56 58 59 57 57 60 59 58 55 58 60 61 58 55 54 56 55 54 57 60
30 34 30 29 33 41 41 29 21 21 20 19 18 17 18 19 20 27 31 36 42 45 50 56 53 49 54 58 57 58 58 58 61 62 60 60 60 58 57 58 57 51 51 51 54 55 55 56 59
23 30 30 41 38 35 37 31 18 21 22 26 21 17 19 19 17 21 31 37 41 45 47 51 53 51 52 59 60 62 60 57 60 63 62 64 62 60 57 55 52 51 50 55 56 58 56 58 61

GFSSGP_sfc_rhum_075.txt.gz
RH
38 18 13 12 13 10 9 9 8 8 10 10 13 14 15 15 18 27 36 45 48 48 55 63 89 88 86 86 89 89 89 87 86 86 86 87 86 84 84 84 81 79 78 76 76 76 75 77 79
13 13 14 12 11 10 8 8 9 8 9 11 14 14 14 18 18 20 34 46 49 47 56 51 89 87 85 86 89 89 87 86 85 86 87 87 86 86 83 82 81 80 78 74 74 75 74 76 80
20 12 14 11 11 10 9 9 9 9 10 10 12 15 18 23 24 34 47 52 56 55 55 60 87 91 87 92 92 84 86 86 86 86 86 87 86 84 83 83 82 80 77 73 73 74 77 79 82
11 10 10 11 10 9 10 8 9 9 9 12 12 14 20 33 31 38 44 46 51 55 54 80 94 89 89 87 88 90 87 87 86 86 86 86 84 83 83 82 80 79 76 72 74 77 79 83 81
11 10 11 11 10 8 9 8 8 9 10 12 14 14 16 32 35 39 44 46 49 56 60 70 90 88 85 79 84 84 86 88 88 87 85 84 83 82 81 80 79 77 76 76 76 77 80 83 81
12 9 12 10 8 8 9 8 9 10 10 12 16 15 17 32 36 40 50 52 58 63 67 69 84 89 87 84 80 88 88 88 88 86 85 84 82 81 80 79 79 79 80 82 82 81 80 82 80
14 11 11 9 8 8 9 10 12 13 12 10 12 18 20 33 39 42 46 55 68 76 76 70 72 75 88 89 89 90 94 84 88 87 86 85 84 81 81 81 82 84 83 84 84 84 84 82 80
10 10 11 9 9 8 8 10 10 12 12 15 12 17 20 35 37 42 47 64 65 76 89 83 72 68 65 74 88 96 95 89 83 86 87 87 84 84 83 85 86 85 84 84 82 85 84 82 81
9 12 12 9 8 8 7 9 10 11 12 12 16 21 31 40 41 43 53 70 74 76 85 92 75 69 72 70 74 84 82 92 88 86 86 86 80 75 68 76 87 86 85 85 85 85 85 84 82
11 12 10 7 7 7 7 10 10 11 11 12 14 18 38 41 39 40 48 68 67 67 74 78 77 78 79 92 90 90 80 78 92 83 77 89 79 70 66 87 88 86 86 86 86 86 85 65 43
11 12 9 7 7 7 7 8 8 11 13 11 16 14 30 40 37 36 37 55 58 65 63 64 70 76 86 81 84 91 93 96 92 91 87 92 88 66 83 87 70 69 69 54 59 64 42 39 37
11 10 8 8 6 8 9 8 9 11 13 11 18 19 27 35 34 32 38 41 58 63 69 65 66 76 79 80 97 95 93 98 96 93 93 94 95 69 74 76 58 51 43 50 46 43 40 40 38
11 9 8 7 7 7 9 9 10 13 9 9 16 24 28 31 29 30 34 39 52 65 80 73 75 77 78 83 97 98 97 98 95 96 93 95 91 73 73 66 54 45 43 44 43 38 38 39 39
10 9 9 8 8 8 9 9 9 10 9 12 18 25 24 29 28 28 34 36 55 63 82 87 80 87 91 85 88 96 98 97 97 96 95 93 82 70 64 64 54 47 44 40 38 39 38 36 37
11 12 10 10 9 8 9 11 10 9 8 12 15 25 24 28 29 29 31 35 40 65 80 90 92 85 90 86 94 94 96 96 97 95 94 88 70 65 63 57 49 46 45 46 41 40 35 33 32
15 15 17 11 9 8 9 15 9 9 15 17 19 24 27 29 31 29 34 35 37 52 74 84 88 96 93 95 98 95 94 95 97 96 93 79 63 60 61 52 50 46 51 42 38 36 34 34 34
18 18 16 14 9 10 12 15 9 13 15 16 19 22 27 29 32 31 34 34 37 47 62 80 95 96 97 97 97 95 92 92 93 94 89 77 64 60 52 48 47 58 51 46 40 40 37 37 36
20 17 16 15 10 10 12 15 11 11 14 17 16 20 25 29 31 32 36 34 37 43 59 79 92 90 95 98 95 95 96 94 92 93 82 62 54 57 52 47 59 55 46 44 40 46 40 39 36
17 16 15 12 10 12 14 12 10 10 10 14 15 17 22 27 26 30 39 39 42 48 58 66 89 92 92 96 98 97 97 93 92 93 79 73 52 51 53 45 52 51 43 44 51 47 52 45 42
20 20 18 14 11 15 13 12 9 8 10 10 12 14 18 23 27 32 41 44 48 50 59 73 84 80 87 89 86 88 85 87 85 90 85 74 70 53 52 54 56 54 48 57 60 60 56 53 54
22 24 21 18 13 13 15 15 12 9 9 10 10 12 13 18 26 32 40 46 50 50 58 59 77 88 78 78 78 82 88 89 90 92 92 85 76 62 48 52 59 65 64 64 68 66 64 74 64
28 18 18 18 19 21 13 19 13 10 9 10 12 14 14 16 20 29 37 43 47 49 51 60 72 81 83 80 87 92 87 94 86 88 86 92 85 74 51 57 66 73 65 73 67 64 66 76 84
25 19 18 18 22 23 19 19 16 12 11 11 12 11 12 16 20 28 35 38 41 45 51 51 69 70 80 82 84 86 84 82 84 93 88 87 92 81 65 67 78 81 73 83 79 77 70 75 81
19 19 20 19 23 31 22 21 19 13 13 13 11 10 10 14 19 24 30 35 38 42 50 53 65 66 69 72 70 76 74 76 83 90 92 86 93 92 80 71 75 82 83 83 77 72 77 79 76
19 24 36 39 38 37 19 22 21 14 13 13 13 12 11 13 19 23 30 35 38 44 50 53 53 55 68 73 72 73 67 68 73 73 84 87 83 89 88 77 74 73 74 73 72 74 76 79 82
24 25 34 47 48 33 19 24 17 13 12 12 12 12 11 15 19 21 26 34 37 43 47 51 48 47 52 68 70 72 67 62 60 66 61 65 72 76 79 82 75 70 72 68 71 71 72 78 76
34 30 20 30 36 43 29 21 16 15 15 13 14 14 13 13 14 20 23 31 36 42 48 51 44 42 44 55 61 65 66 65 66 64 67 65 63 58 69 74 75 73 71 68 68 76 73 73 74
27 25 34 30 52 52 31 25 28 20 18 15 14 14 14 12 14 16 22 28 34 38 44 51 46 41 41 47 53 54 57 60 64 64 66 67 67 66 71 72 69 68 67 65 64 63 64 74 78
28 31 33 29 31 46 49 32 18 18 17 18 17 16 15 16 16 18 22 24 31 35 41 47 48 40 42 47 50 53 54 55 59 63 63 63 64 64 63 66 63 60 60 60 62 61 61 64 67
24 25 31 44 44 36 38 34 17 18 21 20 21 19 16 16 14 15 20 23 28 34 38 44 47 44 41 47 53 57 56 54 57 59 60 64 61 60 58 58 60 58 57 59 62 63 58 62 60

GFSSGP_sfc_rhum_078.txt.gz
RH
42 21 17 17 19 15 13 9 8 8 8 10 11 13 14 13 16 32 43 46 45 58 75 72 89 88 90 90 91 91 90 88 86 88 89 88 87 86 85 83 82 81 80 77 75 76 76 79 83
16 12 15 16 22 16 11 8 9 8 9 10 11 12 12 17 23 22 43 48 49 46 60 68 86 85 87 89 87 84 85 86 86 87 88 87 86 86 85 84 83 81 80 76 77 78 77 80 85
25 16 17 18 17 16 12 8 8 8 9 10 10 9 14 22 28 31 45 49 52 53 58 74 91 90 88 86 87 89 90 88 87 86 87 86 86 85 85 85 83 81 80 77 76 76 80 82 82
16 13 13 16 14 10 9 8 8 8 8 10 12 14 19 22 24 33 36 41 50 59 60 91 92 88 84 84 85 88 91 97 88 86 86 86 85 85 86 84 81 80 80 77 77 78 80 82 81
12 12 16 16 13 9 7 8 8 8 8 9 12 15 17 33 30 35 41 43 50 63 66 80 91 90 83 83 83 81 86 94 90 85 87 86 85 85 85 83 80 80 81 79 78 79 81 80 78
14 13 17 14 10 7 8 8 8 8 8 9 11 14 20 32 32 45 50 52 61 65 72 74 85 90 88 84 83 80 85 92 93 85 86 86 85 85 84 82 81 81 84 83 82 82 81 80 82
16 15 15 13 11 9 7 8 10 11 12 11 12 16 19 35 38 41 47 60 69 76 81 85 80 79 92 89 89 87 89 92 95 86 87 86 86 84 83 83 84 86 84 84 84 84 83 82 79
12 13 15 12 11 10 7 10 10 10 12 11 10 14 21 42 37 44 52 67 67 82 86 85 84 83 80 87 90 92 92 92 94 85 88 87 85 85 86 86 86 87 86 85 84 86 84 82 78
10 15 15 12 10 8 7 9 9 8 11 10 10 14 21 37 38 44 56 74 73 78 82 90 89 84 84 87 92 90 90 91 98 85 88 89 81 82 84 83 87 87 87 87 86 86 86 82 75
12 16 13 8 8 8 7 7 9 10 10 11 12 13 34 36 37 42 52 63 70 73 85 86 88 84 84 89 90 91 92 96 98 97 88 87 88 86 81 88 88 88 88 88 88 86 82 68 65
12 14 11 9 8 7 8 7 7 9 12 11 13 18 35 37 36 36 35 55 60 65 78 82 85 85 87 91 93 91 95 95 97 98 96 93 94 92 91 88 84 88 86 80 82 78 59 57 58
12 9 10 9 8 8 8 8 8 8 13 11 12 15 19 21 32 32 34 41 56 69 72 72 83 86 87 92 94 93 94 96 98 98 93 94 97 95 96 91 79 72 68 72 74 66 62 57 54
11 9 8 8 8 8 8 8 9 12 9 9 8 13 22 22 26 28 30 38 61 66 76 80 82 84 85 88 95 97 98 97 96 96 93 92 94 91 84 88 62 58 61 61 61 60 54 58 54
10 9 8 8 9 9 9 9 8 10 8 8 9 16 21 22 27 27 34 37 58 66 80 84 87 87 86 91 94 99 98 98 95 96 94 92 94 92 80 82 57 60 56 55 56 60 61 59 57
12 14 11 10 9 10 9 10 10 10 8 8 9 13 20 22 26 29 32 37 54 64 76 85 89 89 89 87 92 94 98 98 96 95 96 94 93 87 78 75 61 61 55 55 64 60 60 60 53
15 16 19 12 10 10 10 16 10 8 8 9 11 13 22 23 26 28 30 35 46 60 76 82 89 91 93 91 94 94 95 96 97 96 96 95 90 82 76 72 65 64 60 56 61 61 60 61 60
22 24 21 16 11 11 11 13 9 9 11 14 15 17 23 26 28 30 31 37 37 53 70 79 92 96 94 93 97 94 94 96 95 95 94 89 86 74 73 81 73 79 58 66 54 63 61 62 61
26 23 20 19 12 11 12 12 11 11 13 16 14 18 22 27 28 30 32 37 36 53 72 74 93 97 98 98 97 96 96 96 94 94 90 85 80 75 78 80 84 83 80 70 66 62 60 61 58
21 22 22 16 12 13 15 13 11 11 11 15 17 17 20 26 26 31 37 42 45 58 70 79 94 97 97 98 98 98 97 94 96 92 90 87 73 70 72 68 75 74 69 64 66 68 64 66 64
18 21 23 19 14 13 13 13 11 10 11 11 12 16 17 22 25 32 40 45 51 59 68 82 86 91 93 91 88 89 91 89 85 88 79 76 72 64 65 68 67 66 64 67 71 68 72 71 71
21 26 26 23 18 15 15 16 15 12 10 10 10 10 13 19 26 33 42 50 54 60 65 69 76 85 89 85 84 87 91 92 91 94 89 85 80 63 60 69 67 68 68 71 74 75 74 82 76
41 25 24 22 25 31 17 24 16 13 13 12 11 13 14 14 22 30 40 49 56 57 64 65 77 76 84 86 88 90 90 95 88 86 84 83 84 79 61 69 74 78 78 78 75 75 79 88 89
51 33 33 36 26 28 22 24 19 14 14 12 12 13 16 16 19 27 37 43 48 54 64 64 73 73 79 84 84 88 88 82 80 88 91 88 88 87 80 67 80 80 82 85 82 84 88 91 91
38 36 40 36 29 38 26 26 25 18 16 12 11 13 14 16 18 23 33 39 44 52 61 66 71 75 77 82 86 82 83 84 82 90 94 95 91 88 86 76 80 86 84 88 87 81 89 93 85
39 39 75 66 49 47 23 26 24 17 14 13 15 17 15 16 20 24 32 38 44 54 61 62 70 70 77 84 86 86 83 81 88 83 84 85 89 89 82 82 81 81 80 81 88 91 90 88 87
41 38 81 70 60 43 23 29 21 15 13 12 12 17 16 17 24 24 29 38 42 52 59 60 64 66 73 82 82 82 79 80 80 84 80 75 75 80 75 80 79 78 76 76 80 82 87 86 88
57 53 45 66 61 84 42 22 16 14 14 13 13 15 16 17 20 22 24 37 41 49 58 61 56 58 62 72 74 77 76 76 80 80 79 79 73 65 69 74 80 78 73 72 73 78 80 82 83
46 34 51 60 74 84 46 39 25 21 20 16 16 18 18 17 19 23 23 36 39 46 54 62 56 54 54 71 73 69 69 74 72 72 76 77 78 74 65 69 78 80 74 71 72 70 71 78 78
43 46 58 58 59 68 63 44 29 28 21 24 24 22 23 23 22 23 25 30 37 42 48 57 56 49 53 61 70 72 73 73 71 72 74 72 73 75 74 72 75 77 76 72 71 70 69 74 74
34 39 40 72 80 54 64 52 28 27 24 24 25 20 21 22 21 21 24 28 33 40 45 52 55 52 49 56 62 68 70 70 72 74 73 74 74 72 70 70 76 76 73 73 74 72 64 70 72

GFSSGP_sfc_rhum_081.txt.gz
RH
67 50 37 34 41 37 34 22 14 13 19 19 16 17 22 22 38 66 61 58 78 86 90 88 93 93 90 90 90 90 90 88 89 90 89 87 86 86 85 83 81 80 79 76 75 74 75 81 85
38 24 28 34 41 49 34 16 15 15 14 13 14 17 19 35 38 62 66 61 64 81 82 86 91 92 92 91 90 90 89 88 90 89 88 87 86 86 84 85 84 83 81 74 73 76 76 84 85
37 24 36 38 43 38 32 15 13 13 12 12 16 15 22 45 40 59 62 64 64 75 79 83 91 92 92 92 89 88 87 88 87 89 88 86 86 86 87 86 84 81 79 76 76 74 81 85 84
28 32 27 31 31 22 19 14 12 12 13 13 15 22 37 37 40 56 53 58 66 73 84 94 92 93 88 87 88 89 91 94 93 94 87 86 86 86 86 86 84 82 81 78 74 79 83 85 87
25 29 34 40 27 18 14 11 11 12 13 16 17 21 41 46 47 50 57 53 66 78 93 92 92 92 86 85 84 87 87 86 85 91 94 85 86 86 87 85 83 83 81 80 79 82 82 83 84
29 26 37 38 24 15 12 12 11 12 12 15 15 22 50 47 54 62 62 69 71 85 92 88 90 90 88 86 86 87 86 83 83 88 95 86 86 86 86 83 83 84 83 81 84 82 81 84 80
35 36 36 29 21 16 11 13 14 15 17 18 16 22 55 54 58 60 71 80 82 88 92 94 90 90 91 88 87 88 86 86 87 84 91 92 89 87 85 84 87 87 86 85 84 82 84 81 79
27 29 30 25 22 18 12 15 13 14 17 15 14 20 66 56 54 70 78 79 84 88 88 93 92 94 97 96 89 89 87 87 87 85 90 92 90 87 86 88 88 87 87 86 84 84 84 80 77
24 30 28 25 20 15 11 16 15 13 14 18 15 17 39 50 57 72 87 86 93 91 92 94 92 92 96 97 93 91 88 90 89 88 92 92 87 89 87 87 88 87 87 87 86 86 83 78 74
24 31 23 18 15 14 11 12 15 16 17 18 16 46 50 50 53 64 83 93 90 91 92 96 95 94 94 95 96 97 95 96 97 98 98 94 94 90 89 90 90 89 89 89 87 85 80 69 67
24 24 18 16 13 13 14 11 13 14 17 16 22 52 53 52 52 52 62 79 83 84 95 95 96 94 95 97 98 98 99 98 98 98 98 96 95 93 95 91 90 90 91 86 81 74 67 65 68
24 17 15 14 12 12 13 12 12 15 16 16 17 36 50 51 50 48 55 72 83 84 90 94 94 94 95 97 98 98 99 97 98 99 98 96 97 96 96 94 89 88 94 92 83 74 65 63 60
21 16 13 12 11 12 11 13 12 16 13 12 12 20 27 31 44 42 45 70 87 89 90 94 88 90 93 93 98 99 99 97 95 98 96 95 96 95 93 91 82 77 78 75 72 74 59 60 58
19 18 16 12 12 11 13 14 16 13 13 11 10 13 31 30 34 42 60 74 82 88 93 95 93 92 96 97 99 100 99 98 98 96 94 92 95 94 89 78 69 71 69 62 64 67 63 63 61
19 21 18 18 16 16 13 17 15 14 12 13 12 15 29 30 35 42 46 78 78 90 95 96 95 92 96 98 98 99 99 98 97 95 91 92 95 94 79 67 69 65 70 57 60 66 68 68 62
27 27 28 18 16 14 18 20 14 13 12 12 13 14 27 30 36 40 46 66 81 93 95 97 92 93 94 98 99 98 98 98 97 96 92 91 94 88 80 59 66 63 72 58 67 64 66 69 67
38 41 33 25 18 16 17 18 13 12 12 16 17 18 32 34 41 41 47 74 77 90 95 97 97 95 96 95 98 98 96 96 97 95 94 90 94 90 82 67 72 69 70 66 65 63 62 66 72
43 37 34 30 21 18 19 18 15 14 17 18 20 23 34 36 41 40 48 56 79 87 92 97 96 97 98 96 96 98 97 97 96 95 93 89 81 80 81 86 91 82 84 75 65 60 68 64 63
30 32 31 26 20 21 22 21 16 14 18 21 23 23 34 35 38 39 46 51 76 86 93 96 96 98 98 98 98 98 98 97 96 92 91 87 77 78 73 85 91 91 83 68 62 69 64 66 65
25 29 28 23 19 19 22 24 17 17 17 18 24 24 30 35 41 41 51 57 75 86 94 94 91 97 97 96 93 90 92 91 88 88 82 88 84 72 73 81 87 81 73 73 72 65 76 67 72
32 32 30 32 20 21 27 31 23 17 17 16 16 20 22 34 40 45 52 58 80 89 95 95 86 94 90 91 89 90 90 95 96 95 90 91 85 74 68 75 76 72 72 67 70 68 70 77 78
41 32 41 51 72 77 51 57 33 20 17 15 14 16 17 30 36 45 53 58 72 84 92 93 95 93 88 89 91 94 94 95 92 88 82 82 86 79 66 76 70 76 74 67 69 67 61 85 84
46 49 55 72 88 72 62 53 35 22 23 18 15 14 17 22 38 48 54 56 61 72 82 86 93 88 88 88 89 91 92 87 84 90 86 84 91 86 77 79 84 77 86 86 80 79 83 90 86
59 74 64 75 88 98 76 57 40 26 21 19 17 15 16 20 36 45 51 58 59 72 74 87 89 83 88 87 87 87 89 88 88 89 90 86 90 95 90 78 79 76 89 92 88 91 89 88 89
74 92 99 99 98 92 45 49 36 24 19 19 20 19 17 21 36 46 55 61 63 75 74 87 85 82 86 87 88 87 86 84 83 85 84 84 85 83 83 90 86 81 85 92 90 91 91 93 90
69 87 96 88 93 76 34 42 30 20 17 17 18 18 18 26 34 45 51 55 62 68 75 72 83 88 81 85 86 81 83 82 80 82 81 82 82 78 67 84 83 83 85 86 90 92 89 91 91
55 72 66 84 96 97 77 40 21 19 18 18 18 18 25 33 33 44 47 51 58 66 72 75 79 78 85 83 80 85 90 87 85 79 79 80 79 79 77 72 91 84 82 82 84 84 90 89 87
41 46 80 97 96 96 56 64 53 29 24 22 23 25 26 28 29 34 45 49 54 63 66 68 77 76 79 88 85 83 85 85 82 84 84 80 77 77 82 79 78 82 80 78 78 77 77 83 84
54 60 92 93 82 98 97 82 61 75 35 32 31 28 30 31 30 28 36 46 50 60 65 66 67 71 71 83 83 79 81 79 81 81 83 80 79 76 73 78 80 79 83 79 78 73 70 77 75
44 64 70 99 94 76 92 90 73 80 54 32 26 26 28 27 28 26 31 49 54 58 64 66 62 62 64 76 80 80 77 73 74 80 79 80 81 80 80 74 72 74 78 82 79 78 69 71 74

GFSSGP_sfc_rhum_084.txt.gz
RH
76 53 37 36 42 42 43 28 19 17 24 21 18 17 20 26 34 42 65 80 85 92 94 93 94 92 92 91 91 91 91 91 90 89 88 87 87 87 86 85 84 83 82 78 77 79 79 81 87
45 31 32 41 46 54 40 28 21 18 18 17 17 18 21 54 64 72 71 80 82 88 94 96 95 92 92 91 91 91 89 90 90 88 88 87 87 86 85 84 83 82 81 77 74 77 78 86 87
33 28 39 44 54 51 40 22 16 15 15 13 16 17 31 49 65 68 69 76 87 88 89 91 95 94 93 92 92 91 90 91 91 88 84 85 86 85 86 86 85 83 77 68 74 76 84 86 86
30 36 37 37 42 35 30 24 17 15 15 16 16 38 41 43 60 62 67 70 85 89 88 94 95 97 94 95 93 93 92 91 87 84 80 88 81 86 88 88 84 80 78 76 77 82 86 88 85
30 34 42 47 35 26 21 18 16 14 15 18 18 24 53 58 59 62 68 68 85 97 96 96 98 94 93 92 91 91 90 89 88 88 85 89 89 85 88 87 84 82 80 78 81 85 88 90 84
31 32 42 45 32 23 19 16 15 12 15 19 20 34 59 58 62 68 73 83 90 98 97 95 94 91 90 90 91 92 91 92 88 84 81 90 89 87 87 86 83 83 81 83 86 86 86 83 82
37 42 42 38 30 25 20 16 15 16 18 19 18 40 62 61 67 70 79 91 94 96 97 97 96 92 91 91 90 93 93 88 85 87 89 89 92 86 83 85 85 85 85 87 86 87 82 81 80
33 37 49 37 30 28 18 13 16 17 19 16 15 54 68 62 70 81 86 90 93 96 97 97 96 94 97 96 90 90 91 89 88 89 91 92 95 92 83 88 88 86 86 86 85 85 82 81 80
29 41 44 37 27 23 17 15 14 14 16 20 18 27 41 59 76 87 90 93 95 92 96 98 96 94 96 97 94 89 88 89 87 88 89 91 86 93 78 91 90 89 87 86 88 84 84 81 81
35 41 33 26 21 21 16 17 15 16 18 19 32 62 60 66 75 86 92 93 94 94 95 97 95 97 98 97 98 98 94 95 96 94 93 95 92 90 90 92 91 90 90 88 87 84 81 73 68
33 35 25 22 19 18 18 18 15 15 18 18 24 66 62 62 67 80 86 88 90 92 97 97 97 97 98 97 99 99 100 99 98 97 92 94 92 95 96 94 92 91 90 92 86 80 69 69 66
36 27 23 21 18 18 18 15 15 14 16 15 27 56 58 60 62 64 76 90 93 94 96 97 97 97 97 99 98 98 98 99 99 98 98 96 98 97 95 92 89 92 96 95 93 83 72 70 66
33 28 23 20 17 16 15 15 14 16 16 15 15 53 58 56 57 55 62 78 93 95 98 99 97 97 95 96 98 99 97 98 97 98 98 97 97 96 93 92 88 85 87 87 86 76 67 67 67
25 24 22 19 18 16 16 15 17 16 15 13 12 36 51 55 55 55 77 87 89 95 98 98 97 96 95 97 97 99 97 98 99 96 97 96 96 94 91 88 84 82 76 73 68 68 69 63 64
25 29 25 22 19 21 17 19 18 16 15 14 13 12 28 36 44 53 69 84 88 94 96 97 98 96 97 98 97 99 97 98 97 98 95 95 93 93 87 82 80 77 70 65 68 72 70 66 67
34 34 37 25 24 20 20 24 18 15 16 15 15 15 22 36 37 54 74 82 88 96 96 97 95 97 99 97 98 99 99 99 97 98 95 94 92 88 78 72 74 73 70 69 78 70 73 68 74
46 47 40 33 25 24 22 24 18 16 16 15 16 15 19 37 44 51 72 84 92 95 98 95 96 97 98 98 98 99 98 99 98 97 95 93 92 86 74 66 73 75 64 77 75 80 68 69 72
52 46 48 42 30 25 28 26 22 17 17 16 17 19 28 34 44 46 71 84 93 96 97 97 95 96 97 96 94 99 98 98 98 96 94 92 89 86 77 74 83 81 65 73 79 70 72 65 71
39 40 42 37 26 31 31 26 22 19 20 17 24 24 32 37 40 48 73 85 95 97 98 98 96 97 96 98 98 96 98 98 99 95 93 92 88 87 82 74 83 82 67 66 72 70 64 72 74
33 36 34 28 26 44 49 39 28 30 25 19 22 26 29 40 49 52 77 88 93 98 96 96 97 97 94 92 91 94 92 95 91 93 95 90 88 83 85 73 80 74 80 73 71 71 76 74 73
27 34 37 37 46 48 46 42 33 30 31 22 20 24 23 36 48 54 73 89 92 97 96 91 90 96 95 92 90 91 92 96 97 96 95 94 89 82 82 82 80 85 83 75 72 68 61 68 80
49 35 41 50 78 82 63 89 51 43 40 31 20 23 27 35 42 50 61 88 93 96 95 93 86 92 93 93 92 93 92 90 86 91 86 88 92 84 74 78 82 84 86 80 69 63 63 82 75
53 65 67 69 85 80 72 93 58 44 42 32 24 19 22 33 44 51 57 73 83 95 97 94 84 79 83 92 90 91 92 89 89 94 95 90 93 88 79 78 82 83 86 83 74 74 81 81 83
64 73 76 78 85 89 61 83 64 50 38 28 22 21 19 24 41 48 50 65 86 95 97 93 90 85 81 89 91 90 90 90 92 91 90 88 89 94 88 79 79 78 85 86 85 82 80 85 84
77 85 94 99 98 84 50 73 58 39 30 24 22 23 22 26 42 50 58 70 85 95 96 97 94 92 86 88 90 90 88 82 88 88 85 82 84 90 88 86 84 79 78 77 78 87 88 86 86
85 89 92 93 94 84 49 61 51 36 28 23 20 20 20 29 45 52 61 63 76 83 91 91 95 96 96 91 88 86 85 84 83 84 81 82 79 76 75 85 85 82 77 85 83 83 85 91 89
78 94 70 99 99 98 78 60 34 50 49 34 20 21 29 36 49 56 62 61 70 77 86 87 87 86 92 90 86 87 86 84 83 82 80 81 77 71 72 80 88 87 86 82 84 82 84 89 89
54 68 99 99 96 97 68 75 89 75 67 48 32 38 40 46 48 56 60 63 66 73 77 86 84 84 85 86 86 83 84 83 80 80 83 81 78 75 74 76 82 85 86 86 87 85 85 88 85
53 86 95 97 94 98 95 93 77 83 71 62 50 33 38 40 42 54 55 58 64 70 75 80 83 86 86 85 84 82 82 86 86 86 85 81 81 78 74 78 77 81 87 87 88 79 80 87 83
42 58 79 99 97 92 96 86 87 81 76 66 48 39 46 44 44 47 56 64 71 72 74 80 80 80 86 87 86 84 81 84 90 86 85 82 82 80 78 77 80 78 78 84 86 82 74 83 83

GFSSGP_sfc_rhum_090.txt.gz
RH
83 48 42 38 41 48 57 35 31 23 26 24 23 24 23 24 26 27 55 85 91 96 90 97 93 92 92 90 91 93 91 88 91 90 90 90 89 88 88 87 86 83 81 79 80 81 79 80 86
60 35 38 45 47 46 31 37 30 23 19 22 24 37 39 34 73 76 76 84 91 95 89 97 94 92 92 92 92 92 87 84 83 90 90 86 85 85 84 84 86 82 79 81 78 78 81 86 89
38 35 38 48 63 41 27 31 23 23 19 21 22 29 33 46 73 77 77 91 96 97 88 92 95 92 91 92 91 91 91 91 91 89 81 81 83 82 84 84 84 82 81 79 78 80 85 90 90
33 36 40 49 55 48 33 28 29 22 19 18 18 32 50 64 71 72 85 92 96 99 91 88 97 92 92 91 90 91 93 93 92 86 83 82 82 81 83 84 83 82 81 78 80 85 90 90 89
36 44 52 60 53 41 35 32 28 26 20 18 23 28 51 66 71 78 94 91 96 98 99 92 97 96 92 91 89 90 93 92 89 87 85 84 82 83 84 82 82 81 78 82 86 90 91 90 88
35 39 51 45 34 32 29 24 25 22 21 20 25 47 55 76 80 88 93 96 96 97 98 98 95 95 95 92 87 92 90 89 87 87 86 83 85 80 85 82 81 79 82 84 89 90 90 89 88
29 43 49 47 38 32 27 23 22 22 21 21 34 46 63 81 79 87 92 97 97 98 99 95 93 94 94 96 95 94 90 90 86 84 85 83 85 87 86 84 82 82 82 88 90 90 89 88 88
37 38 60 42 28 29 23 20 19 22 21 26 51 48 50 74 83 95 96 98 99 99 97 96 97 98 97 97 97 95 94 93 94 91 88 86 88 88 85 84 81 80 84 88 89 88 88 88 88
40 46 49 36 36 28 27 26 24 22 20 20 28 55 54 76 93 97 99 99 98 99 98 97 98 97 98 98 97 96 94 95 94 94 94 93 93 92 90 87 82 81 81 86 88 86 89 88 88
40 50 36 27 29 28 26 27 25 20 22 21 22 65 82 83 92 96 99 99 97 96 98 98 95 98 98 96 97 97 96 98 97 97 96 96 96 93 93 92 89 83 86 90 84 87 89 86 85
47 41 32 30 27 27 30 27 24 26 24 21 20 29 89 92 93 94 94 94 95 97 97 98 99 98 99 99 99 100 100 99 99 98 97 96 97 96 95 97 98 95 92 94 79 88 83 83 83
50 40 30 29 26 31 31 29 27 25 22 20 20 24 86 92 92 91 90 94 95 96 96 97 98 96 98 94 98 98 98 97 98 99 98 98 98 98 97 97 97 99 97 88 83 86 86 84 80
49 41 34 29 27 28 26 28 26 28 21 19 20 28 69 85 85 81 83 90 94 95 95 98 98 95 93 97 98 98 97 96 97 97 98 97 97 96 97 96 97 98 92 82 78 81 80 81 81
38 37 32 30 31 31 30 28 30 26 22 20 19 24 72 78 79 85 92 91 93 92 95 97 98 98 93 97 96 98 98 98 98 98 97 95 96 95 97 98 98 98 91 80 72 76 76 78 80
27 34 35 36 32 31 27 33 29 24 21 21 20 20 46 75 77 79 71 78 86 91 93 96 96 99 98 95 95 97 97 98 97 96 98 95 94 94 94 97 98 96 86 83 77 78 80 82 80
46 44 52 36 32 29 27 37 26 22 26 23 21 21 22 61 70 66 69 77 93 94 95 92 94 99 99 99 96 98 98 98 97 98 98 95 94 94 93 96 94 91 83 76 73 75 80 80 83
55 64 50 41 29 30 28 37 29 28 29 28 26 25 23 21 37 62 65 76 93 94 92 94 96 99 98 96 97 99 99 98 98 98 99 99 98 97 95 93 91 85 80 76 70 76 76 81 84
60 60 65 52 40 36 35 35 34 38 37 34 29 30 30 27 22 24 58 77 93 96 93 91 98 98 97 97 93 98 100 100 98 98 98 98 98 95 94 93 91 83 78 77 72 71 79 80 81
51 54 52 50 35 35 37 38 50 39 40 38 36 34 34 31 27 28 61 91 97 95 93 94 97 96 96 95 95 99 98 99 99 99 99 97 97 95 92 92 88 80 76 76 72 79 82 89 84
46 52 55 40 30 48 49 44 37 37 34 34 35 35 35 37 40 69 94 96 95 92 91 94 93 96 92 87 85 97 97 97 97 99 96 96 96 94 93 90 85 71 74 78 74 78 86 88 81
40 45 41 39 48 50 63 33 29 28 29 31 35 33 35 34 33 80 97 96 89 88 88 91 89 96 91 86 84 96 98 98 99 99 99 99 95 94 94 93 91 81 75 78 77 82 82 81 85
36 31 35 56 61 68 71 68 36 28 27 30 31 42 40 40 42 74 94 90 90 83 84 85 85 90 90 84 86 89 87 96 96 98 98 99 96 94 92 92 90 84 80 81 76 71 79 83 84
46 53 58 72 82 93 89 77 47 35 28 25 23 36 41 40 39 70 90 90 88 81 87 86 85 85 87 88 83 85 92 96 95 98 99 99 99 93 95 92 91 86 81 80 78 77 82 84 79
67 62 76 88 87 97 73 72 48 38 35 49 46 32 36 38 36 51 69 87 88 80 87 90 88 82 84 86 86 89 92 96 97 98 98 98 98 98 94 94 89 82 82 87 86 84 83 85 82
62 66 91 84 83 88 58 74 50 38 38 67 57 44 41 38 33 54 77 95 90 86 86 92 88 86 87 87 85 88 93 87 92 94 93 98 98 98 98 94 93 88 72 65 83 87 85 82 85
81 66 84 81 92 85 60 89 66 62 70 70 65 54 55 53 33 56 69 87 90 84 85 90 96 95 91 87 86 83 95 88 86 87 87 86 88 91 91 93 91 83 83 77 84 84 83 87 84
90 83 71 84 88 98 68 73 57 72 71 69 72 69 63 66 59 44 57 76 89 83 86 93 86 82 84 85 94 90 83 95 84 84 88 87 95 91 92 89 93 90 89 86 85 82 88 92 89
61 69 87 95 97 92 83 86 87 85 83 74 77 77 73 78 67 37 50 75 88 86 81 84 80 82 85 79 75 80 83 94 90 94 95 96 95 91 95 94 94 91 88 87 88 85 85 87 87
79 90 91 85 89 95 98 89 84 86 88 86 74 71 74 82 81 68 69 81 89 82 80 84 82 81 83 81 84 85 87 92 88 91 96 96 94 92 93 92 92 92 93 87 91 85 87 89 82
60 82 82 94 92 94 99 82 89 85 86 86 79 75 74 76 84 85 83 86 96 88 85 88 89 83 85 86 87 86 81 92 91 90 91 92 94 92 87 91 91 90 91 92 90 89 85 90 90

GFSSGP_sfc_rhum_093.txt.gz
RH
64 34 27 25 24 27 24 19 21 17 17 16 16 16 17 15 26 20 44 62 67 73 77 80 88 87 87 90 92 91 87 89 89 90 90 90 90 89 88 89 85 83 80 80 79 81 81 83 88
42 26 26 29 24 20 13 23 21 17 14 15 16 22 22 19 41 45 47 65 62 69 76 74 90 88 91 92 93 84 83 88 91 90 90 90 89 88 90 88 86 83 82 82 77 78 78 86 89
27 25 24 27 31 15 11 18 17 16 16 16 15 19 20 26 53 47 51 68 73 74 80 75 83 90 88 94 93 88 84 86 91 86 86 85 82 82 83 83 86 84 82 81 78 79 86 89 90
25 24 27 27 23 28 16 18 19 18 14 14 13 14 31 41 51 50 58 66 73 84 79 83 89 90 89 91 92 92 87 86 90 86 81 82 81 80 81 81 78 80 82 80 81 86 90 92 91
24 27 24 30 27 27 25 23 20 16 16 14 16 14 31 46 52 60 68 70 72 89 85 82 96 92 89 88 89 92 93 93 90 88 86 84 82 81 80 79 79 77 80 82 87 91 92 91 91
21 26 27 17 15 25 22 18 17 16 15 16 16 19 28 52 59 68 75 73 74 83 90 87 93 93 90 89 89 93 91 94 92 88 86 84 84 83 81 81 79 80 83 85 91 91 91 91 90
21 28 21 25 21 22 19 16 16 17 18 15 19 20 35 56 60 72 73 77 82 84 88 90 86 85 95 93 95 94 93 91 88 89 86 86 86 86 88 89 85 81 81 90 92 91 90 90 89
20 22 27 24 16 17 17 18 14 15 16 17 30 26 26 46 64 72 78 83 84 88 91 87 91 90 82 88 95 93 92 91 92 89 87 90 87 83 83 86 84 81 81 90 92 91 90 90 88
27 22 22 18 21 15 18 17 17 16 15 16 16 30 44 63 74 77 89 92 94 95 93 91 94 92 90 96 95 93 91 92 92 87 89 88 66 70 72 78 80 82 79 88 92 92 90 90 88
25 26 21 20 16 16 17 20 18 16 17 15 15 42 65 68 72 74 87 90 96 95 97 92 92 91 92 91 94 95 94 90 88 87 82 82 78 76 72 76 88 83 78 90 93 91 91 80 64
30 28 24 20 17 19 19 19 18 17 16 17 18 17 53 69 71 68 67 75 84 85 91 94 94 91 91 92 94 95 97 96 94 91 92 89 86 84 80 79 86 85 79 96 95 89 69 67 63
34 33 22 18 20 22 22 22 22 20 20 18 18 16 26 51 60 66 65 66 76 88 87 90 92 94 89 81 88 93 96 95 95 91 86 86 89 88 82 74 82 88 95 97 95 77 70 70 66
40 30 29 23 21 22 22 23 22 23 18 16 18 19 18 29 41 54 58 61 67 76 83 91 89 92 90 89 92 93 91 95 89 94 91 86 94 89 82 89 88 96 97 98 92 74 68 68 66
31 31 25 23 26 27 27 25 25 23 21 19 19 16 14 26 37 50 64 63 69 68 75 85 90 93 91 91 92 92 94 95 95 94 89 87 93 88 88 91 93 94 96 97 92 66 66 63 62
24 26 23 27 26 28 26 28 27 23 20 20 18 16 16 17 37 53 57 62 63 64 68 82 91 93 93 92 90 94 91 94 96 95 89 88 90 89 90 95 95 93 95 94 90 70 65 63 60
35 34 36 28 21 23 24 30 22 19 20 18 18 19 19 17 27 39 52 57 58 61 70 77 85 91 95 93 93 94 90 94 89 91 94 93 94 94 95 97 96 96 96 92 80 66 65 65 62
43 39 44 36 27 24 27 24 20 22 24 25 23 22 21 20 19 20 41 50 54 60 67 78 86 92 97 95 96 94 92 91 91 89 94 94 96 95 96 96 96 96 95 89 70 69 66 67 63
39 48 43 37 28 27 27 28 24 21 27 27 24 24 23 24 21 20 22 33 49 59 69 74 88 94 95 95 94 95 96 96 95 94 94 95 98 96 95 97 96 95 94 79 72 71 68 63 63
35 39 38 35 29 32 33 30 26 26 28 28 25 23 23 23 20 21 26 30 55 66 73 77 95 93 96 96 96 96 97 98 97 96 88 95 98 96 95 95 93 91 86 72 69 74 72 70 65
34 35 35 35 32 32 32 31 26 27 25 23 24 23 23 24 23 25 30 49 64 69 74 80 91 94 93 86 80 76 82 89 87 94 98 97 97 95 92 89 86 80 78 78 73 71 69 69 71
33 34 38 33 31 34 42 29 23 19 23 23 24 24 23 25 24 26 44 63 68 71 77 81 89 90 88 82 76 80 81 94 94 96 90 99 95 94 93 86 82 80 76 73 72 73 71 76 72
34 28 28 30 37 39 51 41 30 22 23 24 25 32 33 26 26 26 38 64 71 71 74 80 86 89 86 83 82 78 82 88 82 83 93 98 95 95 92 88 83 82 78 77 73 68 69 73 75
27 30 30 50 51 62 54 58 29 24 22 44 52 52 46 39 30 29 34 51 62 71 76 82 87 88 85 84 79 76 80 72 75 83 98 98 94 96 95 92 88 87 84 82 76 76 76 71 68
53 58 67 69 66 64 46 48 36 32 34 47 59 57 57 49 48 33 31 53 65 69 75 82 86 88 85 84 79 78 82 79 81 91 97 97 98 98 97 95 92 89 90 90 89 84 79 78 72
51 53 70 64 72 44 50 56 45 48 66 64 65 61 60 56 59 53 33 58 69 74 79 81 82 86 87 86 84 84 84 81 77 83 94 96 98 97 97 96 96 93 89 84 85 85 83 80 76
56 49 57 52 63 62 54 42 44 66 55 52 55 55 56 58 61 63 46 51 68 74 79 81 84 82 83 85 83 84 83 75 71 78 84 82 94 95 94 92 92 90 79 79 82 77 77 79 80
66 62 55 67 75 70 48 43 44 57 54 59 57 54 57 61 62 68 58 55 68 73 80 84 81 80 81 81 82 85 87 79 76 83 84 85 89 90 95 93 92 88 80 76 77 73 81 86 82
52 58 70 81 84 80 55 63 61 62 68 63 62 60 71 70 73 74 54 51 68 70 77 86 85 82 82 78 82 82 82 86 78 77 80 86 88 87 90 96 94 91 85 72 74 71 59 76 83
62 67 76 68 72 73 76 58 75 72 73 72 74 77 80 81 83 77 62 59 71 72 79 87 82 80 80 78 81 78 74 86 83 80 84 85 83 80 81 81 89 88 83 80 80 73 67 85 80
57 70 64 63 86 76 84 64 69 71 71 70 71 79 78 82 86 85 83 78 78 81 78 83 81 78 76 74 74 74 76 87 87 83 84 83 81 78 76 77 77 76 76 75 78 82 81 82 76

GFSSGP_sfc_rhum_096.txt.gz
RH
49 24 11 16 15 11 8 7 9 11 12 10 10 10 12 11 15 15 26 33 38 40 50 70 87 85 90 90 92 92 90 89 88 87 86 90 91 91 90 89 86 85 83 81 80 82 80 83 88
17 16 14 13 12 8 6 6 9 9 11 12 13 12 12 12 16 23 32 38 32 37 45 53 89 87 90 93 93 90 91 89 90 90 86 90 90 90 89 88 87 85 83 83 80 80 82 87 90
18 12 11 10 10 8 6 6 7 11 11 11 11 11 12 14 23 21 25 42 38 40 45 53 89 88 91 93 91 87 86 91 92 91 90 89 88 87 87 88 87 84 84 83 80 80 87 91 91
15 12 12 13 9 9 8 6 11 11 9 10 10 11 15 20 24 25 31 39 39 46 48 78 88 88 88 92 92 89 86 92 92 87 82 78 77 78 79 78 82 84 82 81 80 87 91 93 92
14 11 11 12 8 6 9 9 12 12 10 9 10 11 14 27 29 31 36 41 42 51 53 65 90 90 87 91 93 91 89 89 91 88 84 82 82 81 83 82 81 79 82 81 86 91 93 93 91
13 11 10 8 8 7 10 7 9 10 9 8 11 11 11 24 31 38 42 44 47 61 65 66 86 90 89 88 92 93 92 90 91 86 84 85 85 84 84 81 84 89 92 94 89 92 93 92 91
14 11 9 7 7 7 9 8 9 8 8 9 10 13 13 27 31 39 44 48 56 65 74 76 73 75 95 92 93 94 93 93 92 89 90 89 86 85 82 80 82 89 89 91 87 91 93 92 91
12 10 12 8 10 9 8 9 8 8 10 12 12 15 16 28 40 44 46 56 59 68 72 78 81 75 65 73 95 94 94 92 91 92 93 94 88 88 87 86 82 82 84 84 88 93 93 92 90
13 15 12 10 10 9 8 9 10 9 11 12 11 14 26 36 46 49 50 56 60 68 70 83 82 71 66 77 81 93 93 92 92 89 93 91 58 63 76 72 86 86 86 82 84 92 94 92 90
17 17 15 10 9 9 8 10 10 11 11 11 11 20 31 37 43 46 48 54 67 72 80 78 78 72 69 70 79 78 73 77 73 69 71 63 59 57 52 66 84 84 85 82 81 92 94 83 63
18 18 13 12 10 9 9 9 8 9 9 10 12 12 13 27 29 33 34 41 51 58 72 79 80 75 69 77 80 84 90 85 82 80 71 64 59 61 63 56 61 65 80 74 91 97 82 69 64
21 15 15 12 12 12 12 10 11 10 11 8 11 10 12 12 20 23 25 29 39 51 64 78 80 81 73 66 84 84 87 88 86 84 82 75 67 69 66 61 67 69 74 74 84 95 81 70 63
22 20 15 15 13 12 13 13 12 14 10 9 9 10 12 11 12 15 19 23 30 45 63 77 83 81 68 67 68 78 81 86 77 84 83 82 80 84 75 66 68 74 76 89 89 91 81 70 59
19 20 18 15 15 14 17 15 15 16 13 11 11 12 11 10 11 12 17 23 31 39 52 69 84 83 76 70 75 82 79 76 82 83 85 87 85 79 79 72 77 86 80 92 96 92 80 70 54
18 22 19 18 18 18 17 20 17 14 13 13 12 10 11 10 10 13 15 24 29 34 42 62 82 83 87 77 78 71 78 74 78 85 89 86 79 76 83 86 85 89 94 88 96 86 78 64 50
21 22 26 19 17 16 18 24 14 14 15 15 14 12 12 12 10 12 16 21 24 28 40 52 60 83 87 81 85 84 79 84 77 79 86 85 81 75 85 90 86 92 94 91 94 84 75 58 52
27 27 28 25 18 18 18 20 14 13 14 15 14 14 14 13 12 13 15 20 24 27 37 50 60 81 84 80 85 87 82 90 74 71 76 79 84 87 90 95 93 96 96 94 93 76 71 61 57
29 29 26 28 20 21 20 19 16 16 16 18 16 16 15 14 13 12 12 15 19 25 38 48 57 74 87 87 89 90 89 88 80 74 77 77 84 88 96 96 98 96 96 96 95 80 75 64 52
23 25 27 22 20 24 23 20 18 16 17 19 18 17 16 15 13 12 14 15 20 25 37 46 59 76 88 92 95 96 94 92 86 71 80 77 93 98 98 97 98 95 95 94 91 76 69 70 59
38 41 27 21 23 26 23 22 18 17 18 18 17 16 16 16 14 14 15 16 24 28 38 46 52 77 79 70 68 71 76 79 73 80 84 86 90 96 95 96 95 94 94 94 88 74 70 66 64
35 30 27 26 21 20 23 24 21 16 15 15 15 16 16 18 19 17 16 18 23 35 40 44 51 77 77 62 62 71 66 73 77 83 93 98 95 96 95 95 94 94 92 90 79 71 70 68 64
30 21 22 25 27 30 26 26 19 17 15 15 19 30 33 33 31 25 20 18 21 34 40 43 57 77 76 70 65 65 62 69 67 74 67 94 91 96 91 95 93 93 90 79 74 67 64 62 66
23 18 23 22 21 25 27 34 18 15 17 22 28 38 38 36 35 34 29 22 19 30 44 49 70 78 76 73 62 62 58 50 63 68 78 90 94 92 94 92 91 89 82 77 71 69 67 61 61
19 23 28 32 35 51 29 26 18 17 27 38 40 39 38 37 38 36 34 28 22 29 47 60 79 80 79 73 65 65 61 57 64 71 78 97 97 98 94 93 91 88 84 82 79 79 78 75 68
30 38 58 60 59 41 27 30 20 31 43 43 43 39 37 39 42 41 39 36 27 38 52 68 80 80 76 74 70 69 61 61 63 70 78 94 96 97 98 95 95 93 91 87 84 86 86 87 83
39 35 42 42 37 30 33 36 26 37 33 36 34 35 38 41 43 46 50 47 36 39 50 71 78 75 74 75 73 73 59 72 58 66 75 85 89 93 92 94 94 90 90 90 91 89 86 87 85
45 47 36 44 54 51 26 27 28 37 32 34 35 38 44 45 45 54 62 51 42 40 52 72 72 65 76 74 74 77 68 78 63 62 63 68 81 89 95 93 95 92 92 87 84 83 83 74 79
37 32 52 52 68 56 33 34 35 38 44 40 40 44 51 48 53 66 71 54 36 39 52 75 74 71 80 74 75 76 77 77 65 64 71 69 74 87 92 93 93 94 94 94 83 79 80 73 77
46 46 46 42 50 52 47 42 50 50 46 45 46 56 54 56 61 75 77 67 42 44 61 78 77 76 82 80 75 77 78 78 74 66 71 73 80 82 88 91 93 92 89 87 84 80 78 77 65
28 32 37 48 67 55 59 45 48 38 37 48 61 58 54 58 63 77 79 84 69 63 78 79 78 83 81 80 75 79 78 78 78 73 72 70 77 77 83 83 91 92 88 84 77 73 66 68 53

GFSSGP_sfc_rhum_099.txt.gz
RH
48 24 11 10 13 10 7 6 4 7 8 7 7 7 9 8 12 20 16 23 20 30 50 68 88 90 89 89 90 90 91 90 90 89 90 88 92 90 91 90 89 86 84 82 80 80 80 81 88
17 13 9 10 13 8 7 4 6 5 7 9 10 8 9 10 9 18 21 23 22 26 42 50 88 89 90 90 91 92 90 90 89 88 87 88 90 84 90 90 90 87 85 83 80 80 81 88 90
29 11 10 10 10 9 6 4 5 4 8 9 9 8 8 11 13 14 18 26 24 28 34 55 88 89 92 92 92 90 92 91 90 90 87 90 90 84 85 86 86 86 85 83 79 80 88 92 92
14 11 10 12 11 7 6 4 4 5 7 8 8 9 9 12 15 14 22 24 25 31 33 81 88 90 90 92 90 88 90 94 93 92 88 83 82 84 82 80 82 80 81 80 81 85 92 93 94
10 8 10 9 9 6 4 5 6 7 7 7 8 9 12 16 15 16 24 26 28 34 40 61 90 89 90 91 92 90 88 92 93 90 85 82 82 83 82 82 79 82 92 90 81 88 94 95 94
13 10 11 10 8 6 5 5 6 8 8 8 8 9 9 11 18 22 27 30 33 41 48 58 83 88 90 90 93 92 90 91 94 92 87 84 84 84 84 84 87 87 91 92 94 94 94 95 93
15 11 11 9 8 6 5 6 7 7 8 7 6 10 9 14 18 24 30 35 43 52 56 60 64 72 93 93 93 94 91 92 92 90 86 88 89 86 85 89 89 90 92 92 90 93 97 94 93
13 13 13 10 9 7 5 5 6 6 6 5 7 10 11 19 21 28 32 40 48 61 65 62 62 62 62 68 94 93 93 92 92 92 92 92 90 87 86 87 91 91 89 90 89 93 96 95 94
12 16 15 12 10 8 6 6 7 5 5 8 7 10 19 20 28 33 36 44 50 57 60 65 66 61 59 67 75 93 93 92 93 91 93 90 66 65 73 73 88 91 89 90 89 91 90 96 95
16 19 16 10 8 8 7 7 7 7 8 8 9 11 19 21 28 36 38 42 47 53 59 68 67 63 57 68 76 70 68 64 65 64 73 71 64 63 55 69 87 88 88 88 87 84 96 96 88
15 19 14 11 9 8 7 7 7 7 9 7 9 11 17 17 21 27 28 32 39 44 52 58 68 62 58 55 61 60 64 63 63 66 68 65 57 72 70 73 61 59 79 65 72 81 96 94 87
17 15 14 12 10 10 10 9 8 8 9 6 6 8 10 10 13 16 21 21 28 36 44 57 65 65 61 51 58 58 58 64 67 65 72 73 70 69 73 58 67 77 77 64 68 86 94 92 82
15 14 14 13 12 11 11 11 11 12 8 7 6 6 9 9 9 10 12 15 17 28 41 57 64 72 65 61 57 71 71 74 76 77 76 68 63 73 73 69 73 76 66 78 81 88 88 92 82
15 15 15 14 14 13 14 13 12 12 10 9 8 7 7 8 8 8 10 13 17 20 34 54 67 75 67 57 58 77 70 61 77 77 82 86 74 80 71 71 71 79 67 75 90 80 90 94 85
15 20 17 16 16 16 14 16 15 12 11 12 11 9 8 8 8 8 10 12 14 16 24 55 71 78 73 59 56 64 61 56 62 68 76 84 83 83 73 80 84 73 78 74 79 84 91 93 80
18 20 24 17 16 15 16 23 14 12 12 12 12 11 9 8 8 8 9 10 10 15 22 42 53 80 79 67 58 55 58 60 54 59 72 83 80 84 87 89 87 83 81 82 84 85 89 93 75
21 24 23 19 14 15 16 20 14 11 12 13 13 12 11 10 8 9 8 9 11 13 20 34 52 66 79 77 66 67 66 66 62 56 67 70 78 78 80 86 87 83 86 83 91 85 90 93 75
26 27 22 21 16 16 18 18 14 12 13 14 13 12 12 12 11 9 9 10 11 14 20 29 45 58 73 77 73 77 75 81 68 63 62 65 73 74 74 85 91 90 90 88 93 88 89 84 68
25 25 34 23 17 20 22 20 15 13 14 15 15 15 14 14 12 11 12 11 12 16 21 29 43 56 74 79 80 86 81 87 74 76 63 59 65 79 81 95 98 96 95 93 92 81 87 86 76
28 70 51 29 20 21 20 20 16 14 14 15 15 15 15 14 13 13 13 14 15 16 20 26 36 48 69 75 70 67 69 74 63 65 60 60 66 76 89 94 96 97 96 95 94 89 88 82 74
36 54 40 31 23 24 23 24 20 15 14 14 14 14 13 14 15 15 15 16 17 18 23 22 30 40 68 70 60 56 60 67 67 73 60 71 72 81 91 96 98 96 95 95 94 93 87 82 76
30 26 29 28 38 46 20 27 18 15 14 14 14 16 19 23 23 22 22 22 20 20 21 26 28 35 68 63 54 57 57 67 61 60 55 79 83 90 90 94 95 95 94 94 94 90 82 77 72
23 21 28 32 27 26 23 29 20 14 16 14 18 24 27 28 28 28 27 26 22 20 21 30 32 35 67 59 52 56 55 52 52 51 65 94 94 87 91 93 98 96 94 94 93 86 79 70 68
21 23 21 22 22 32 22 22 24 17 14 19 27 28 29 29 32 30 30 29 28 23 25 32 38 48 67 66 55 59 58 51 50 56 74 86 93 97 94 91 98 97 95 95 93 80 77 75 74
26 31 50 51 47 41 22 26 20 23 28 32 32 28 28 30 34 34 34 36 39 35 24 32 41 62 71 77 59 57 55 52 52 61 72 90 96 97 95 94 98 97 96 94 87 87 84 78 73
29 30 58 56 56 39 21 24 18 22 26 28 26 28 31 33 36 38 41 47 48 42 30 34 46 67 73 79 60 56 53 50 48 57 68 77 94 94 93 92 94 97 94 94 92 94 94 94 95
31 39 33 58 40 40 26 28 29 27 27 27 29 33 43 36 39 42 49 56 53 58 36 39 64 69 78 79 65 59 55 53 50 61 70 76 81 87 90 92 95 95 94 93 93 94 94 95 94
31 27 48 45 45 38 25 27 48 43 37 30 33 42 48 41 44 49 56 63 61 64 34 45 71 74 78 78 72 62 55 57 54 66 76 78 73 82 89 92 94 94 94 92 93 91 88 91 89
33 40 36 33 39 57 55 55 38 34 32 36 45 48 48 48 52 57 66 69 65 72 36 62 69 75 80 82 78 73 59 59 59 66 67 74 76 80 86 93 93 94 94 92 93 92 84 86 79
25 37 33 54 50 40 54 66 32 26 30 50 51 53 49 51 54 59 71 77 75 83 83 74 74 81 81 83 82 80 72 62 71 72 66 68 73 73 80 85 90 92 92 92 93 92 81 81 84

GFSSGP_sfc_rhum_102.txt.gz
RH
51 29 21 17 17 15 12 8 6 5 6 6 6 7 8 9 18 29 18 28 46 54 67 74 90 91 91 89 91 93 92 91 92 93 93 93 93 92 93 92 90 88 84 81 80 80 80 85 90
19 17 17 12 16 16 11 7 6 4 5 9 9 8 8 10 14 20 24 24 36 48 59 68 91 92 91 92 92 93 92 91 92 90 90 91 90 92 92 92 91 88 84 82 80 80 82 89 92
28 16 16 13 13 15 13 6 4 4 8 8 8 8 8 11 12 18 23 29 31 43 46 69 90 92 92 92 93 93 93 93 92 90 90 88 88 88 90 89 90 85 81 81 79 80 88 92 93
20 21 14 14 13 9 8 7 5 4 6 7 7 8 8 15 15 19 21 24 32 38 60 86 91 91 92 92 91 90 93 94 92 90 88 87 85 85 89 85 81 86 76 76 77 84 92 94 92
16 14 17 13 10 8 7 6 5 5 5 6 6 8 11 16 14 23 25 26 38 49 71 74 90 92 92 91 91 89 89 93 93 90 88 87 87 85 86 86 86 92 94 89 86 84 89 94 93
19 14 16 14 11 8 6 5 5 6 7 7 7 8 11 13 16 27 33 35 45 60 69 75 86 91 91 92 92 91 90 90 92 92 88 86 87 85 84 85 88 92 90 88 86 94 93 95 95
20 18 18 15 12 10 7 6 6 7 8 7 6 8 11 18 20 26 36 45 57 66 73 77 77 81 92 92 94 94 90 91 92 93 92 88 88 88 85 86 91 92 91 92 93 92 92 91 93
18 18 20 16 14 12 7 6 5 6 7 6 6 9 14 19 21 30 38 55 64 72 78 78 78 77 80 87 95 95 91 92 92 92 91 91 90 88 92 89 89 91 93 94 91 92 92 92 94
16 24 23 19 16 13 8 7 5 5 6 6 5 8 18 22 28 34 42 57 68 73 75 79 78 76 78 80 85 94 92 91 92 92 93 94 83 82 86 84 92 90 91 90 89 91 92 94 92
19 25 25 15 13 12 9 8 7 6 7 7 6 7 20 22 31 38 44 54 62 71 76 75 78 77 76 65 89 84 81 82 85 83 89 90 84 84 76 86 92 91 91 92 92 93 93 94 96
20 23 19 15 12 11 10 9 6 7 8 8 10 11 20 21 26 34 35 45 54 58 67 73 79 80 77 74 81 79 78 81 80 82 84 84 76 89 88 89 86 92 91 88 92 93 92 94 96
22 18 17 16 13 13 12 10 10 7 10 8 9 8 15 19 20 24 30 32 41 50 61 71 72 79 78 73 78 76 74 79 82 82 85 88 88 90 89 91 92 88 87 86 82 87 94 93 92
16 18 16 15 14 13 13 13 12 12 9 7 7 7 9 14 12 14 18 22 28 44 58 68 74 78 75 78 73 78 79 80 79 82 84 86 88 89 89 90 90 92 92 92 90 89 93 93 91
14 14 16 14 14 14 15 14 13 13 10 10 9 9 8 8 10 11 13 17 23 35 54 70 74 77 76 75 78 82 82 84 85 80 84 86 86 89 87 91 89 93 93 92 84 88 92 92 94
16 17 15 16 15 15 14 17 16 13 11 12 11 10 10 9 7 10 12 16 20 23 48 72 76 81 81 76 76 79 79 76 81 82 86 90 90 87 86 91 93 93 93 90 89 92 92 93 94
19 20 23 17 16 16 17 25 17 12 12 13 12 12 12 11 9 8 12 11 13 16 34 66 66 81 81 79 73 76 75 75 77 82 86 87 88 90 91 91 93 94 93 92 89 91 95 95 95
22 27 26 21 16 18 19 23 18 14 13 14 13 13 13 13 10 9 11 11 12 14 30 63 76 82 82 82 77 76 76 74 72 76 82 85 86 87 90 92 94 91 93 92 88 91 90 94 97
28 26 24 23 17 18 20 21 17 14 14 15 13 14 14 13 12 11 11 11 12 14 29 60 71 82 84 82 82 74 77 76 78 75 75 79 86 86 89 92 92 92 93 92 92 90 92 91 94
22 22 23 20 31 30 28 20 16 14 14 15 14 15 15 15 12 13 16 16 22 26 32 48 66 78 84 84 85 80 84 83 82 75 72 76 82 84 86 93 93 93 94 91 91 89 93 97 94
20 27 28 38 34 36 38 44 29 17 16 15 15 16 16 16 15 16 19 22 28 29 31 35 55 69 76 79 77 80 77 81 79 76 76 77 78 83 88 93 96 94 94 92 92 91 92 94 95
17 24 42 42 44 69 60 59 37 22 15 14 15 15 15 16 17 17 21 30 36 35 39 29 40 59 71 76 75 76 79 80 82 78 76 78 77 82 89 92 95 96 95 96 96 92 87 90 96
21 17 34 39 78 80 33 59 30 22 20 17 16 18 19 18 23 24 27 30 34 38 40 35 33 42 65 76 77 77 76 80 80 75 74 76 81 89 90 94 95 97 95 96 96 94 91 87 94
18 18 31 31 55 65 49 73 39 21 19 18 16 21 30 30 32 32 32 32 30 38 42 44 38 34 65 76 75 73 69 72 72 74 74 91 90 90 88 92 96 98 95 96 95 96 96 93 89
15 40 42 43 48 90 58 52 32 24 22 19 23 28 31 33 34 34 35 36 37 42 51 49 46 37 70 75 71 69 70 69 70 71 79 92 92 94 89 94 96 95 96 96 94 94 90 93 90
26 43 58 72 87 66 28 29 30 23 18 26 31 29 35 39 41 40 41 44 50 53 54 53 40 41 74 76 72 69 69 70 69 68 76 92 98 98 96 95 99 98 96 96 95 94 94 92 93
30 36 60 52 52 40 22 61 50 31 28 28 30 41 39 38 43 46 48 55 60 60 62 60 68 44 72 77 72 67 65 65 65 68 72 85 89 93 95 95 96 97 98 96 98 97 94 94 95
29 37 35 98 66 90 50 70 44 47 32 34 38 43 44 43 48 49 53 62 67 67 70 74 73 54 76 80 79 73 69 67 68 71 79 85 89 92 93 93 95 97 96 97 98 99 99 97 98
32 31 73 92 97 95 46 52 65 59 41 42 50 51 53 51 51 53 60 68 69 69 73 79 65 71 77 78 79 77 69 70 69 71 82 84 89 88 94 96 95 96 96 96 96 97 98 97 99
42 67 70 66 56 76 71 96 77 67 60 56 59 59 59 56 56 59 65 70 72 72 75 87 74 71 79 82 80 86 82 70 73 75 78 80 87 89 92 93 95 96 95 96 96 95 95 95 96
39 52 50 86 45 67 93 99 66 62 54 62 64 64 64 65 66 66 69 74 79 81 82 85 88 84 82 87 90 90 84 73 72 79 81 85 87 88 88 92 93 94 95 95 95 95 93 95 94

GFSSGP_sfc_rhum_105.txt.gz
RH
71 55 47 36 34 37 37 21 13 10 10 13 12 12 13 22 31 54 57 58 70 84 89 89 93 94 94 94 95 93 94 93 94 94 93 94 93 93 93 92 90 88 86 81 81 82 84 87 90
42 30 34 38 32 39 30 17 15 10 12 15 12 12 11 30 28 44 58 58 68 77 83 88 93 94 94 94 95 94 93 93 94 94 93 93 91 90 91 92 91 89 84 82 80 81 85 89 92
36 29 36 38 33 31 28 16 13 10 13 13 13 12 13 24 31 33 50 61 63 69 77 87 94 94 95 95 94 95 94 95 94 93 92 91 89 90 90 90 90 81 79 74 76 85 88 92 92
29 40 38 32 29 21 16 12 10 9 11 10 12 13 18 21 29 33 46 53 59 63 76 93 94 94 94 94 94 94 95 95 94 92 92 90 88 86 87 91 88 88 86 84 78 77 86 94 93
30 35 40 36 26 16 12 10 9 10 8 10 9 12 23 28 26 32 38 47 73 82 85 90 94 94 93 93 92 93 94 95 94 92 91 88 87 86 84 92 91 86 84 88 89 85 89 93 94
35 33 38 35 25 16 12 10 8 8 8 11 10 12 21 29 29 36 46 64 79 85 87 89 92 94 93 93 92 92 93 94 94 92 91 89 88 87 87 93 92 86 85 90 87 83 90 91 93
42 41 34 28 22 18 13 10 10 9 10 10 9 11 18 27 33 39 50 71 81 85 89 95 95 92 94 94 94 93 92 92 92 94 92 91 90 87 81 94 92 91 88 88 89 87 88 89 92
36 39 41 31 24 21 13 11 10 9 11 11 9 14 19 33 40 51 60 74 83 88 90 94 96 96 97 98 96 94 92 92 92 92 94 92 92 89 86 92 93 92 89 88 91 92 91 88 89
26 41 43 36 30 23 16 15 12 8 9 13 12 12 30 38 44 60 73 84 86 89 90 94 94 95 96 96 94 94 92 91 90 90 94 94 96 93 91 90 94 91 91 92 92 91 90 89 87
34 40 37 28 23 22 17 15 14 11 11 11 12 30 32 35 44 62 74 86 90 92 94 93 94 93 94 86 97 98 94 97 96 96 96 97 96 96 90 92 94 93 93 93 93 92 93 91 95
23 37 27 24 22 21 21 18 14 14 13 11 12 31 32 33 46 52 66 77 82 84 88 92 93 92 91 92 98 99 99 99 97 95 96 95 92 96 97 96 95 98 94 92 94 96 98 97 97
18 17 25 25 20 20 21 18 18 17 13 11 11 18 29 30 37 46 51 65 74 82 84 87 91 92 92 93 94 96 95 98 98 96 95 95 97 97 97 94 97 98 98 98 98 99 98 98 95
22 15 13 16 20 19 18 20 18 19 16 12 11 11 26 25 29 35 39 51 60 71 82 83 85 93 86 90 93 95 96 93 94 96 94 92 96 95 96 97 96 97 96 96 98 98 98 98 97
24 21 17 15 17 19 21 20 18 17 17 14 13 14 14 25 22 22 28 31 52 60 75 82 83 83 88 92 91 91 92 91 96 97 96 93 96 95 94 96 94 95 95 97 95 96 98 99 97
17 22 20 20 16 17 18 22 20 17 16 17 15 15 15 15 17 16 15 18 25 51 66 81 83 82 88 92 90 93 93 94 97 94 89 94 94 93 94 95 96 94 96 95 95 97 98 98 97
23 24 28 19 20 17 18 29 20 17 17 17 18 17 15 15 15 13 15 15 18 37 67 76 75 84 87 94 93 93 92 97 97 96 96 96 95 94 94 94 94 94 97 97 97 97 98 98 98
26 38 28 24 20 20 21 25 20 18 19 17 16 16 16 15 15 15 14 15 14 27 66 77 81 86 87 94 94 93 92 96 93 95 96 95 95 95 96 96 96 96 98 98 97 98 94 98 98
32 39 33 29 24 22 23 23 18 23 19 19 19 16 16 16 14 15 13 16 15 20 62 74 85 87 89 89 96 91 91 96 95 92 94 95 94 94 96 98 97 97 98 98 98 97 97 94 95
25 32 34 26 21 42 46 38 35 24 23 20 20 18 17 16 15 15 17 15 17 22 66 76 88 93 91 91 97 89 95 93 95 96 91 94 94 94 95 97 97 97 96 96 97 97 96 98 97
26 30 32 25 23 66 82 74 60 54 44 36 22 19 24 20 21 16 21 21 23 26 68 80 87 94 90 84 87 90 81 89 77 92 92 92 95 95 95 97 97 97 97 96 97 93 96 94 96
36 24 22 22 60 71 78 74 60 45 35 30 23 16 20 21 21 27 32 38 41 40 44 78 85 92 90 87 85 91 93 87 88 80 83 94 91 92 94 96 96 97 95 95 96 94 91 91 97
32 18 16 18 76 94 80 87 60 46 37 29 23 19 20 33 39 41 45 47 48 52 54 50 79 89 90 87 85 84 86 87 80 80 82 95 92 94 94 96 96 93 95 94 95 94 93 94 96
48 21 19 21 92 81 94 98 74 53 49 27 23 38 41 42 45 49 50 50 54 55 58 58 60 77 86 84 83 84 87 84 92 86 86 92 96 95 95 95 96 95 94 95 95 97 97 95 91
41 56 65 74 67 93 65 75 61 51 43 27 46 50 48 48 52 54 55 57 61 60 61 62 61 65 81 85 84 83 82 85 89 89 92 98 97 97 94 95 97 97 97 96 96 97 95 95 93
44 53 96 96 98 89 48 71 50 36 36 47 52 49 52 56 59 61 64 67 66 67 66 64 68 69 73 88 85 82 80 83 82 85 89 98 95 97 97 96 96 96 97 96 97 97 96 96 95
59 60 87 81 88 68 39 60 46 43 57 55 51 61 56 59 60 64 65 68 70 68 68 71 74 77 76 87 83 80 76 78 76 78 92 92 92 93 92 93 94 96 96 96 97 97 97 95 94
47 62 58 84 94 91 60 72 49 60 80 61 70 63 66 63 64 68 69 71 72 71 73 74 78 84 81 74 86 86 90 74 78 78 94 96 94 96 93 94 97 98 98 97 97 98 96 97 96
35 41 72 97 93 95 80 80 85 87 93 78 73 74 75 75 75 74 74 73 70 71 77 76 78 88 81 90 93 92 94 91 77 78 93 95 95 92 95 97 97 98 98 97 97 99 97 94 95
51 90 82 80 86 98 96 99 91 91 88 83 80 79 80 80 78 77 77 73 72 76 81 84 84 84 92 94 94 94 93 93 80 86 93 96 95 94 94 94 95 98 98 99 96 98 98 96 97
57 65 79 90 99 99 98 99 93 86 76 75 76 74 74 72 74 75 76 79 79 82 84 86 86 88 88 90 95 95 93 89 81 86 91 95 94 89 91 94 95 94 97 97 98 98 97 96 98

GFSSGP_sfc_rhum_108.txt.gz
RH
70 60 50 37 31 41 48 29 21 15 14 11 13 14 17 27 32 43 67 63 80 93 93 92 95 94 93 92 93 94 94 93 92 92 93 93 93 93 93 92 92 88 85 82 83 84 86 87 90
46 36 37 43 38 41 33 29 22 17 14 14 14 14 24 41 42 68 62 69 78 90 93 94 96 95 95 94 94 94 93 93 94 93 93 92 92 92 92 92 90 86 82 80 80 80 85 89 92
37 33 39 48 46 38 30 22 18 17 11 10 13 14 20 36 52 57 57 73 81 86 89 92 96 95 95 95 95 95 95 95 94 94 93 92 91 91 91 89 86 85 81 79 75 82 86 91 92
32 42 46 47 40 28 23 15 16 13 11 10 12 14 26 30 48 53 59 69 76 84 86 96 97 96 94 95 96 96 96 96 95 94 93 91 91 90 90 90 88 85 82 79 78 84 88 92 90
36 45 53 55 41 27 19 15 16 13 11 10 11 12 34 34 43 56 60 59 75 87 93 95 96 96 95 94 94 96 97 96 94 93 93 91 90 89 92 91 88 87 84 83 85 89 90 91 92
38 41 52 48 29 23 19 15 15 12 11 11 12 14 29 39 55 61 60 67 79 88 94 94 94 95 95 94 94 96 97 97 95 93 92 91 90 90 92 90 90 88 89 86 84 86 88 90 92
51 52 46 35 32 27 20 16 15 14 15 12 10 15 35 45 46 57 74 81 86 88 95 97 97 95 96 95 95 96 97 97 96 94 93 92 91 94 93 88 88 88 91 88 83 85 85 89 91
42 49 56 35 32 31 19 15 14 16 14 12 10 15 46 40 52 72 84 92 95 94 96 98 98 98 98 97 95 95 95 95 96 95 94 94 92 93 93 91 90 91 91 87 85 87 89 91 95
36 52 48 46 44 39 25 24 18 16 12 11 10 17 26 52 63 78 91 97 97 94 96 98 98 98 98 98 96 94 94 94 94 94 94 95 95 91 94 93 94 92 91 90 89 91 90 91 93
42 49 40 36 34 34 26 24 21 20 18 12 19 38 46 60 64 75 84 94 96 97 98 97 97 98 98 92 98 98 96 98 97 97 96 97 97 95 91 93 94 92 92 92 95 93 90 90 96
27 42 33 31 30 28 27 27 23 25 24 16 15 41 51 60 63 70 74 82 86 91 94 96 96 96 98 95 99 99 99 99 98 97 97 98 96 97 98 96 96 97 96 98 97 97 98 96 96
21 16 22 23 27 28 28 23 23 24 23 18 19 28 44 54 64 67 75 78 91 93 93 95 95 96 97 99 99 98 99 98 99 98 97 98 99 99 99 98 95 98 99 98 98 99 98 97 95
26 20 15 14 15 17 22 27 26 25 19 19 17 22 38 47 55 60 63 70 80 84 89 94 93 94 94 98 98 98 98 98 97 98 96 96 98 98 98 98 98 98 98 98 99 99 99 98 97
25 24 26 25 21 16 16 18 21 21 20 18 18 17 33 37 43 51 63 69 82 79 86 87 90 88 91 95 96 98 98 97 97 98 96 94 96 97 96 98 97 98 97 96 97 98 99 99 98
18 22 18 18 19 24 18 21 20 18 20 19 18 18 18 26 32 35 40 64 68 73 81 87 87 89 91 91 95 97 96 95 97 97 96 94 95 95 95 97 98 97 96 96 98 99 99 100 98
23 24 26 19 20 19 25 32 20 15 20 19 21 20 19 19 26 26 26 30 58 64 76 86 80 88 89 94 92 93 94 93 96 97 91 93 95 94 96 96 97 97 98 97 98 98 97 98 98
26 32 27 22 20 22 24 29 21 17 18 20 19 21 20 19 19 19 17 19 20 57 68 86 85 88 89 89 90 92 94 93 96 97 97 92 95 94 95 96 95 96 97 97 98 98 94 98 98
39 31 27 32 27 25 26 29 22 20 24 22 20 20 22 21 17 17 18 16 15 40 66 77 84 85 88 95 96 96 95 97 97 96 97 96 96 94 96 97 96 96 97 97 96 94 96 94 94
46 33 33 26 22 29 29 24 54 56 28 21 25 27 22 20 18 17 16 20 19 36 69 76 85 89 90 97 98 96 93 97 98 98 95 96 96 96 95 96 97 97 97 95 94 95 96 98 97
36 53 58 29 21 26 59 72 59 56 52 48 40 41 36 25 19 17 21 36 46 44 65 78 85 94 88 83 88 91 88 93 92 97 96 95 96 95 96 96 97 97 98 99 94 94 98 96 96
28 30 56 56 27 26 57 60 53 40 43 41 39 37 33 30 44 50 56 64 65 69 75 89 91 94 86 80 92 97 98 97 96 96 98 97 96 96 95 96 96 97 97 97 97 96 93 96 97
59 34 61 64 45 45 71 74 68 53 50 40 36 41 50 53 56 59 65 68 69 71 68 67 92 94 92 92 93 91 90 93 84 81 88 91 95 96 96 97 97 97 97 95 95 95 94 93 94
48 33 57 50 39 51 65 98 77 59 60 50 45 59 60 61 65 67 66 63 66 69 72 70 70 76 81 96 92 93 86 83 94 91 89 89 94 94 94 96 97 97 97 95 93 94 95 93 92
40 60 56 67 58 60 42 94 67 58 53 64 67 67 65 67 68 66 64 62 68 68 71 70 74 71 72 80 91 88 90 91 94 93 90 87 88 95 95 95 96 95 94 95 94 94 94 95 92
55 70 92 90 96 79 57 90 57 72 70 69 74 74 72 70 73 74 75 75 72 71 74 72 77 79 77 80 76 89 88 88 90 92 90 95 96 97 98 97 98 97 95 94 95 96 97 95 96
75 62 74 94 91 78 57 79 74 86 83 78 71 73 74 78 78 80 77 76 75 73 76 80 78 78 78 83 77 83 85 90 86 89 90 93 95 95 95 94 96 96 97 97 97 97 97 97 98
59 70 56 73 88 84 71 75 84 78 87 93 87 83 84 82 79 79 78 77 76 78 80 83 79 78 79 86 83 75 88 91 88 87 92 94 93 96 96 94 95 95 96 95 97 98 98 98 97
60 62 70 90 84 91 79 84 98 98 95 94 95 86 83 80 78 78 78 78 78 79 80 82 78 81 80 88 89 79 89 90 90 88 94 95 94 95 96 96 96 96 97 96 97 94 97 98 97
63 81 81 70 82 98 97 99 98 99 96 100 99 94 83 83 82 80 78 76 76 78 80 84 84 84 85 89 93 96 96 97 93 90 93 93 94 96 96 96 97 98 97 97 98 98 97 98 98
71 73 68 85 88 96 98 98 100 97 94 93 97 85 82 82 83 83 83 82 81 82 84 85 87 88 87 87 90 96 96 97 96 96 94 92 95 95 96 94 94 94 96 98 97 98 98 96 97

GFSSGP_sfc_rhum_111.txt.gz
RH
68 56 50 36 33 43 46 32 24 18 15 13 15 18 16 31 35 40 67 65 81 87 94 94 95 94 93 93 93 93 92 91 90 92 93 93 93 94 94 93 90 87 84 80 80 80 80 83 89
47 40 39 43 37 46 32 34 23 18 15 16 14 17 18 33 50 72 64 78 79 89 93 94 95 95 94 93 94 94 91 91 91 92 93 93 93 94 94 94 90 88 85 80 78 80 84 89 92
39 34 40 49 54 35 22 23 22 18 16 14 12 15 26 39 62 63 62 81 88 91 92 94 96 96 95 94 94 95 94 93 93 92 92 92 92 92 92 92 89 86 84 81 79 82 88 92 93
35 42 46 53 54 39 24 19 19 15 13 13 15 11 19 38 58 53 70 81 89 94 93 97 97 97 96 95 95 96 96 95 94 94 92 92 91 91 91 89 87 85 84 83 81 86 91 92 92
37 48 51 66 55 37 25 21 22 19 14 12 13 12 26 47 54 62 72 75 86 95 96 97 98 96 96 95 96 96 96 96 95 94 93 92 92 92 91 89 87 86 84 85 87 90 91 91 90
35 45 62 52 28 30 25 21 21 16 15 14 12 16 31 52 62 62 71 77 84 96 97 96 97 97 96 96 97 98 97 96 95 94 94 93 93 94 91 90 89 88 88 89 88 90 91 91 92
42 52 52 43 40 33 26 21 21 20 18 17 12 14 36 68 59 64 72 91 93 96 98 98 97 96 97 97 97 98 98 96 95 94 94 93 94 94 92 91 90 91 89 87 89 90 90 92 92
49 58 69 41 30 30 24 20 16 19 19 17 15 18 47 53 69 85 92 96 96 98 98 99 100 99 98 98 98 98 98 97 96 95 94 94 96 94 92 92 91 91 90 89 88 87 89 92 94
43 60 48 44 45 39 31 34 24 22 21 23 17 21 31 58 84 91 97 98 98 98 98 98 99 99 99 98 98 97 98 98 97 96 95 96 97 96 91 86 92 92 91 88 89 89 88 94 96
40 59 40 37 38 38 31 28 28 27 26 26 25 22 62 74 82 90 92 93 96 98 99 98 98 99 99 98 99 99 98 98 98 97 97 98 98 98 93 91 93 94 92 88 89 90 90 94 99
39 38 31 33 33 34 37 36 30 31 30 29 27 21 57 71 77 82 81 84 88 90 95 98 98 98 98 98 98 100 100 99 99 98 98 98 97 98 98 97 98 98 94 98 98 97 98 96 98
28 17 22 27 28 34 39 33 31 28 27 24 23 23 37 58 71 73 78 80 88 93 90 95 96 98 98 99 98 99 99 99 99 99 98 98 99 99 97 94 95 98 99 99 99 99 98 96 95
47 34 26 23 19 18 17 18 24 28 23 23 22 21 22 40 63 63 64 75 89 91 91 94 95 96 97 98 99 99 99 99 98 99 98 98 98 98 96 94 95 95 98 99 99 99 99 97 96
24 18 17 16 16 18 25 25 19 16 16 20 23 22 24 29 52 62 68 78 89 84 94 94 95 94 96 97 97 98 98 98 99 99 98 97 97 98 97 95 96 96 98 99 99 98 98 99 98
21 29 24 21 19 20 20 21 24 20 16 17 24 21 22 27 46 60 66 71 79 80 89 95 94 95 96 96 96 97 97 97 98 98 98 97 97 97 97 96 96 95 98 98 99 99 99 99 99
31 30 33 22 20 18 26 31 19 18 22 19 16 22 19 20 31 36 51 68 77 78 88 93 88 95 96 96 97 96 98 97 98 98 98 96 96 95 97 98 98 98 99 98 99 98 99 96 98
41 42 34 27 19 19 20 23 18 21 22 21 19 20 19 21 20 29 33 48 66 74 81 92 91 95 96 96 96 96 96 97 98 98 98 96 96 95 96 98 98 98 99 98 98 96 96 96 96
58 57 54 54 32 20 21 24 25 21 25 28 21 18 17 20 21 18 27 26 36 72 74 86 90 93 93 97 98 99 98 98 98 97 97 95 94 96 96 97 98 98 98 98 98 97 94 94 92
34 35 38 47 54 42 29 26 24 24 29 39 46 23 28 22 22 21 23 29 26 29 72 83 94 94 93 97 98 98 98 98 98 96 95 95 95 96 97 98 97 97 98 96 96 96 96 98 98
52 55 47 36 32 56 55 37 25 24 45 34 38 41 38 40 35 56 68 72 78 82 64 82 91 94 91 91 88 89 90 97 96 97 97 94 96 96 96 97 97 97 98 97 94 94 96 96 98
55 68 62 58 30 43 58 67 32 26 37 40 45 46 49 58 71 63 64 73 75 77 78 90 93 94 92 91 90 98 97 99 100 98 97 97 96 96 95 95 95 97 95 96 94 94 94 97 98
75 50 56 49 60 74 52 67 33 36 39 47 43 67 73 71 69 67 70 76 78 78 75 67 87 93 90 92 92 95 88 90 91 91 91 93 96 97 96 95 96 96 95 96 97 95 95 95 98
56 51 55 48 48 85 76 80 51 68 67 76 78 74 75 73 74 75 74 74 75 77 81 72 72 78 83 94 94 95 94 88 97 97 97 98 97 96 96 96 95 97 96 95 96 97 98 96 93
44 56 59 60 69 94 62 58 55 62 76 86 84 81 79 80 78 77 73 71 76 79 81 78 76 74 79 83 88 94 94 93 95 94 97 98 98 98 97 97 97 97 96 96 95 95 96 96 95
58 73 83 94 98 81 46 62 46 90 86 86 90 86 84 83 88 86 84 82 80 82 83 78 80 81 80 81 80 81 95 95 90 90 88 94 96 97 97 97 98 97 96 95 94 96 96 96 95
65 66 81 95 93 75 59 87 92 92 86 85 80 86 82 82 81 82 80 80 81 80 81 82 82 80 78 82 84 85 76 92 93 92 88 90 88 86 94 95 95 94 96 96 96 96 95 94 97
62 77 54 87 80 97 82 99 94 93 94 98 98 89 91 88 84 82 78 77 78 80 81 82 82 78 79 80 82 89 87 88 89 92 94 93 92 95 96 96 97 97 97 97 98 98 98 98 97
65 64 85 95 97 91 79 97 98 98 100 100 100 99 94 88 88 83 81 80 77 77 78 79 80 80 81 82 88 90 91 82 90 89 95 95 95 96 98 97 96 96 96 97 97 97 97 97 97
80 79 81 77 86 98 96 98 100 100 100 100 100 100 96 92 92 92 86 80 79 79 80 84 84 82 84 87 89 93 96 86 92 92 94 95 96 97 97 96 96 95 96 97 98 96 95 98 97
83 73 74 89 89 95 97 99 100 99 98 98 99 100 97 88 81 85 86 84 84 86 84 85 86 87 85 85 89 92 91 93 97 96 94 96 96 95 95 95 96 96 96 96 97 98 98 98 98

GFSSGP_sfc_rhum_114.txt.gz
RH
65 58 50 32 29 41 40 22 28 20 21 17 18 18 16 27 43 50 72 73 85 88 94 94 96 95 94 92 91 91 90 90 91 91 92 91 91 91 91 91 90 88 85 81 80 82 79 81 87
46 42 40 43 32 38 24 32 27 19 15 17 14 17 24 28 50 72 76 75 78 92 95 95 95 95 94 94 92 91 90 91 91 91 92 93 94 94 93 91 91 88 86 83 79 78 81 88 91
41 36 35 48 50 28 19 16 23 19 16 18 14 16 20 37 57 66 64 84 85 92 94 95 95 95 95 95 94 93 91 92 93 93 92 93 94 94 92 91 91 89 86 83 79 80 88 92 93
38 40 44 50 53 40 18 21 23 18 15 15 16 14 13 36 57 59 79 86 86 94 96 97 96 96 95 95 95 94 94 94 94 94 93 92 93 93 92 91 90 88 86 84 84 88 92 94 95
40 49 36 67 58 42 32 26 23 21 18 18 16 15 17 28 58 68 83 84 90 97 97 97 97 96 95 95 95 95 94 94 94 94 94 93 92 93 91 90 89 89 87 87 89 92 93 94 95
27 48 58 44 35 36 28 24 24 21 20 17 16 18 18 49 65 78 83 89 93 97 98 96 96 96 96 96 96 97 95 95 94 94 95 94 94 92 90 89 89 90 90 92 92 92 93 94 94
33 52 51 57 42 39 30 24 24 24 23 20 16 20 19 48 66 75 88 94 97 97 97 95 95 96 97 98 99 98 96 96 95 95 95 96 96 93 91 90 90 89 90 91 92 92 93 93 94
50 57 73 50 40 35 24 22 21 20 21 19 17 23 22 41 72 90 96 97 99 99 96 91 90 98 98 98 99 98 98 96 96 95 95 96 96 94 93 91 90 90 89 91 91 92 93 93 93
50 61 65 51 44 46 32 33 28 25 24 27 22 29 24 54 92 96 98 99 99 98 93 91 93 96 99 98 98 98 98 97 96 96 95 98 97 96 94 94 93 90 89 90 90 92 94 94 94
44 66 43 37 39 40 36 32 30 32 29 33 28 27 64 86 94 84 90 90 95 98 96 92 92 94 99 98 97 98 95 95 97 97 97 98 98 98 95 92 93 91 90 90 88 86 94 96 99
53 39 35 31 34 40 50 39 34 33 34 32 31 28 40 77 89 90 85 78 79 88 97 92 91 93 94 92 94 98 97 98 99 99 98 99 99 98 98 99 98 98 94 98 96 95 98 98 99
50 28 22 22 24 25 26 30 29 30 29 28 28 26 26 53 76 84 88 83 89 91 94 96 94 95 96 92 91 93 97 99 99 99 98 99 99 96 98 98 99 99 99 98 99 99 98 97 98
30 36 36 28 19 19 18 19 26 26 21 17 15 21 24 28 54 69 69 80 89 94 94 96 98 97 96 95 89 93 96 99 99 99 98 98 97 95 95 96 99 97 96 98 100 99 98 97 97
27 24 23 26 26 22 20 20 22 21 22 18 19 21 22 23 26 40 65 71 91 90 91 94 97 96 97 97 91 94 98 99 99 99 97 98 98 97 91 94 95 95 96 99 99 99 99 98 97
28 34 29 26 26 22 20 21 19 19 16 19 19 20 18 19 27 29 47 70 76 83 84 93 95 96 98 97 98 98 98 98 98 98 96 98 98 97 91 95 96 96 97 99 99 99 99 98 98
35 40 46 28 26 23 26 30 18 16 15 19 18 19 19 18 22 26 43 58 69 77 92 92 86 95 96 96 97 98 98 98 98 99 96 98 97 97 97 93 94 96 98 99 99 98 98 99 98
48 52 50 42 29 28 27 31 22 18 16 17 17 18 20 20 18 22 34 57 63 77 85 94 94 96 95 95 96 97 96 97 98 98 97 97 97 97 97 94 96 97 97 98 97 97 98 98 96
45 55 55 55 37 36 46 47 35 27 22 22 22 23 21 25 20 19 28 47 61 76 78 87 93 95 95 94 95 95 96 95 97 98 98 97 97 96 97 99 98 97 97 97 98 95 94 97 95
40 44 50 39 31 33 33 42 39 36 32 26 23 22 25 31 24 51 63 64 38 53 80 86 95 96 93 95 95 92 94 93 96 97 96 96 96 97 96 98 99 96 96 95 94 93 93 98 96
62 69 65 47 33 47 46 47 35 37 37 36 34 23 32 36 68 65 73 80 83 87 81 81 95 97 92 88 86 90 86 88 91 93 98 96 96 96 96 97 98 96 97 96 94 96 97 96 98
51 60 47 52 50 54 53 52 42 33 28 30 30 30 65 66 77 72 72 81 84 87 86 85 96 96 95 91 91 98 97 99 99 96 98 97 96 96 95 96 97 97 95 97 97 96 94 98 99
71 44 48 57 70 92 54 86 56 36 36 37 80 85 84 82 79 77 78 82 86 86 78 80 86 95 94 92 91 92 91 92 90 90 92 93 97 96 94 96 96 96 96 96 96 94 94 93 97
56 50 58 58 74 76 69 89 72 41 44 92 91 87 87 86 85 86 83 79 82 81 78 79 72 78 84 90 91 94 93 93 97 97 92 94 97 96 95 96 96 96 96 95 95 97 97 95 94
50 63 66 68 83 96 60 73 65 95 97 92 89 90 88 85 84 80 79 79 82 83 78 73 74 78 80 86 88 93 92 93 98 97 96 93 95 95 96 94 94 93 94 95 96 96 96 96 96
63 71 90 89 94 86 56 72 88 96 91 94 96 94 89 86 86 82 83 81 79 80 79 78 77 79 78 83 85 88 93 92 93 95 94 96 98 97 97 97 96 96 96 96 94 96 97 97 97
64 64 86 95 94 88 65 82 98 98 95 94 93 94 89 90 88 88 83 81 81 80 80 79 79 80 80 82 86 86 86 88 94 93 92 95 95 93 90 95 96 91 95 96 96 96 97 96 97
66 82 69 98 86 97 97 98 94 86 94 99 99 95 95 92 91 90 86 83 82 82 82 82 81 80 81 82 86 88 92 90 85 94 94 96 96 96 97 95 96 94 94 96 97 98 98 97 97
61 64 94 98 97 94 89 96 98 96 98 98 98 98 99 96 92 88 88 84 83 82 81 82 80 81 80 81 87 88 91 93 90 86 95 94 96 97 97 97 96 94 94 96 97 97 97 98 97
89 90 89 89 90 97 97 98 100 100 99 99 99 100 100 99 96 94 88 89 80 80 81 85 83 82 83 85 87 90 90 90 94 86 93 94 95 96 97 96 96 96 94 98 98 98 98 98 98
86 86 82 97 91 97 98 98 100 100 100 100 99 99 100 99 99 98 96 92 92 84 82 85 86 85 84 85 86 89 89 88 91 93 96 95 95 95 95 96 97 97 97 97 97 97 96 96 95

GFSSGP_sfc_rhum_117.txt.gz
RH
43 36 30 20 14 19 14 10 16 11 15 12 12 11 10 12 34 25 46 55 62 69 73 81 94 94 92 91 92 90 91 93 94 92 92 91 91 90 90 91 91 88 85 82 81 82 82 84 89
32 29 26 24 12 12 8 14 17 12 10 12 12 10 14 21 22 32 50 57 58 65 68 72 96 94 92 91 91 90 89 91 93 92 91 91 91 91 91 92 92 88 85 84 79 78 82 89 90
30 26 19 23 20 9 8 8 12 13 12 11 11 10 10 18 31 43 46 59 63 65 68 74 95 94 93 92 92 91 91 92 92 91 92 91 91 90 91 92 92 89 86 84 80 81 88 91 92
26 25 27 21 22 20 11 13 15 14 11 12 11 10 10 13 33 41 55 59 66 69 68 88 96 95 94 93 92 92 93 93 93 93 93 92 91 91 91 92 92 89 87 85 83 89 92 94 95
27 26 17 29 29 26 22 18 16 14 14 13 12 11 13 12 37 50 61 63 66 72 72 78 96 96 95 93 93 93 93 94 94 94 94 93 92 92 91 91 91 90 88 87 91 93 94 95 96
18 29 24 22 21 24 19 15 16 15 14 13 14 13 14 21 42 57 70 68 70 76 78 78 93 96 95 94 95 95 94 94 95 95 95 94 94 94 91 90 91 90 91 92 94 93 94 95 95
19 25 22 28 26 24 19 17 19 19 18 15 13 15 14 19 40 60 69 76 79 81 83 84 82 87 98 97 97 96 95 94 95 96 96 96 96 94 91 90 91 92 93 93 93 94 95 95 95
31 31 36 29 25 24 20 17 17 18 18 16 13 18 18 21 50 68 71 78 81 88 86 86 86 86 84 87 98 97 96 95 95 96 96 97 96 93 91 91 91 91 92 92 92 93 94 94 95
36 31 34 30 29 24 22 23 21 20 21 22 20 20 20 56 69 69 72 79 90 89 86 85 86 87 89 87 89 97 97 96 96 93 96 95 76 76 77 80 92 91 92 92 93 93 94 94 94
27 37 29 25 26 29 28 30 27 27 26 26 25 22 27 23 37 56 64 65 79 86 87 83 85 87 90 84 88 87 85 78 78 78 81 84 81 78 73 81 93 92 92 92 93 95 95 90 72
24 21 26 22 23 20 20 18 18 20 22 22 27 20 18 18 20 29 58 61 61 67 78 82 84 85 87 84 87 91 88 88 85 83 82 84 81 86 82 73 70 77 85 67 71 74 71 75 76
31 28 24 24 23 18 17 15 16 16 19 16 16 16 17 15 14 14 30 54 57 62 69 80 81 84 87 80 85 88 91 93 94 85 87 87 88 90 82 69 72 76 76 74 67 62 72 77 78
23 19 22 21 19 17 18 18 17 17 13 14 14 13 14 14 14 14 15 25 52 60 67 78 84 85 83 84 84 88 91 92 87 90 88 84 86 89 83 77 72 72 79 78 76 67 69 74 77
24 22 22 22 21 22 21 17 17 14 12 13 12 12 11 15 16 16 17 22 52 58 64 75 86 85 84 86 83 85 88 87 88 88 90 91 84 88 86 85 82 77 79 88 74 67 73 74 74
24 28 23 21 19 21 17 19 16 14 13 14 13 12 11 11 12 16 18 20 24 50 58 76 81 86 86 85 83 83 84 85 82 86 91 92 88 86 87 90 88 83 86 92 77 79 77 76 76
28 28 30 23 20 21 24 32 20 18 18 20 19 17 15 14 11 12 16 18 17 32 56 70 68 81 85 84 84 83 83 79 75 83 85 92 89 87 87 88 89 88 93 92 85 88 84 76 76
36 33 31 26 22 24 28 33 24 22 24 26 21 18 16 17 16 15 15 17 17 23 52 68 73 77 82 81 81 80 83 76 73 78 84 90 90 89 88 89 92 94 94 95 89 91 82 87 76
34 34 31 33 23 26 31 32 25 21 22 25 24 21 20 17 16 15 18 23 22 21 51 64 73 76 80 78 83 77 81 77 74 74 77 86 88 91 88 91 92 93 94 96 93 88 84 80 73
37 41 40 33 29 37 35 30 28 31 30 29 24 24 24 20 17 15 40 57 59 40 54 65 75 76 76 76 83 80 86 81 82 70 76 84 86 89 90 92 92 94 94 93 92 91 92 90 81
42 48 47 39 33 33 33 38 34 35 35 32 27 23 23 23 21 21 59 65 68 69 67 70 74 77 78 73 77 81 88 78 78 81 82 84 85 88 88 93 92 93 94 94 94 92 94 92 92
46 50 46 46 36 37 45 45 33 28 26 27 26 38 36 52 44 63 66 71 70 72 71 69 83 77 81 81 86 86 87 90 95 87 86 86 81 87 87 89 91 92 92 92 94 92 93 97 97
64 41 42 45 54 60 45 72 41 39 47 71 72 76 79 77 72 69 70 72 74 74 71 70 82 87 86 90 88 90 82 89 84 82 84 87 86 85 84 86 88 91 92 92 92 91 93 90 95
40 42 46 50 59 64 47 80 44 62 91 97 96 89 87 85 84 80 76 76 73 73 73 72 75 80 88 96 90 92 89 87 85 88 91 92 92 90 86 87 88 93 90 89 92 94 94 92 85
43 54 52 55 66 80 52 64 52 93 98 97 99 94 92 89 86 81 75 73 75 73 74 73 72 74 79 85 90 90 90 87 91 87 93 92 91 91 91 89 91 91 90 88 89 91 93 92 92
56 55 70 68 74 64 76 87 93 97 96 99 100 98 95 93 93 91 87 83 81 80 78 72 73 77 78 83 85 88 92 93 89 87 84 90 90 94 92 95 96 94 91 90 87 90 92 93 95
50 51 71 91 70 73 82 88 92 98 84 92 94 100 95 95 91 94 92 87 83 83 81 79 75 75 75 79 84 82 86 92 92 89 83 87 85 89 89 94 94 93 91 90 91 93 93 93 95
57 64 51 95 77 90 91 95 99 75 84 90 98 95 97 98 95 93 90 88 86 85 85 82 81 79 79 81 85 86 89 91 92 90 96 92 86 88 91 92 93 92 91 92 93 93 95 96 96
54 53 95 91 92 82 88 88 94 93 97 95 96 97 96 96 96 95 90 86 82 81 82 82 78 81 81 80 83 84 86 87 92 93 92 96 93 90 92 93 93 93 94 93 93 92 93 96 96
58 73 96 97 82 92 89 94 100 100 99 97 98 98 98 97 98 97 96 85 80 77 79 84 82 80 83 85 85 86 86 86 87 89 89 96 95 94 94 94 95 95 94 93 94 93 94 95 95
62 69 84 92 84 90 93 96 100 100 100 97 97 98 98 97 99 99 99 88 86 83 82 85 85 85 83 84 85 87 86 85 86 88 87 89 94 94 92 93 95 94 93 91 94 94 94 95 97

GFSSGP_sfc_rhum_120.txt.gz
RH
34 15 14 14 12 8 6 4 4 5 7 7 8 7 6 8 10 18 24 33 38 39 52 74 92 90 90 90 90 92 94 93 90 90 90 91 91 91 92 92 91 88 85 83 80 81 84 85 88
14 16 14 10 11 8 6 4 7 5 5 7 6 6 8 11 14 13 20 38 36 37 48 56 94 91 91 90 89 92 93 94 92 91 90 91 90 91 92 92 92 89 86 84 78 78 84 88 90
18 16 12 12 12 11 9 6 5 6 7 7 6 6 7 9 10 16 20 40 37 38 46 53 93 92 91 90 89 91 94 95 94 92 90 90 90 90 92 93 92 89 87 84 78 80 88 90 91
14 13 11 15 15 11 9 7 8 6 5 8 7 7 6 7 13 21 30 38 39 40 44 80 95 93 91 91 90 91 93 94 94 93 90 90 90 90 91 92 92 90 87 84 83 88 91 92 93
11 12 16 17 16 14 12 10 9 10 9 10 9 11 11 10 18 20 30 41 40 44 47 68 96 94 92 91 91 91 91 93 94 94 92 91 90 91 92 92 92 91 88 87 91 92 92 93 94
13 14 17 16 14 13 13 11 10 11 11 12 12 12 12 12 20 24 32 42 44 49 54 61 91 95 94 93 93 93 92 93 94 95 94 93 93 93 92 92 92 91 89 93 93 92 94 95 95
16 13 13 12 14 14 14 12 13 14 14 12 11 15 13 11 26 30 38 49 54 56 62 61 69 80 98 96 96 94 93 94 95 95 95 95 95 93 91 91 91 91 93 94 93 93 94 95 95
15 15 13 13 13 10 10 12 11 12 15 14 12 15 17 17 20 25 34 49 58 62 67 65 65 66 68 74 97 95 94 95 96 95 96 97 96 93 92 92 92 93 93 93 93 94 94 95 96
16 12 10 8 12 10 10 16 14 15 17 15 15 17 16 18 15 17 23 33 54 63 64 67 68 71 64 63 74 94 95 95 96 92 97 92 59 66 72 73 93 93 93 92 93 94 95 96 95
11 9 9 10 12 16 17 17 16 13 13 12 11 12 16 14 14 16 16 21 35 54 64 61 71 78 74 69 68 69 65 62 66 66 70 62 59 60 55 70 93 93 93 94 94 94 95 90 54
7 9 6 11 10 14 10 8 7 10 9 8 10 12 10 11 12 12 12 13 20 33 46 63 73 76 80 66 73 67 67 54 61 67 66 65 68 68 58 58 61 64 85 60 70 72 56 53 49
16 8 12 10 9 11 11 10 10 9 10 8 8 8 9 9 9 9 10 10 12 24 41 51 62 76 81 55 61 57 72 68 71 67 73 75 74 74 63 55 57 63 56 53 53 52 51 54 55
13 12 11 12 12 12 12 12 11 12 9 8 8 9 8 7 7 7 8 9 11 14 28 48 58 69 75 67 54 62 72 76 76 74 76 70 75 72 59 56 58 63 55 53 54 51 52 55 55
14 15 14 13 13 13 14 13 11 11 9 9 9 9 8 9 9 8 8 10 12 14 21 43 55 65 72 65 61 70 73 75 74 74 78 74 74 73 58 59 56 60 55 52 55 55 50 51 50
17 19 14 12 12 14 13 14 10 9 10 12 11 11 12 12 11 11 11 11 11 12 14 33 56 64 72 75 60 61 73 78 77 78 83 84 80 78 66 68 58 59 63 66 64 59 52 51 50
18 18 17 12 12 13 16 20 12 11 13 13 13 13 13 13 12 10 11 11 8 10 14 18 39 60 71 73 61 65 65 79 67 70 83 86 85 79 80 73 76 69 79 72 63 60 57 54 52
20 17 16 14 12 14 18 18 11 10 11 13 12 12 13 13 13 12 10 10 10 9 14 18 30 55 66 65 62 63 67 66 52 50 75 83 86 85 81 77 76 84 85 82 69 68 60 58 56
19 20 18 18 13 16 18 19 16 14 13 15 15 16 16 15 14 13 13 12 10 10 16 19 22 52 60 60 61 55 54 54 49 49 56 77 85 86 84 83 85 87 85 86 89 78 62 60 59
25 25 24 19 17 22 23 19 16 16 17 19 19 18 18 18 15 12 15 15 15 18 30 27 25 42 56 56 56 52 54 52 50 47 53 64 84 86 86 85 88 88 87 86 88 85 78 72 66
31 32 29 21 19 22 22 23 17 18 27 39 43 40 39 35 24 18 16 17 37 43 45 39 31 31 51 53 49 47 51 50 48 48 52 59 80 85 81 86 86 88 88 87 88 92 87 82 79
33 31 28 27 24 24 25 22 21 26 34 38 45 52 54 54 51 44 42 45 50 51 53 47 47 32 49 59 55 50 52 52 55 53 52 66 70 81 84 84 86 88 87 88 88 89 88 87 88
44 22 23 26 35 40 29 48 27 34 36 42 50 69 91 91 82 65 65 66 64 64 64 57 62 72 65 75 63 65 57 62 62 56 55 66 73 66 79 79 85 87 87 84 87 84 88 83 92
32 29 30 32 40 42 31 47 27 40 55 59 63 71 94 94 94 84 78 73 72 71 72 69 74 86 94 81 76 77 62 56 57 60 66 74 81 72 71 74 80 83 85 83 84 90 90 90 81
33 39 39 38 40 53 38 55 41 73 91 74 86 70 87 94 95 92 85 81 81 82 78 75 76 84 91 94 90 87 89 71 66 73 76 83 84 87 84 70 79 83 81 82 85 87 87 89 86
40 45 50 54 64 33 38 56 85 92 90 94 99 94 85 94 95 95 95 91 90 90 87 80 75 80 89 93 91 90 96 93 81 74 75 85 88 92 89 80 84 84 85 80 86 88 85 84 85
42 46 54 90 61 51 42 62 82 66 73 82 80 100 87 90 95 96 99 91 91 91 88 87 81 80 79 84 86 86 88 89 90 86 84 73 82 84 84 89 87 84 85 85 82 85 82 82 85
42 50 41 76 60 82 67 82 95 50 63 79 94 88 98 92 96 97 96 90 90 92 88 92 87 82 80 81 80 83 84 87 91 90 91 93 87 84 85 93 94 93 92 88 86 84 88 87 87
44 42 66 86 96 84 75 93 91 93 92 100 96 98 98 96 94 93 96 90 87 87 88 88 83 84 82 80 80 80 82 82 84 88 91 91 93 94 91 92 95 91 93 93 93 89 91 93 92
43 57 64 77 62 84 78 95 100 100 100 98 97 99 99 99 98 96 94 93 81 80 82 86 82 79 81 82 83 84 83 83 84 86 85 87 90 95 96 93 92 92 93 97 98 97 94 94 92
34 51 78 90 76 78 97 98 100 87 95 94 99 99 100 99 100 97 97 94 85 82 80 82 86 85 83 82 83 86 85 83 85 87 85 85 85 90 95 92 91 94 93 93 97 96 94 94 94